<?xml version="1.0" encoding="UTF-8" standalone="no" ?>
<gpx xmlns="http://www.topografix.com/GPX/1/1" xmlns:xsi="http://www.w3.org/2001/XMLSchema-instance" xsi:schemaLocation="http://www.topografix.com/GPX/1/1 http://www.topografix.com/GPX/1/1/gpx.xsd" version="1.1" creator="VisuGPX - https://www.visugpx.com">
  <metadata>
    <name>Boucle 15 kms</name>
    <desc><![CDATA[petite boucle de 15 kms avec quelques bonnes piste pour un bon trotting et un peu de galop (éviter le côté des Barillets, surtout s\'il a plût)]]></desc>
  </metadata>
  <trk>
    <name><![CDATA[Boucle 15 kms]]></name>
    <desc><![CDATA[Eviter le côté des Barillets surtout s'il a plut !]]></desc>
    <trkseg>
      <trkpt lat="48.70678" lon="1.75712">
        <ele>174.19999694824</ele>
        <time>2011-04-26T07:52:12.000Z</time>
      </trkpt>
      <trkpt lat="48.7067" lon="1.75702">
        <ele>174.39999389648</ele>
        <time>2011-04-26T07:52:19.000Z</time>
      </trkpt>
      <trkpt lat="48.70668" lon="1.75699">
        <ele>174.60000610352</ele>
        <time>2011-04-26T07:52:23.000Z</time>
      </trkpt>
      <trkpt lat="48.70664" lon="1.75692">
        <ele>175</ele>
        <time>2011-04-26T07:52:28.000Z</time>
      </trkpt>
      <trkpt lat="48.70657" lon="1.75687">
        <ele>175.60000610352</ele>
        <time>2011-04-26T07:52:33.000Z</time>
      </trkpt>
      <trkpt lat="48.70651" lon="1.7568">
        <ele>176.39999389648</ele>
        <time>2011-04-26T07:52:39.000Z</time>
      </trkpt>
      <trkpt lat="48.7065" lon="1.75679">
        <ele>176.60000610352</ele>
        <time>2011-04-26T07:52:40.000Z</time>
      </trkpt>
      <trkpt lat="48.70646" lon="1.75676">
        <ele>177.19999694824</ele>
        <time>2011-04-26T07:52:43.000Z</time>
      </trkpt>
      <trkpt lat="48.70642" lon="1.75672">
        <ele>177.60000610352</ele>
        <time>2011-04-26T07:52:46.000Z</time>
      </trkpt>
      <trkpt lat="48.70639" lon="1.75665">
        <ele>178.19999694824</ele>
        <time>2011-04-26T07:52:50.000Z</time>
      </trkpt>
      <trkpt lat="48.70634" lon="1.75655">
        <ele>178.60000610352</ele>
        <time>2011-04-26T07:52:57.000Z</time>
      </trkpt>
      <trkpt lat="48.70633" lon="1.75654">
        <ele>178.80000305176</ele>
        <time>2011-04-26T07:52:58.000Z</time>
      </trkpt>
      <trkpt lat="48.70629" lon="1.75652">
        <ele>179.19999694824</ele>
        <time>2011-04-26T07:53:01.000Z</time>
      </trkpt>
      <trkpt lat="48.70627" lon="1.75649">
        <ele>179.39999389648</ele>
        <time>2011-04-26T07:53:04.000Z</time>
      </trkpt>
      <trkpt lat="48.70619" lon="1.75642">
        <ele>180.39999389648</ele>
        <time>2011-04-26T07:53:11.000Z</time>
      </trkpt>
      <trkpt lat="48.70613" lon="1.75635">
        <ele>180.80000305176</ele>
        <time>2011-04-26T07:53:17.000Z</time>
      </trkpt>
      <trkpt lat="48.70608" lon="1.75625">
        <ele>181.19999694824</ele>
        <time>2011-04-26T07:53:23.000Z</time>
      </trkpt>
      <trkpt lat="48.70605" lon="1.75619">
        <ele>181.39999389648</ele>
        <time>2011-04-26T07:53:27.000Z</time>
      </trkpt>
      <trkpt lat="48.70601" lon="1.75616">
        <ele>181.80000305176</ele>
        <time>2011-04-26T07:53:31.000Z</time>
      </trkpt>
      <trkpt lat="48.70594" lon="1.75611">
        <ele>182.39999389648</ele>
        <time>2011-04-26T07:53:36.000Z</time>
      </trkpt>
      <trkpt lat="48.70595" lon="1.75608">
        <ele>182.19999694824</ele>
        <time>2011-04-26T07:53:42.000Z</time>
      </trkpt>
      <trkpt lat="48.70584" lon="1.75593">
        <ele>183</ele>
        <time>2011-04-26T07:53:58.000Z</time>
      </trkpt>
      <trkpt lat="48.7058" lon="1.75587">
        <ele>183</ele>
        <time>2011-04-26T07:54:02.000Z</time>
      </trkpt>
      <trkpt lat="48.70573" lon="1.75579">
        <ele>182.60000610352</ele>
        <time>2011-04-26T07:54:09.000Z</time>
      </trkpt>
      <trkpt lat="48.70569" lon="1.75573">
        <ele>182.19999694824</ele>
        <time>2011-04-26T07:54:14.000Z</time>
      </trkpt>
      <trkpt lat="48.70566" lon="1.75568">
        <ele>181.80000305176</ele>
        <time>2011-04-26T07:54:17.000Z</time>
      </trkpt>
      <trkpt lat="48.70557" lon="1.75561">
        <ele>181.60000610352</ele>
        <time>2011-04-26T07:54:23.000Z</time>
      </trkpt>
      <trkpt lat="48.70557" lon="1.7556">
        <ele>181.39999389648</ele>
        <time>2011-04-26T07:54:24.000Z</time>
      </trkpt>
      <trkpt lat="48.70554" lon="1.75556">
        <ele>181.19999694824</ele>
        <time>2011-04-26T07:54:27.000Z</time>
      </trkpt>
      <trkpt lat="48.7055" lon="1.75553">
        <ele>181</ele>
        <time>2011-04-26T07:54:31.000Z</time>
      </trkpt>
      <trkpt lat="48.70546" lon="1.75545">
        <ele>180.60000610352</ele>
        <time>2011-04-26T07:54:38.000Z</time>
      </trkpt>
      <trkpt lat="48.7054" lon="1.75537">
        <ele>180.39999389648</ele>
        <time>2011-04-26T07:54:44.000Z</time>
      </trkpt>
      <trkpt lat="48.70532" lon="1.75532">
        <ele>180.39999389648</ele>
        <time>2011-04-26T07:54:50.000Z</time>
      </trkpt>
      <trkpt lat="48.7053" lon="1.75529">
        <ele>180.39999389648</ele>
        <time>2011-04-26T07:54:54.000Z</time>
      </trkpt>
      <trkpt lat="48.70523" lon="1.75521">
        <ele>180.39999389648</ele>
        <time>2011-04-26T07:55:00.000Z</time>
      </trkpt>
      <trkpt lat="48.70516" lon="1.75513">
        <ele>180.39999389648</ele>
        <time>2011-04-26T07:55:06.000Z</time>
      </trkpt>
      <trkpt lat="48.70513" lon="1.7551">
        <ele>180.39999389648</ele>
        <time>2011-04-26T07:55:10.000Z</time>
      </trkpt>
      <trkpt lat="48.70503" lon="1.75504">
        <ele>180.80000305176</ele>
        <time>2011-04-26T07:55:17.000Z</time>
      </trkpt>
      <trkpt lat="48.70498" lon="1.75501">
        <ele>181</ele>
        <time>2011-04-26T07:55:21.000Z</time>
      </trkpt>
      <trkpt lat="48.70494" lon="1.75498">
        <ele>181</ele>
        <time>2011-04-26T07:55:25.000Z</time>
      </trkpt>
      <trkpt lat="48.70488" lon="1.75489">
        <ele>180.80000305176</ele>
        <time>2011-04-26T07:55:31.000Z</time>
      </trkpt>
      <trkpt lat="48.70487" lon="1.75488">
        <ele>180.60000610352</ele>
        <time>2011-04-26T07:55:34.000Z</time>
      </trkpt>
      <trkpt lat="48.70474" lon="1.75473">
        <ele>180.39999389648</ele>
        <time>2011-04-26T07:56:01.000Z</time>
      </trkpt>
      <trkpt lat="48.7047" lon="1.75468">
        <ele>180.39999389648</ele>
        <time>2011-04-26T07:56:04.000Z</time>
      </trkpt>
      <trkpt lat="48.70464" lon="1.75465">
        <ele>180.60000610352</ele>
        <time>2011-04-26T07:56:08.000Z</time>
      </trkpt>
      <trkpt lat="48.7046" lon="1.75459">
        <ele>180.60000610352</ele>
        <time>2011-04-26T07:56:13.000Z</time>
      </trkpt>
      <trkpt lat="48.70458" lon="1.75457">
        <ele>180.60000610352</ele>
        <time>2011-04-26T07:56:15.000Z</time>
      </trkpt>
      <trkpt lat="48.70454" lon="1.75453">
        <ele>180.60000610352</ele>
        <time>2011-04-26T07:56:19.000Z</time>
      </trkpt>
      <trkpt lat="48.70447" lon="1.7545">
        <ele>181</ele>
        <time>2011-04-26T07:56:24.000Z</time>
      </trkpt>
      <trkpt lat="48.70438" lon="1.75446">
        <ele>181.39999389648</ele>
        <time>2011-04-26T07:56:32.000Z</time>
      </trkpt>
      <trkpt lat="48.70434" lon="1.75443">
        <ele>181.39999389648</ele>
        <time>2011-04-26T07:56:35.000Z</time>
      </trkpt>
      <trkpt lat="48.70429" lon="1.75436">
        <ele>181.60000610352</ele>
        <time>2011-04-26T07:56:42.000Z</time>
      </trkpt>
      <trkpt lat="48.70424" lon="1.75432">
        <ele>181.80000305176</ele>
        <time>2011-04-26T07:56:46.000Z</time>
      </trkpt>
      <trkpt lat="48.70415" lon="1.75426">
        <ele>182</ele>
        <time>2011-04-26T07:56:53.000Z</time>
      </trkpt>
      <trkpt lat="48.70407" lon="1.75421">
        <ele>181.80000305176</ele>
        <time>2011-04-26T07:56:59.000Z</time>
      </trkpt>
      <trkpt lat="48.70403" lon="1.75418">
        <ele>181.80000305176</ele>
        <time>2011-04-26T07:57:03.000Z</time>
      </trkpt>
      <trkpt lat="48.70402" lon="1.75417">
        <ele>181.80000305176</ele>
        <time>2011-04-26T07:57:04.000Z</time>
      </trkpt>
      <trkpt lat="48.70396" lon="1.75415">
        <ele>181.60000610352</ele>
        <time>2011-04-26T07:57:08.000Z</time>
      </trkpt>
      <trkpt lat="48.70389" lon="1.75413">
        <ele>181.39999389648</ele>
        <time>2011-04-26T07:57:14.000Z</time>
      </trkpt>
      <trkpt lat="48.70383" lon="1.75414">
        <ele>181.39999389648</ele>
        <time>2011-04-26T07:57:19.000Z</time>
      </trkpt>
      <trkpt lat="48.70376" lon="1.75413">
        <ele>181.39999389648</ele>
        <time>2011-04-26T07:57:24.000Z</time>
      </trkpt>
      <trkpt lat="48.70368" lon="1.75403">
        <ele>181</ele>
        <time>2011-04-26T07:57:32.000Z</time>
      </trkpt>
      <trkpt lat="48.70363" lon="1.75402">
        <ele>181</ele>
        <time>2011-04-26T07:57:38.000Z</time>
      </trkpt>
      <trkpt lat="48.7036" lon="1.75395">
        <ele>180.80000305176</ele>
        <time>2011-04-26T07:57:43.000Z</time>
      </trkpt>
      <trkpt lat="48.70359" lon="1.75393">
        <ele>180.80000305176</ele>
        <time>2011-04-26T07:57:45.000Z</time>
      </trkpt>
      <trkpt lat="48.70355" lon="1.75384">
        <ele>180.80000305176</ele>
        <time>2011-04-26T07:57:50.000Z</time>
      </trkpt>
      <trkpt lat="48.7035" lon="1.7538">
        <ele>180.80000305176</ele>
        <time>2011-04-26T07:57:54.000Z</time>
      </trkpt>
      <trkpt lat="48.70345" lon="1.75373">
        <ele>180.80000305176</ele>
        <time>2011-04-26T07:57:59.000Z</time>
      </trkpt>
      <trkpt lat="48.70339" lon="1.75365">
        <ele>180.80000305176</ele>
        <time>2011-04-26T07:58:05.000Z</time>
      </trkpt>
      <trkpt lat="48.70338" lon="1.75364">
        <ele>180.80000305176</ele>
        <time>2011-04-26T07:58:06.000Z</time>
      </trkpt>
      <trkpt lat="48.70333" lon="1.75362">
        <ele>180.80000305176</ele>
        <time>2011-04-26T07:58:10.000Z</time>
      </trkpt>
      <trkpt lat="48.70331" lon="1.75359">
        <ele>180.80000305176</ele>
        <time>2011-04-26T07:58:14.000Z</time>
      </trkpt>
      <trkpt lat="48.70325" lon="1.75357">
        <ele>180.60000610352</ele>
        <time>2011-04-26T07:58:20.000Z</time>
      </trkpt>
      <trkpt lat="48.7032" lon="1.75354">
        <ele>180.60000610352</ele>
        <time>2011-04-26T07:58:23.000Z</time>
      </trkpt>
      <trkpt lat="48.70314" lon="1.7535">
        <ele>180.39999389648</ele>
        <time>2011-04-26T07:58:28.000Z</time>
      </trkpt>
      <trkpt lat="48.70314" lon="1.75348">
        <ele>180.39999389648</ele>
        <time>2011-04-26T07:58:29.000Z</time>
      </trkpt>
      <trkpt lat="48.70311" lon="1.75342">
        <ele>180.39999389648</ele>
        <time>2011-04-26T07:58:33.000Z</time>
      </trkpt>
      <trkpt lat="48.7031" lon="1.75334">
        <ele>180.39999389648</ele>
        <time>2011-04-26T07:58:36.000Z</time>
      </trkpt>
      <trkpt lat="48.70307" lon="1.75324">
        <ele>180.39999389648</ele>
        <time>2011-04-26T07:58:41.000Z</time>
      </trkpt>
      <trkpt lat="48.70302" lon="1.7531">
        <ele>180.39999389648</ele>
        <time>2011-04-26T07:58:49.000Z</time>
      </trkpt>
      <trkpt lat="48.70299" lon="1.75303">
        <ele>180.39999389648</ele>
        <time>2011-04-26T07:58:54.000Z</time>
      </trkpt>
      <trkpt lat="48.70297" lon="1.75299">
        <ele>180.39999389648</ele>
        <time>2011-04-26T07:58:57.000Z</time>
      </trkpt>
      <trkpt lat="48.7029" lon="1.75294">
        <ele>180.39999389648</ele>
        <time>2011-04-26T07:59:03.000Z</time>
      </trkpt>
      <trkpt lat="48.70286" lon="1.75293">
        <ele>180.19999694824</ele>
        <time>2011-04-26T07:59:07.000Z</time>
      </trkpt>
      <trkpt lat="48.70283" lon="1.75292">
        <ele>180.19999694824</ele>
        <time>2011-04-26T07:59:09.000Z</time>
      </trkpt>
      <trkpt lat="48.70273" lon="1.7529">
        <ele>180</ele>
        <time>2011-04-26T07:59:16.000Z</time>
      </trkpt>
      <trkpt lat="48.70271" lon="1.75287">
        <ele>180</ele>
        <time>2011-04-26T07:59:18.000Z</time>
      </trkpt>
      <trkpt lat="48.70266" lon="1.75285">
        <ele>179.80000305176</ele>
        <time>2011-04-26T07:59:22.000Z</time>
      </trkpt>
      <trkpt lat="48.70264" lon="1.75279">
        <ele>179.80000305176</ele>
        <time>2011-04-26T07:59:25.000Z</time>
      </trkpt>
      <trkpt lat="48.70257" lon="1.75273">
        <ele>179.80000305176</ele>
        <time>2011-04-26T07:59:32.000Z</time>
      </trkpt>
      <trkpt lat="48.70256" lon="1.75274">
        <ele>179.80000305176</ele>
        <time>2011-04-26T07:59:36.000Z</time>
      </trkpt>
      <trkpt lat="48.70255" lon="1.75273">
        <ele>179.80000305176</ele>
        <time>2011-04-26T07:59:40.000Z</time>
      </trkpt>
      <trkpt lat="48.7025" lon="1.75274">
        <ele>179.60000610352</ele>
        <time>2011-04-26T07:59:57.000Z</time>
      </trkpt>
      <trkpt lat="48.70245" lon="1.75271">
        <ele>179.39999389648</ele>
        <time>2011-04-26T08:00:02.000Z</time>
      </trkpt>
      <trkpt lat="48.70241" lon="1.7527">
        <ele>179.19999694824</ele>
        <time>2011-04-26T08:00:06.000Z</time>
      </trkpt>
      <trkpt lat="48.70238" lon="1.75264">
        <ele>179.19999694824</ele>
        <time>2011-04-26T08:00:12.000Z</time>
      </trkpt>
      <trkpt lat="48.70237" lon="1.75259">
        <ele>179.19999694824</ele>
        <time>2011-04-26T08:00:16.000Z</time>
      </trkpt>
      <trkpt lat="48.70236" lon="1.75256">
        <ele>179.19999694824</ele>
        <time>2011-04-26T08:00:20.000Z</time>
      </trkpt>
      <trkpt lat="48.70233" lon="1.7525">
        <ele>179</ele>
        <time>2011-04-26T08:00:26.000Z</time>
      </trkpt>
      <trkpt lat="48.70227" lon="1.75246">
        <ele>178.80000305176</ele>
        <time>2011-04-26T08:00:33.000Z</time>
      </trkpt>
      <trkpt lat="48.70218" lon="1.75241">
        <ele>178.39999389648</ele>
        <time>2011-04-26T08:00:41.000Z</time>
      </trkpt>
      <trkpt lat="48.70207" lon="1.75243">
        <ele>177.80000305176</ele>
        <time>2011-04-26T08:00:50.000Z</time>
      </trkpt>
      <trkpt lat="48.70198" lon="1.7525">
        <ele>177.39999389648</ele>
        <time>2011-04-26T08:00:56.000Z</time>
      </trkpt>
      <trkpt lat="48.70195" lon="1.75251">
        <ele>177.19999694824</ele>
        <time>2011-04-26T08:00:59.000Z</time>
      </trkpt>
      <trkpt lat="48.70191" lon="1.75245">
        <ele>177</ele>
        <time>2011-04-26T08:01:03.000Z</time>
      </trkpt>
      <trkpt lat="48.70192" lon="1.75238">
        <ele>177</ele>
        <time>2011-04-26T08:01:06.000Z</time>
      </trkpt>
      <trkpt lat="48.70194" lon="1.75222">
        <ele>177.19999694824</ele>
        <time>2011-04-26T08:01:12.000Z</time>
      </trkpt>
      <trkpt lat="48.70195" lon="1.75219">
        <ele>177.19999694824</ele>
        <time>2011-04-26T08:01:14.000Z</time>
      </trkpt>
      <trkpt lat="48.70196" lon="1.75203">
        <ele>177.19999694824</ele>
        <time>2011-04-26T08:01:23.000Z</time>
      </trkpt>
      <trkpt lat="48.70198" lon="1.7519">
        <ele>177.19999694824</ele>
        <time>2011-04-26T08:01:29.000Z</time>
      </trkpt>
      <trkpt lat="48.70201" lon="1.75186">
        <ele>177.19999694824</ele>
        <time>2011-04-26T08:01:33.000Z</time>
      </trkpt>
      <trkpt lat="48.70204" lon="1.75184">
        <ele>177.39999389648</ele>
        <time>2011-04-26T08:01:37.000Z</time>
      </trkpt>
      <trkpt lat="48.70208" lon="1.75183">
        <ele>177.39999389648</ele>
        <time>2011-04-26T08:01:45.000Z</time>
      </trkpt>
      <trkpt lat="48.70208" lon="1.75183">
        <ele>177.39999389648</ele>
        <time>2011-04-26T08:02:05.000Z</time>
      </trkpt>
      <trkpt lat="48.70213" lon="1.75176">
        <ele>177.60000610352</ele>
        <time>2011-04-26T08:02:17.000Z</time>
      </trkpt>
      <trkpt lat="48.70217" lon="1.75172">
        <ele>177.80000305176</ele>
        <time>2011-04-26T08:02:23.000Z</time>
      </trkpt>
      <trkpt lat="48.70209" lon="1.7516">
        <ele>177.39999389648</ele>
        <time>2011-04-26T08:02:58.000Z</time>
      </trkpt>
      <trkpt lat="48.70205" lon="1.75157">
        <ele>177.39999389648</ele>
        <time>2011-04-26T08:03:02.000Z</time>
      </trkpt>
      <trkpt lat="48.70206" lon="1.75151">
        <ele>177.60000610352</ele>
        <time>2011-04-26T08:03:07.000Z</time>
      </trkpt>
      <trkpt lat="48.70206" lon="1.75149">
        <ele>177.60000610352</ele>
        <time>2011-04-26T08:03:08.000Z</time>
      </trkpt>
      <trkpt lat="48.70209" lon="1.7514">
        <ele>177.80000305176</ele>
        <time>2011-04-26T08:03:12.000Z</time>
      </trkpt>
      <trkpt lat="48.70208" lon="1.7513">
        <ele>177.80000305176</ele>
        <time>2011-04-26T08:03:18.000Z</time>
      </trkpt>
      <trkpt lat="48.70208" lon="1.75127">
        <ele>177.80000305176</ele>
        <time>2011-04-26T08:03:20.000Z</time>
      </trkpt>
      <trkpt lat="48.70212" lon="1.75118">
        <ele>178</ele>
        <time>2011-04-26T08:03:25.000Z</time>
      </trkpt>
      <trkpt lat="48.70213" lon="1.75106">
        <ele>178.19999694824</ele>
        <time>2011-04-26T08:03:30.000Z</time>
      </trkpt>
      <trkpt lat="48.70215" lon="1.75092">
        <ele>178.39999389648</ele>
        <time>2011-04-26T08:03:37.000Z</time>
      </trkpt>
      <trkpt lat="48.70218" lon="1.75074">
        <ele>178.39999389648</ele>
        <time>2011-04-26T08:03:45.000Z</time>
      </trkpt>
      <trkpt lat="48.7022" lon="1.75061">
        <ele>178.19999694824</ele>
        <time>2011-04-26T08:03:51.000Z</time>
      </trkpt>
      <trkpt lat="48.70226" lon="1.75048">
        <ele>178</ele>
        <time>2011-04-26T08:03:57.000Z</time>
      </trkpt>
      <trkpt lat="48.70227" lon="1.75038">
        <ele>177.80000305176</ele>
        <time>2011-04-26T08:04:03.000Z</time>
      </trkpt>
      <trkpt lat="48.70226" lon="1.75028">
        <ele>177.60000610352</ele>
        <time>2011-04-26T08:04:08.000Z</time>
      </trkpt>
      <trkpt lat="48.70229" lon="1.75017">
        <ele>177.39999389648</ele>
        <time>2011-04-26T08:04:14.000Z</time>
      </trkpt>
      <trkpt lat="48.70234" lon="1.75003">
        <ele>177.19999694824</ele>
        <time>2011-04-26T08:04:22.000Z</time>
      </trkpt>
      <trkpt lat="48.70237" lon="1.74989">
        <ele>176.60000610352</ele>
        <time>2011-04-26T08:04:30.000Z</time>
      </trkpt>
      <trkpt lat="48.7024" lon="1.74975">
        <ele>175.80000305176</ele>
        <time>2011-04-26T08:04:38.000Z</time>
      </trkpt>
      <trkpt lat="48.70241" lon="1.74962">
        <ele>175.19999694824</ele>
        <time>2011-04-26T08:04:45.000Z</time>
      </trkpt>
      <trkpt lat="48.70244" lon="1.74948">
        <ele>174.60000610352</ele>
        <time>2011-04-26T08:04:52.000Z</time>
      </trkpt>
      <trkpt lat="48.70245" lon="1.74936">
        <ele>174</ele>
        <time>2011-04-26T08:04:59.000Z</time>
      </trkpt>
      <trkpt lat="48.7025" lon="1.74922">
        <ele>173.19999694824</ele>
        <time>2011-04-26T08:05:07.000Z</time>
      </trkpt>
      <trkpt lat="48.70253" lon="1.74907">
        <ele>172.80000305176</ele>
        <time>2011-04-26T08:05:14.000Z</time>
      </trkpt>
      <trkpt lat="48.70256" lon="1.74884">
        <ele>172.60000610352</ele>
        <time>2011-04-26T08:05:25.000Z</time>
      </trkpt>
      <trkpt lat="48.70258" lon="1.74867">
        <ele>172.60000610352</ele>
        <time>2011-04-26T08:05:33.000Z</time>
      </trkpt>
      <trkpt lat="48.7026" lon="1.74851">
        <ele>172.39999389648</ele>
        <time>2011-04-26T08:05:40.000Z</time>
      </trkpt>
      <trkpt lat="48.70263" lon="1.74835">
        <ele>172.19999694824</ele>
        <time>2011-04-26T08:05:48.000Z</time>
      </trkpt>
      <trkpt lat="48.70266" lon="1.74808">
        <ele>171.60000610352</ele>
        <time>2011-04-26T08:05:59.000Z</time>
      </trkpt>
      <trkpt lat="48.70269" lon="1.74795">
        <ele>171.19999694824</ele>
        <time>2011-04-26T08:06:05.000Z</time>
      </trkpt>
      <trkpt lat="48.70267" lon="1.74788">
        <ele>171.19999694824</ele>
        <time>2011-04-26T08:06:09.000Z</time>
      </trkpt>
      <trkpt lat="48.70268" lon="1.74775">
        <ele>170.80000305176</ele>
        <time>2011-04-26T08:06:16.000Z</time>
      </trkpt>
      <trkpt lat="48.70269" lon="1.74769">
        <ele>170.60000610352</ele>
        <time>2011-04-26T08:06:19.000Z</time>
      </trkpt>
      <trkpt lat="48.7027" lon="1.74762">
        <ele>170.39999389648</ele>
        <time>2011-04-26T08:06:22.000Z</time>
      </trkpt>
      <trkpt lat="48.70272" lon="1.7475">
        <ele>170.19999694824</ele>
        <time>2011-04-26T08:06:28.000Z</time>
      </trkpt>
      <trkpt lat="48.70276" lon="1.74737">
        <ele>169.80000305176</ele>
        <time>2011-04-26T08:06:34.000Z</time>
      </trkpt>
      <trkpt lat="48.70279" lon="1.74716">
        <ele>169.19999694824</ele>
        <time>2011-04-26T08:06:44.000Z</time>
      </trkpt>
      <trkpt lat="48.7028" lon="1.74703">
        <ele>169</ele>
        <time>2011-04-26T08:06:50.000Z</time>
      </trkpt>
      <trkpt lat="48.7028" lon="1.74696">
        <ele>168.80000305176</ele>
        <time>2011-04-26T08:06:53.000Z</time>
      </trkpt>
      <trkpt lat="48.70283" lon="1.74685">
        <ele>168.60000610352</ele>
        <time>2011-04-26T08:06:59.000Z</time>
      </trkpt>
      <trkpt lat="48.70284" lon="1.74683">
        <ele>168.60000610352</ele>
        <time>2011-04-26T08:07:00.000Z</time>
      </trkpt>
      <trkpt lat="48.70286" lon="1.74667">
        <ele>168.39999389648</ele>
        <time>2011-04-26T08:07:08.000Z</time>
      </trkpt>
      <trkpt lat="48.7029" lon="1.74661">
        <ele>168.60000610352</ele>
        <time>2011-04-26T08:07:12.000Z</time>
      </trkpt>
      <trkpt lat="48.70303" lon="1.74654">
        <ele>169</ele>
        <time>2011-04-26T08:07:24.000Z</time>
      </trkpt>
      <trkpt lat="48.7031" lon="1.74645">
        <ele>169.39999389648</ele>
        <time>2011-04-26T08:07:31.000Z</time>
      </trkpt>
      <trkpt lat="48.70322" lon="1.74639">
        <ele>170</ele>
        <time>2011-04-26T08:07:41.000Z</time>
      </trkpt>
      <trkpt lat="48.70334" lon="1.74633">
        <ele>170.60000610352</ele>
        <time>2011-04-26T08:07:51.000Z</time>
      </trkpt>
      <trkpt lat="48.70336" lon="1.74632">
        <ele>170.80000305176</ele>
        <time>2011-04-26T08:07:53.000Z</time>
      </trkpt>
      <trkpt lat="48.70342" lon="1.74628">
        <ele>171.39999389648</ele>
        <time>2011-04-26T08:07:58.000Z</time>
      </trkpt>
      <trkpt lat="48.70353" lon="1.74622">
        <ele>172.60000610352</ele>
        <time>2011-04-26T08:08:07.000Z</time>
      </trkpt>
      <trkpt lat="48.70366" lon="1.74617">
        <ele>173.60000610352</ele>
        <time>2011-04-26T08:08:17.000Z</time>
      </trkpt>
      <trkpt lat="48.70377" lon="1.7461">
        <ele>174.80000305176</ele>
        <time>2011-04-26T08:08:27.000Z</time>
      </trkpt>
      <trkpt lat="48.70387" lon="1.74606">
        <ele>175.60000610352</ele>
        <time>2011-04-26T08:08:35.000Z</time>
      </trkpt>
      <trkpt lat="48.70395" lon="1.74601">
        <ele>176.19999694824</ele>
        <time>2011-04-26T08:08:43.000Z</time>
      </trkpt>
      <trkpt lat="48.70402" lon="1.746">
        <ele>176.80000305176</ele>
        <time>2011-04-26T08:08:49.000Z</time>
      </trkpt>
      <trkpt lat="48.70408" lon="1.74597">
        <ele>177.19999694824</ele>
        <time>2011-04-26T08:08:55.000Z</time>
      </trkpt>
      <trkpt lat="48.70416" lon="1.74593">
        <ele>177.80000305176</ele>
        <time>2011-04-26T08:09:02.000Z</time>
      </trkpt>
      <trkpt lat="48.70424" lon="1.74588">
        <ele>178.19999694824</ele>
        <time>2011-04-26T08:09:10.000Z</time>
      </trkpt>
      <trkpt lat="48.70429" lon="1.74587">
        <ele>178.39999389648</ele>
        <time>2011-04-26T08:09:14.000Z</time>
      </trkpt>
      <trkpt lat="48.70439" lon="1.74583">
        <ele>179</ele>
        <time>2011-04-26T08:09:22.000Z</time>
      </trkpt>
      <trkpt lat="48.70448" lon="1.7458">
        <ele>179.39999389648</ele>
        <time>2011-04-26T08:09:30.000Z</time>
      </trkpt>
      <trkpt lat="48.70455" lon="1.74574">
        <ele>179.80000305176</ele>
        <time>2011-04-26T08:09:37.000Z</time>
      </trkpt>
      <trkpt lat="48.70463" lon="1.74565">
        <ele>180.19999694824</ele>
        <time>2011-04-26T08:09:45.000Z</time>
      </trkpt>
      <trkpt lat="48.70471" lon="1.74564">
        <ele>180.39999389648</ele>
        <time>2011-04-26T08:09:51.000Z</time>
      </trkpt>
      <trkpt lat="48.70476" lon="1.7456">
        <ele>180.80000305176</ele>
        <time>2011-04-26T08:09:56.000Z</time>
      </trkpt>
      <trkpt lat="48.70485" lon="1.74555">
        <ele>181.19999694824</ele>
        <time>2011-04-26T08:10:02.000Z</time>
      </trkpt>
      <trkpt lat="48.70486" lon="1.74555">
        <ele>181.19999694824</ele>
        <time>2011-04-26T08:10:03.000Z</time>
      </trkpt>
      <trkpt lat="48.70492" lon="1.74554">
        <ele>181.60000610352</ele>
        <time>2011-04-26T08:10:09.000Z</time>
      </trkpt>
      <trkpt lat="48.70499" lon="1.74546">
        <ele>181.80000305176</ele>
        <time>2011-04-26T08:10:18.000Z</time>
      </trkpt>
      <trkpt lat="48.70506" lon="1.74546">
        <ele>182</ele>
        <time>2011-04-26T08:10:24.000Z</time>
      </trkpt>
      <trkpt lat="48.70508" lon="1.74545">
        <ele>182.19999694824</ele>
        <time>2011-04-26T08:10:25.000Z</time>
      </trkpt>
      <trkpt lat="48.70519" lon="1.74544">
        <ele>182.39999389648</ele>
        <time>2011-04-26T08:10:33.000Z</time>
      </trkpt>
      <trkpt lat="48.70528" lon="1.74543">
        <ele>182.80000305176</ele>
        <time>2011-04-26T08:10:40.000Z</time>
      </trkpt>
      <trkpt lat="48.7053" lon="1.74543">
        <ele>182.80000305176</ele>
        <time>2011-04-26T08:10:42.000Z</time>
      </trkpt>
      <trkpt lat="48.70545" lon="1.74535">
        <ele>183.19999694824</ele>
        <time>2011-04-26T08:10:52.000Z</time>
      </trkpt>
      <trkpt lat="48.70548" lon="1.74532">
        <ele>183.39999389648</ele>
        <time>2011-04-26T08:10:56.000Z</time>
      </trkpt>
      <trkpt lat="48.70553" lon="1.74528">
        <ele>183.60000610352</ele>
        <time>2011-04-26T08:11:00.000Z</time>
      </trkpt>
      <trkpt lat="48.70556" lon="1.74527">
        <ele>183.80000305176</ele>
        <time>2011-04-26T08:11:04.000Z</time>
      </trkpt>
      <trkpt lat="48.7056" lon="1.7452">
        <ele>183.80000305176</ele>
        <time>2011-04-26T08:11:10.000Z</time>
      </trkpt>
      <trkpt lat="48.70563" lon="1.74517">
        <ele>184</ele>
        <time>2011-04-26T08:11:13.000Z</time>
      </trkpt>
      <trkpt lat="48.7057" lon="1.74516">
        <ele>184.19999694824</ele>
        <time>2011-04-26T08:11:19.000Z</time>
      </trkpt>
      <trkpt lat="48.70579" lon="1.74515">
        <ele>184.60000610352</ele>
        <time>2011-04-26T08:11:26.000Z</time>
      </trkpt>
      <trkpt lat="48.70587" lon="1.74511">
        <ele>184.60000610352</ele>
        <time>2011-04-26T08:11:33.000Z</time>
      </trkpt>
      <trkpt lat="48.70596" lon="1.74505">
        <ele>184.19999694824</ele>
        <time>2011-04-26T08:11:40.000Z</time>
      </trkpt>
      <trkpt lat="48.70604" lon="1.74501">
        <ele>183.60000610352</ele>
        <time>2011-04-26T08:11:47.000Z</time>
      </trkpt>
      <trkpt lat="48.70612" lon="1.74501">
        <ele>183.19999694824</ele>
        <time>2011-04-26T08:11:54.000Z</time>
      </trkpt>
      <trkpt lat="48.70618" lon="1.74499">
        <ele>182.80000305176</ele>
        <time>2011-04-26T08:12:00.000Z</time>
      </trkpt>
      <trkpt lat="48.70629" lon="1.74493">
        <ele>182.19999694824</ele>
        <time>2011-04-26T08:12:08.000Z</time>
      </trkpt>
      <trkpt lat="48.7063" lon="1.74492">
        <ele>182</ele>
        <time>2011-04-26T08:12:09.000Z</time>
      </trkpt>
      <trkpt lat="48.70641" lon="1.74486">
        <ele>181.60000610352</ele>
        <time>2011-04-26T08:12:17.000Z</time>
      </trkpt>
      <trkpt lat="48.70643" lon="1.74484">
        <ele>181.39999389648</ele>
        <time>2011-04-26T08:12:19.000Z</time>
      </trkpt>
      <trkpt lat="48.7065" lon="1.7448">
        <ele>181</ele>
        <time>2011-04-26T08:12:26.000Z</time>
      </trkpt>
      <trkpt lat="48.70658" lon="1.7448">
        <ele>180.60000610352</ele>
        <time>2011-04-26T08:12:31.000Z</time>
      </trkpt>
      <trkpt lat="48.70661" lon="1.74479">
        <ele>180.39999389648</ele>
        <time>2011-04-26T08:12:33.000Z</time>
      </trkpt>
      <trkpt lat="48.70667" lon="1.74475">
        <ele>180.19999694824</ele>
        <time>2011-04-26T08:12:38.000Z</time>
      </trkpt>
      <trkpt lat="48.70677" lon="1.74472">
        <ele>179.80000305176</ele>
        <time>2011-04-26T08:12:46.000Z</time>
      </trkpt>
      <trkpt lat="48.70679" lon="1.74469">
        <ele>179.80000305176</ele>
        <time>2011-04-26T08:12:49.000Z</time>
      </trkpt>
      <trkpt lat="48.70681" lon="1.74469">
        <ele>179.80000305176</ele>
        <time>2011-04-26T08:12:52.000Z</time>
      </trkpt>
      <trkpt lat="48.70685" lon="1.74468">
        <ele>179.60000610352</ele>
        <time>2011-04-26T08:12:55.000Z</time>
      </trkpt>
      <trkpt lat="48.70692" lon="1.74466">
        <ele>179.39999389648</ele>
        <time>2011-04-26T08:13:01.000Z</time>
      </trkpt>
      <trkpt lat="48.70698" lon="1.74464">
        <ele>179.19999694824</ele>
        <time>2011-04-26T08:13:06.000Z</time>
      </trkpt>
      <trkpt lat="48.70708" lon="1.74461">
        <ele>178.80000305176</ele>
        <time>2011-04-26T08:13:13.000Z</time>
      </trkpt>
      <trkpt lat="48.7072" lon="1.74462">
        <ele>178.39999389648</ele>
        <time>2011-04-26T08:13:21.000Z</time>
      </trkpt>
      <trkpt lat="48.70725" lon="1.74459">
        <ele>178.19999694824</ele>
        <time>2011-04-26T08:13:27.000Z</time>
      </trkpt>
      <trkpt lat="48.70732" lon="1.74458">
        <ele>178</ele>
        <time>2011-04-26T08:13:33.000Z</time>
      </trkpt>
      <trkpt lat="48.70736" lon="1.74451">
        <ele>178</ele>
        <time>2011-04-26T08:13:38.000Z</time>
      </trkpt>
      <trkpt lat="48.70741" lon="1.74449">
        <ele>177.80000305176</ele>
        <time>2011-04-26T08:13:42.000Z</time>
      </trkpt>
      <trkpt lat="48.70744" lon="1.74448">
        <ele>177.80000305176</ele>
        <time>2011-04-26T08:13:44.000Z</time>
      </trkpt>
      <trkpt lat="48.70754" lon="1.74442">
        <ele>177.60000610352</ele>
        <time>2011-04-26T08:13:52.000Z</time>
      </trkpt>
      <trkpt lat="48.70767" lon="1.74434">
        <ele>177.39999389648</ele>
        <time>2011-04-26T08:14:03.000Z</time>
      </trkpt>
      <trkpt lat="48.70778" lon="1.74426">
        <ele>177.19999694824</ele>
        <time>2011-04-26T08:14:13.000Z</time>
      </trkpt>
      <trkpt lat="48.70785" lon="1.74421">
        <ele>177</ele>
        <time>2011-04-26T08:14:19.000Z</time>
      </trkpt>
      <trkpt lat="48.70792" lon="1.74418">
        <ele>176.80000305176</ele>
        <time>2011-04-26T08:14:24.000Z</time>
      </trkpt>
      <trkpt lat="48.70796" lon="1.74415">
        <ele>176.80000305176</ele>
        <time>2011-04-26T08:14:29.000Z</time>
      </trkpt>
      <trkpt lat="48.708" lon="1.7441">
        <ele>176.80000305176</ele>
        <time>2011-04-26T08:14:35.000Z</time>
      </trkpt>
      <trkpt lat="48.70804" lon="1.74406">
        <ele>176.80000305176</ele>
        <time>2011-04-26T08:14:39.000Z</time>
      </trkpt>
      <trkpt lat="48.70814" lon="1.74399">
        <ele>176.60000610352</ele>
        <time>2011-04-26T08:14:49.000Z</time>
      </trkpt>
      <trkpt lat="48.70822" lon="1.74391">
        <ele>176.60000610352</ele>
        <time>2011-04-26T08:14:57.000Z</time>
      </trkpt>
      <trkpt lat="48.70831" lon="1.74381">
        <ele>176.39999389648</ele>
        <time>2011-04-26T08:15:06.000Z</time>
      </trkpt>
      <trkpt lat="48.70839" lon="1.74368">
        <ele>176.39999389648</ele>
        <time>2011-04-26T08:15:16.000Z</time>
      </trkpt>
      <trkpt lat="48.70843" lon="1.74361">
        <ele>176.39999389648</ele>
        <time>2011-04-26T08:15:21.000Z</time>
      </trkpt>
      <trkpt lat="48.70845" lon="1.7436">
        <ele>176.39999389648</ele>
        <time>2011-04-26T08:15:23.000Z</time>
      </trkpt>
      <trkpt lat="48.70853" lon="1.74355">
        <ele>176.39999389648</ele>
        <time>2011-04-26T08:15:30.000Z</time>
      </trkpt>
      <trkpt lat="48.70854" lon="1.74351">
        <ele>176.39999389648</ele>
        <time>2011-04-26T08:15:32.000Z</time>
      </trkpt>
      <trkpt lat="48.70862" lon="1.74336">
        <ele>176.60000610352</ele>
        <time>2011-04-26T08:15:42.000Z</time>
      </trkpt>
      <trkpt lat="48.70868" lon="1.74327">
        <ele>176.80000305176</ele>
        <time>2011-04-26T08:15:49.000Z</time>
      </trkpt>
      <trkpt lat="48.70871" lon="1.74323">
        <ele>177</ele>
        <time>2011-04-26T08:15:55.000Z</time>
      </trkpt>
      <trkpt lat="48.70875" lon="1.74307">
        <ele>177.60000610352</ele>
        <time>2011-04-26T08:16:19.000Z</time>
      </trkpt>
      <trkpt lat="48.70881" lon="1.74298">
        <ele>178</ele>
        <time>2011-04-26T08:16:25.000Z</time>
      </trkpt>
      <trkpt lat="48.70885" lon="1.74291">
        <ele>178.39999389648</ele>
        <time>2011-04-26T08:16:32.000Z</time>
      </trkpt>
      <trkpt lat="48.70888" lon="1.74285">
        <ele>178.80000305176</ele>
        <time>2011-04-26T08:16:37.000Z</time>
      </trkpt>
      <trkpt lat="48.70893" lon="1.74275">
        <ele>179.19999694824</ele>
        <time>2011-04-26T08:16:44.000Z</time>
      </trkpt>
      <trkpt lat="48.70899" lon="1.74263">
        <ele>180</ele>
        <time>2011-04-26T08:16:52.000Z</time>
      </trkpt>
      <trkpt lat="48.70903" lon="1.74257">
        <ele>180.39999389648</ele>
        <time>2011-04-26T08:16:57.000Z</time>
      </trkpt>
      <trkpt lat="48.70907" lon="1.74244">
        <ele>181</ele>
        <time>2011-04-26T08:17:04.000Z</time>
      </trkpt>
      <trkpt lat="48.7091" lon="1.74234">
        <ele>181.19999694824</ele>
        <time>2011-04-26T08:17:10.000Z</time>
      </trkpt>
      <trkpt lat="48.70914" lon="1.7422">
        <ele>181.60000610352</ele>
        <time>2011-04-26T08:17:17.000Z</time>
      </trkpt>
      <trkpt lat="48.70917" lon="1.7421">
        <ele>181.80000305176</ele>
        <time>2011-04-26T08:17:23.000Z</time>
      </trkpt>
      <trkpt lat="48.7092" lon="1.74199">
        <ele>182</ele>
        <time>2011-04-26T08:17:30.000Z</time>
      </trkpt>
      <trkpt lat="48.70921" lon="1.74191">
        <ele>182.19999694824</ele>
        <time>2011-04-26T08:17:34.000Z</time>
      </trkpt>
      <trkpt lat="48.70925" lon="1.74176">
        <ele>182.39999389648</ele>
        <time>2011-04-26T08:17:43.000Z</time>
      </trkpt>
      <trkpt lat="48.70927" lon="1.74166">
        <ele>182.60000610352</ele>
        <time>2011-04-26T08:17:49.000Z</time>
      </trkpt>
      <trkpt lat="48.70927" lon="1.74152">
        <ele>182.60000610352</ele>
        <time>2011-04-26T08:17:57.000Z</time>
      </trkpt>
      <trkpt lat="48.70928" lon="1.74148">
        <ele>182.60000610352</ele>
        <time>2011-04-26T08:18:00.000Z</time>
      </trkpt>
      <trkpt lat="48.70933" lon="1.74141">
        <ele>182.39999389648</ele>
        <time>2011-04-26T08:18:05.000Z</time>
      </trkpt>
      <trkpt lat="48.70934" lon="1.74131">
        <ele>182.39999389648</ele>
        <time>2011-04-26T08:18:11.000Z</time>
      </trkpt>
      <trkpt lat="48.70936" lon="1.74117">
        <ele>182.39999389648</ele>
        <time>2011-04-26T08:18:19.000Z</time>
      </trkpt>
      <trkpt lat="48.70937" lon="1.74115">
        <ele>182.39999389648</ele>
        <time>2011-04-26T08:18:20.000Z</time>
      </trkpt>
      <trkpt lat="48.70941" lon="1.74102">
        <ele>182.39999389648</ele>
        <time>2011-04-26T08:18:28.000Z</time>
      </trkpt>
      <trkpt lat="48.70943" lon="1.74089">
        <ele>182.60000610352</ele>
        <time>2011-04-26T08:18:35.000Z</time>
      </trkpt>
      <trkpt lat="48.70947" lon="1.74072">
        <ele>182.60000610352</ele>
        <time>2011-04-26T08:18:44.000Z</time>
      </trkpt>
      <trkpt lat="48.70951" lon="1.74063">
        <ele>182.39999389648</ele>
        <time>2011-04-26T08:18:50.000Z</time>
      </trkpt>
      <trkpt lat="48.70952" lon="1.74049">
        <ele>182.39999389648</ele>
        <time>2011-04-26T08:18:57.000Z</time>
      </trkpt>
      <trkpt lat="48.70957" lon="1.74032">
        <ele>182.39999389648</ele>
        <time>2011-04-26T08:19:07.000Z</time>
      </trkpt>
      <trkpt lat="48.70961" lon="1.7402">
        <ele>182.39999389648</ele>
        <time>2011-04-26T08:19:15.000Z</time>
      </trkpt>
      <trkpt lat="48.70964" lon="1.74006">
        <ele>182.39999389648</ele>
        <time>2011-04-26T08:19:23.000Z</time>
      </trkpt>
      <trkpt lat="48.70966" lon="1.73987">
        <ele>182.60000610352</ele>
        <time>2011-04-26T08:19:32.000Z</time>
      </trkpt>
      <trkpt lat="48.70971" lon="1.73968">
        <ele>183</ele>
        <time>2011-04-26T08:19:42.000Z</time>
      </trkpt>
      <trkpt lat="48.70973" lon="1.73952">
        <ele>183.39999389648</ele>
        <time>2011-04-26T08:19:50.000Z</time>
      </trkpt>
      <trkpt lat="48.70977" lon="1.73936">
        <ele>183.80000305176</ele>
        <time>2011-04-26T08:19:59.000Z</time>
      </trkpt>
      <trkpt lat="48.7098" lon="1.73919">
        <ele>184.39999389648</ele>
        <time>2011-04-26T08:20:08.000Z</time>
      </trkpt>
      <trkpt lat="48.70984" lon="1.739">
        <ele>184</ele>
        <time>2011-04-26T08:20:18.000Z</time>
      </trkpt>
      <trkpt lat="48.70985" lon="1.73892">
        <ele>183.80000305176</ele>
        <time>2011-04-26T08:20:23.000Z</time>
      </trkpt>
      <trkpt lat="48.70989" lon="1.73873">
        <ele>183.60000610352</ele>
        <time>2011-04-26T08:20:33.000Z</time>
      </trkpt>
      <trkpt lat="48.70994" lon="1.73858">
        <ele>183.39999389648</ele>
        <time>2011-04-26T08:20:42.000Z</time>
      </trkpt>
      <trkpt lat="48.70999" lon="1.73839">
        <ele>183</ele>
        <time>2011-04-26T08:20:52.000Z</time>
      </trkpt>
      <trkpt lat="48.71" lon="1.73828">
        <ele>182.80000305176</ele>
        <time>2011-04-26T08:20:57.000Z</time>
      </trkpt>
      <trkpt lat="48.71002" lon="1.73817">
        <ele>182.39999389648</ele>
        <time>2011-04-26T08:21:03.000Z</time>
      </trkpt>
      <trkpt lat="48.71006" lon="1.73809">
        <ele>182.39999389648</ele>
        <time>2011-04-26T08:21:08.000Z</time>
      </trkpt>
      <trkpt lat="48.71014" lon="1.73803">
        <ele>182.19999694824</ele>
        <time>2011-04-26T08:21:15.000Z</time>
      </trkpt>
      <trkpt lat="48.71021" lon="1.73796">
        <ele>182</ele>
        <time>2011-04-26T08:21:22.000Z</time>
      </trkpt>
      <trkpt lat="48.71028" lon="1.73793">
        <ele>182</ele>
        <time>2011-04-26T08:21:28.000Z</time>
      </trkpt>
      <trkpt lat="48.71033" lon="1.73786">
        <ele>182</ele>
        <time>2011-04-26T08:21:34.000Z</time>
      </trkpt>
      <trkpt lat="48.71039" lon="1.73777">
        <ele>182</ele>
        <time>2011-04-26T08:21:41.000Z</time>
      </trkpt>
      <trkpt lat="48.7104" lon="1.73776">
        <ele>182</ele>
        <time>2011-04-26T08:21:42.000Z</time>
      </trkpt>
      <trkpt lat="48.71051" lon="1.73761">
        <ele>182.19999694824</ele>
        <time>2011-04-26T08:21:53.000Z</time>
      </trkpt>
      <trkpt lat="48.71056" lon="1.73755">
        <ele>182.19999694824</ele>
        <time>2011-04-26T08:21:59.000Z</time>
      </trkpt>
      <trkpt lat="48.71064" lon="1.73748">
        <ele>182.39999389648</ele>
        <time>2011-04-26T08:22:06.000Z</time>
      </trkpt>
      <trkpt lat="48.71073" lon="1.7374">
        <ele>182.19999694824</ele>
        <time>2011-04-26T08:22:15.000Z</time>
      </trkpt>
      <trkpt lat="48.71081" lon="1.73733">
        <ele>182</ele>
        <time>2011-04-26T08:22:23.000Z</time>
      </trkpt>
      <trkpt lat="48.71088" lon="1.73724">
        <ele>181.80000305176</ele>
        <time>2011-04-26T08:22:30.000Z</time>
      </trkpt>
      <trkpt lat="48.71096" lon="1.73714">
        <ele>181.60000610352</ele>
        <time>2011-04-26T08:22:38.000Z</time>
      </trkpt>
      <trkpt lat="48.71105" lon="1.73706">
        <ele>181.39999389648</ele>
        <time>2011-04-26T08:22:46.000Z</time>
      </trkpt>
      <trkpt lat="48.71113" lon="1.73697">
        <ele>181.39999389648</ele>
        <time>2011-04-26T08:22:54.000Z</time>
      </trkpt>
      <trkpt lat="48.7112" lon="1.73692">
        <ele>181.39999389648</ele>
        <time>2011-04-26T08:23:00.000Z</time>
      </trkpt>
      <trkpt lat="48.71128" lon="1.73683">
        <ele>181.39999389648</ele>
        <time>2011-04-26T08:23:08.000Z</time>
      </trkpt>
      <trkpt lat="48.71134" lon="1.73677">
        <ele>181.60000610352</ele>
        <time>2011-04-26T08:23:14.000Z</time>
      </trkpt>
      <trkpt lat="48.71143" lon="1.73668">
        <ele>181.80000305176</ele>
        <time>2011-04-26T08:23:22.000Z</time>
      </trkpt>
      <trkpt lat="48.71151" lon="1.73661">
        <ele>182</ele>
        <time>2011-04-26T08:23:29.000Z</time>
      </trkpt>
      <trkpt lat="48.71155" lon="1.73656">
        <ele>182</ele>
        <time>2011-04-26T08:23:33.000Z</time>
      </trkpt>
      <trkpt lat="48.71159" lon="1.73648">
        <ele>182</ele>
        <time>2011-04-26T08:23:38.000Z</time>
      </trkpt>
      <trkpt lat="48.71169" lon="1.73639">
        <ele>182</ele>
        <time>2011-04-26T08:23:47.000Z</time>
      </trkpt>
      <trkpt lat="48.71177" lon="1.73631">
        <ele>181.80000305176</ele>
        <time>2011-04-26T08:23:55.000Z</time>
      </trkpt>
      <trkpt lat="48.71187" lon="1.7362">
        <ele>181.80000305176</ele>
        <time>2011-04-26T08:24:04.000Z</time>
      </trkpt>
      <trkpt lat="48.71194" lon="1.73608">
        <ele>182</ele>
        <time>2011-04-26T08:24:12.000Z</time>
      </trkpt>
      <trkpt lat="48.71201" lon="1.73601">
        <ele>182.19999694824</ele>
        <time>2011-04-26T08:24:20.000Z</time>
      </trkpt>
      <trkpt lat="48.71204" lon="1.73602">
        <ele>182.39999389648</ele>
        <time>2011-04-26T08:24:25.000Z</time>
      </trkpt>
      <trkpt lat="48.71211" lon="1.73608">
        <ele>182.60000610352</ele>
        <time>2011-04-26T08:24:32.000Z</time>
      </trkpt>
      <trkpt lat="48.71212" lon="1.73608">
        <ele>182.80000305176</ele>
        <time>2011-04-26T08:24:33.000Z</time>
      </trkpt>
      <trkpt lat="48.71221" lon="1.73608">
        <ele>183</ele>
        <time>2011-04-26T08:24:41.000Z</time>
      </trkpt>
      <trkpt lat="48.71226" lon="1.73611">
        <ele>183.19999694824</ele>
        <time>2011-04-26T08:24:46.000Z</time>
      </trkpt>
      <trkpt lat="48.7123" lon="1.73614">
        <ele>183.39999389648</ele>
        <time>2011-04-26T08:24:49.000Z</time>
      </trkpt>
      <trkpt lat="48.71238" lon="1.73615">
        <ele>183.60000610352</ele>
        <time>2011-04-26T08:24:56.000Z</time>
      </trkpt>
      <trkpt lat="48.71247" lon="1.73615">
        <ele>184</ele>
        <time>2011-04-26T08:25:03.000Z</time>
      </trkpt>
      <trkpt lat="48.71255" lon="1.73613">
        <ele>183.39999389648</ele>
        <time>2011-04-26T08:25:10.000Z</time>
      </trkpt>
      <trkpt lat="48.71261" lon="1.7361">
        <ele>182.39999389648</ele>
        <time>2011-04-26T08:25:16.000Z</time>
      </trkpt>
      <trkpt lat="48.71263" lon="1.73608">
        <ele>182.19999694824</ele>
        <time>2011-04-26T08:25:22.000Z</time>
      </trkpt>
      <trkpt lat="48.71268" lon="1.73605">
        <ele>181.19999694824</ele>
        <time>2011-04-26T08:25:29.000Z</time>
      </trkpt>
      <trkpt lat="48.71269" lon="1.73604">
        <ele>181.19999694824</ele>
        <time>2011-04-26T08:25:30.000Z</time>
      </trkpt>
      <trkpt lat="48.71271" lon="1.73602">
        <ele>181</ele>
        <time>2011-04-26T08:25:33.000Z</time>
      </trkpt>
      <trkpt lat="48.71277" lon="1.73599">
        <ele>180</ele>
        <time>2011-04-26T08:25:41.000Z</time>
      </trkpt>
      <trkpt lat="48.71281" lon="1.73594">
        <ele>179.19999694824</ele>
        <time>2011-04-26T08:25:46.000Z</time>
      </trkpt>
      <trkpt lat="48.71284" lon="1.7359">
        <ele>179</ele>
        <time>2011-04-26T08:25:50.000Z</time>
      </trkpt>
      <trkpt lat="48.71289" lon="1.73583">
        <ele>178.39999389648</ele>
        <time>2011-04-26T08:25:56.000Z</time>
      </trkpt>
      <trkpt lat="48.71291" lon="1.73582">
        <ele>178</ele>
        <time>2011-04-26T08:26:00.000Z</time>
      </trkpt>
      <trkpt lat="48.71295" lon="1.73576">
        <ele>177.60000610352</ele>
        <time>2011-04-26T08:26:08.000Z</time>
      </trkpt>
      <trkpt lat="48.71298" lon="1.73569">
        <ele>177.19999694824</ele>
        <time>2011-04-26T08:26:11.000Z</time>
      </trkpt>
      <trkpt lat="48.71301" lon="1.73564">
        <ele>177</ele>
        <time>2011-04-26T08:26:14.000Z</time>
      </trkpt>
      <trkpt lat="48.71302" lon="1.73554">
        <ele>177</ele>
        <time>2011-04-26T08:26:21.000Z</time>
      </trkpt>
      <trkpt lat="48.7131" lon="1.7354">
        <ele>176.60000610352</ele>
        <time>2011-04-26T08:26:30.000Z</time>
      </trkpt>
      <trkpt lat="48.71316" lon="1.73534">
        <ele>176.19999694824</ele>
        <time>2011-04-26T08:26:36.000Z</time>
      </trkpt>
      <trkpt lat="48.71318" lon="1.73531">
        <ele>176.19999694824</ele>
        <time>2011-04-26T08:26:39.000Z</time>
      </trkpt>
      <trkpt lat="48.71321" lon="1.73526">
        <ele>176.19999694824</ele>
        <time>2011-04-26T08:26:43.000Z</time>
      </trkpt>
      <trkpt lat="48.7133" lon="1.73522">
        <ele>175.60000610352</ele>
        <time>2011-04-26T08:26:49.000Z</time>
      </trkpt>
      <trkpt lat="48.71331" lon="1.73522">
        <ele>175.60000610352</ele>
        <time>2011-04-26T08:26:50.000Z</time>
      </trkpt>
      <trkpt lat="48.7134" lon="1.73525">
        <ele>174.39999389648</ele>
        <time>2011-04-26T08:26:57.000Z</time>
      </trkpt>
      <trkpt lat="48.71348" lon="1.73535">
        <ele>172.60000610352</ele>
        <time>2011-04-26T08:27:06.000Z</time>
      </trkpt>
      <trkpt lat="48.7135" lon="1.73538">
        <ele>172.19999694824</ele>
        <time>2011-04-26T08:27:09.000Z</time>
      </trkpt>
      <trkpt lat="48.71356" lon="1.73544">
        <ele>171</ele>
        <time>2011-04-26T08:27:15.000Z</time>
      </trkpt>
      <trkpt lat="48.71362" lon="1.73553">
        <ele>169.80000305176</ele>
        <time>2011-04-26T08:27:22.000Z</time>
      </trkpt>
      <trkpt lat="48.71366" lon="1.73556">
        <ele>169</ele>
        <time>2011-04-26T08:27:26.000Z</time>
      </trkpt>
      <trkpt lat="48.71376" lon="1.73565">
        <ele>167.39999389648</ele>
        <time>2011-04-26T08:27:33.000Z</time>
      </trkpt>
      <trkpt lat="48.71377" lon="1.73567">
        <ele>167.19999694824</ele>
        <time>2011-04-26T08:27:34.000Z</time>
      </trkpt>
      <trkpt lat="48.71386" lon="1.73573">
        <ele>165.80000305176</ele>
        <time>2011-04-26T08:27:42.000Z</time>
      </trkpt>
      <trkpt lat="48.71394" lon="1.73576">
        <ele>164.60000610352</ele>
        <time>2011-04-26T08:27:49.000Z</time>
      </trkpt>
      <trkpt lat="48.71401" lon="1.73575">
        <ele>164</ele>
        <time>2011-04-26T08:27:55.000Z</time>
      </trkpt>
      <trkpt lat="48.7141" lon="1.7357">
        <ele>163.19999694824</ele>
        <time>2011-04-26T08:28:03.000Z</time>
      </trkpt>
      <trkpt lat="48.71422" lon="1.7357">
        <ele>162</ele>
        <time>2011-04-26T08:28:12.000Z</time>
      </trkpt>
      <trkpt lat="48.71431" lon="1.73569">
        <ele>161.19999694824</ele>
        <time>2011-04-26T08:28:19.000Z</time>
      </trkpt>
      <trkpt lat="48.71436" lon="1.73568">
        <ele>160.60000610352</ele>
        <time>2011-04-26T08:28:24.000Z</time>
      </trkpt>
      <trkpt lat="48.71446" lon="1.73565">
        <ele>159.80000305176</ele>
        <time>2011-04-26T08:28:32.000Z</time>
      </trkpt>
      <trkpt lat="48.71453" lon="1.73562">
        <ele>159</ele>
        <time>2011-04-26T08:28:39.000Z</time>
      </trkpt>
      <trkpt lat="48.71461" lon="1.73561">
        <ele>158.19999694824</ele>
        <time>2011-04-26T08:28:46.000Z</time>
      </trkpt>
      <trkpt lat="48.71462" lon="1.7356">
        <ele>158.19999694824</ele>
        <time>2011-04-26T08:28:47.000Z</time>
      </trkpt>
      <trkpt lat="48.71471" lon="1.73555">
        <ele>157.19999694824</ele>
        <time>2011-04-26T08:28:54.000Z</time>
      </trkpt>
      <trkpt lat="48.71481" lon="1.73552">
        <ele>156</ele>
        <time>2011-04-26T08:29:02.000Z</time>
      </trkpt>
      <trkpt lat="48.71491" lon="1.7355">
        <ele>154.80000305176</ele>
        <time>2011-04-26T08:29:09.000Z</time>
      </trkpt>
      <trkpt lat="48.71501" lon="1.7355">
        <ele>153.60000610352</ele>
        <time>2011-04-26T08:29:18.000Z</time>
      </trkpt>
      <trkpt lat="48.71507" lon="1.73548">
        <ele>152.80000305176</ele>
        <time>2011-04-26T08:29:23.000Z</time>
      </trkpt>
      <trkpt lat="48.71514" lon="1.73544">
        <ele>152</ele>
        <time>2011-04-26T08:29:28.000Z</time>
      </trkpt>
      <trkpt lat="48.71529" lon="1.73544">
        <ele>150.19999694824</ele>
        <time>2011-04-26T08:29:40.000Z</time>
      </trkpt>
      <trkpt lat="48.71538" lon="1.73543">
        <ele>149.19999694824</ele>
        <time>2011-04-26T08:29:48.000Z</time>
      </trkpt>
      <trkpt lat="48.71544" lon="1.73543">
        <ele>148.60000610352</ele>
        <time>2011-04-26T08:29:54.000Z</time>
      </trkpt>
      <trkpt lat="48.71554" lon="1.73541">
        <ele>147.60000610352</ele>
        <time>2011-04-26T08:30:01.000Z</time>
      </trkpt>
      <trkpt lat="48.7156" lon="1.73539">
        <ele>146.80000305176</ele>
        <time>2011-04-26T08:30:07.000Z</time>
      </trkpt>
      <trkpt lat="48.7157" lon="1.73536">
        <ele>145.80000305176</ele>
        <time>2011-04-26T08:30:14.000Z</time>
      </trkpt>
      <trkpt lat="48.71583" lon="1.73534">
        <ele>144.39999389648</ele>
        <time>2011-04-26T08:30:24.000Z</time>
      </trkpt>
      <trkpt lat="48.71594" lon="1.73531">
        <ele>143.60000610352</ele>
        <time>2011-04-26T08:30:33.000Z</time>
      </trkpt>
      <trkpt lat="48.71604" lon="1.73529">
        <ele>143.19999694824</ele>
        <time>2011-04-26T08:30:41.000Z</time>
      </trkpt>
      <trkpt lat="48.71613" lon="1.73528">
        <ele>142.60000610352</ele>
        <time>2011-04-26T08:30:49.000Z</time>
      </trkpt>
      <trkpt lat="48.71622" lon="1.73525">
        <ele>142.19999694824</ele>
        <time>2011-04-26T08:30:56.000Z</time>
      </trkpt>
      <trkpt lat="48.71626" lon="1.73523">
        <ele>142</ele>
        <time>2011-04-26T08:31:00.000Z</time>
      </trkpt>
      <trkpt lat="48.71634" lon="1.7352">
        <ele>141.60000610352</ele>
        <time>2011-04-26T08:31:06.000Z</time>
      </trkpt>
      <trkpt lat="48.7164" lon="1.73518">
        <ele>141.19999694824</ele>
        <time>2011-04-26T08:31:11.000Z</time>
      </trkpt>
      <trkpt lat="48.71641" lon="1.73518">
        <ele>141.19999694824</ele>
        <time>2011-04-26T08:31:14.000Z</time>
      </trkpt>
      <trkpt lat="48.71647" lon="1.73517">
        <ele>141</ele>
        <time>2011-04-26T08:31:21.000Z</time>
      </trkpt>
      <trkpt lat="48.7166" lon="1.73513">
        <ele>140.19999694824</ele>
        <time>2011-04-26T08:31:26.000Z</time>
      </trkpt>
      <trkpt lat="48.71668" lon="1.7351">
        <ele>139.80000305176</ele>
        <time>2011-04-26T08:31:31.000Z</time>
      </trkpt>
      <trkpt lat="48.71678" lon="1.73507">
        <ele>139.60000610352</ele>
        <time>2011-04-26T08:31:38.000Z</time>
      </trkpt>
      <trkpt lat="48.71685" lon="1.73505">
        <ele>139.19999694824</ele>
        <time>2011-04-26T08:31:45.000Z</time>
      </trkpt>
      <trkpt lat="48.71693" lon="1.73504">
        <ele>139</ele>
        <time>2011-04-26T08:31:51.000Z</time>
      </trkpt>
      <trkpt lat="48.71706" lon="1.73504">
        <ele>138.60000610352</ele>
        <time>2011-04-26T08:32:01.000Z</time>
      </trkpt>
      <trkpt lat="48.71713" lon="1.73501">
        <ele>138.19999694824</ele>
        <time>2011-04-26T08:32:07.000Z</time>
      </trkpt>
      <trkpt lat="48.71724" lon="1.73499">
        <ele>137.80000305176</ele>
        <time>2011-04-26T08:32:15.000Z</time>
      </trkpt>
      <trkpt lat="48.71737" lon="1.73495">
        <ele>137.39999389648</ele>
        <time>2011-04-26T08:32:25.000Z</time>
      </trkpt>
      <trkpt lat="48.71748" lon="1.73491">
        <ele>137</ele>
        <time>2011-04-26T08:32:33.000Z</time>
      </trkpt>
      <trkpt lat="48.71759" lon="1.73489">
        <ele>136.60000610352</ele>
        <time>2011-04-26T08:32:41.000Z</time>
      </trkpt>
      <trkpt lat="48.71767" lon="1.73489">
        <ele>136.19999694824</ele>
        <time>2011-04-26T08:32:48.000Z</time>
      </trkpt>
      <trkpt lat="48.71776" lon="1.73488">
        <ele>135.80000305176</ele>
        <time>2011-04-26T08:32:55.000Z</time>
      </trkpt>
      <trkpt lat="48.71786" lon="1.73485">
        <ele>135.39999389648</ele>
        <time>2011-04-26T08:33:03.000Z</time>
      </trkpt>
      <trkpt lat="48.71797" lon="1.73482">
        <ele>135</ele>
        <time>2011-04-26T08:33:11.000Z</time>
      </trkpt>
      <trkpt lat="48.71804" lon="1.73479">
        <ele>134.60000610352</ele>
        <time>2011-04-26T08:33:16.000Z</time>
      </trkpt>
      <trkpt lat="48.71811" lon="1.73477">
        <ele>134.39999389648</ele>
        <time>2011-04-26T08:33:22.000Z</time>
      </trkpt>
      <trkpt lat="48.71812" lon="1.73477">
        <ele>134.19999694824</ele>
        <time>2011-04-26T08:33:23.000Z</time>
      </trkpt>
      <trkpt lat="48.71823" lon="1.73472">
        <ele>133.60000610352</ele>
        <time>2011-04-26T08:33:31.000Z</time>
      </trkpt>
      <trkpt lat="48.71829" lon="1.73472">
        <ele>133.39999389648</ele>
        <time>2011-04-26T08:33:35.000Z</time>
      </trkpt>
      <trkpt lat="48.71832" lon="1.73469">
        <ele>133.19999694824</ele>
        <time>2011-04-26T08:33:38.000Z</time>
      </trkpt>
      <trkpt lat="48.71839" lon="1.73468">
        <ele>133</ele>
        <time>2011-04-26T08:33:43.000Z</time>
      </trkpt>
      <trkpt lat="48.71848" lon="1.73468">
        <ele>132.80000305176</ele>
        <time>2011-04-26T08:33:50.000Z</time>
      </trkpt>
      <trkpt lat="48.71857" lon="1.73462">
        <ele>132.39999389648</ele>
        <time>2011-04-26T08:33:57.000Z</time>
      </trkpt>
      <trkpt lat="48.71868" lon="1.73463">
        <ele>132.19999694824</ele>
        <time>2011-04-26T08:34:05.000Z</time>
      </trkpt>
      <trkpt lat="48.71879" lon="1.73461">
        <ele>131.80000305176</ele>
        <time>2011-04-26T08:34:13.000Z</time>
      </trkpt>
      <trkpt lat="48.71888" lon="1.7346">
        <ele>131.60000610352</ele>
        <time>2011-04-26T08:34:20.000Z</time>
      </trkpt>
      <trkpt lat="48.71899" lon="1.73458">
        <ele>131.39999389648</ele>
        <time>2011-04-26T08:34:28.000Z</time>
      </trkpt>
      <trkpt lat="48.71905" lon="1.73455">
        <ele>131.19999694824</ele>
        <time>2011-04-26T08:34:33.000Z</time>
      </trkpt>
      <trkpt lat="48.71914" lon="1.73453">
        <ele>130.80000305176</ele>
        <time>2011-04-26T08:34:40.000Z</time>
      </trkpt>
      <trkpt lat="48.71926" lon="1.7345">
        <ele>130.60000610352</ele>
        <time>2011-04-26T08:34:49.000Z</time>
      </trkpt>
      <trkpt lat="48.71935" lon="1.73448">
        <ele>130.60000610352</ele>
        <time>2011-04-26T08:34:56.000Z</time>
      </trkpt>
      <trkpt lat="48.71936" lon="1.73447">
        <ele>130.60000610352</ele>
        <time>2011-04-26T08:34:57.000Z</time>
      </trkpt>
      <trkpt lat="48.71941" lon="1.73449">
        <ele>130.60000610352</ele>
        <time>2011-04-26T08:35:01.000Z</time>
      </trkpt>
      <trkpt lat="48.71947" lon="1.73447">
        <ele>130.60000610352</ele>
        <time>2011-04-26T08:35:07.000Z</time>
      </trkpt>
      <trkpt lat="48.71953" lon="1.73447">
        <ele>130.60000610352</ele>
        <time>2011-04-26T08:35:12.000Z</time>
      </trkpt>
      <trkpt lat="48.71961" lon="1.73445">
        <ele>130.60000610352</ele>
        <time>2011-04-26T08:35:18.000Z</time>
      </trkpt>
      <trkpt lat="48.71964" lon="1.73444">
        <ele>130.60000610352</ele>
        <time>2011-04-26T08:35:21.000Z</time>
      </trkpt>
      <trkpt lat="48.7197" lon="1.73441">
        <ele>130.39999389648</ele>
        <time>2011-04-26T08:35:26.000Z</time>
      </trkpt>
      <trkpt lat="48.71979" lon="1.73437">
        <ele>130.39999389648</ele>
        <time>2011-04-26T08:35:33.000Z</time>
      </trkpt>
      <trkpt lat="48.71986" lon="1.73433">
        <ele>130.19999694824</ele>
        <time>2011-04-26T08:35:37.000Z</time>
      </trkpt>
      <trkpt lat="48.72003" lon="1.73429">
        <ele>130.19999694824</ele>
        <time>2011-04-26T08:35:48.000Z</time>
      </trkpt>
      <trkpt lat="48.72005" lon="1.73429">
        <ele>130.19999694824</ele>
        <time>2011-04-26T08:35:49.000Z</time>
      </trkpt>
      <trkpt lat="48.72015" lon="1.73425">
        <ele>130</ele>
        <time>2011-04-26T08:35:57.000Z</time>
      </trkpt>
      <trkpt lat="48.72025" lon="1.73423">
        <ele>130</ele>
        <time>2011-04-26T08:36:04.000Z</time>
      </trkpt>
      <trkpt lat="48.72035" lon="1.73419">
        <ele>130</ele>
        <time>2011-04-26T08:36:12.000Z</time>
      </trkpt>
      <trkpt lat="48.72038" lon="1.7342">
        <ele>130</ele>
        <time>2011-04-26T08:36:15.000Z</time>
      </trkpt>
      <trkpt lat="48.72044" lon="1.73418">
        <ele>130</ele>
        <time>2011-04-26T08:36:20.000Z</time>
      </trkpt>
      <trkpt lat="48.72058" lon="1.73415">
        <ele>129.80000305176</ele>
        <time>2011-04-26T08:36:29.000Z</time>
      </trkpt>
      <trkpt lat="48.72068" lon="1.73414">
        <ele>129.80000305176</ele>
        <time>2011-04-26T08:36:36.000Z</time>
      </trkpt>
      <trkpt lat="48.72076" lon="1.73412">
        <ele>129.80000305176</ele>
        <time>2011-04-26T08:36:42.000Z</time>
      </trkpt>
      <trkpt lat="48.7208" lon="1.73409">
        <ele>129.80000305176</ele>
        <time>2011-04-26T08:36:45.000Z</time>
      </trkpt>
      <trkpt lat="48.72088" lon="1.73406">
        <ele>129.39999389648</ele>
        <time>2011-04-26T08:36:51.000Z</time>
      </trkpt>
      <trkpt lat="48.72092" lon="1.73408">
        <ele>129.39999389648</ele>
        <time>2011-04-26T08:36:55.000Z</time>
      </trkpt>
      <trkpt lat="48.72103" lon="1.73403">
        <ele>128.80000305176</ele>
        <time>2011-04-26T08:37:03.000Z</time>
      </trkpt>
      <trkpt lat="48.72112" lon="1.73396">
        <ele>128.39999389648</ele>
        <time>2011-04-26T08:37:10.000Z</time>
      </trkpt>
      <trkpt lat="48.72121" lon="1.73397">
        <ele>128</ele>
        <time>2011-04-26T08:37:16.000Z</time>
      </trkpt>
      <trkpt lat="48.72129" lon="1.734">
        <ele>127.80000305176</ele>
        <time>2011-04-26T08:37:22.000Z</time>
      </trkpt>
      <trkpt lat="48.72137" lon="1.73397">
        <ele>127.40000152588</ele>
        <time>2011-04-26T08:37:28.000Z</time>
      </trkpt>
      <trkpt lat="48.72139" lon="1.73397">
        <ele>127.40000152588</ele>
        <time>2011-04-26T08:37:29.000Z</time>
      </trkpt>
      <trkpt lat="48.72143" lon="1.73399">
        <ele>127.40000152588</ele>
        <time>2011-04-26T08:37:33.000Z</time>
      </trkpt>
      <trkpt lat="48.72146" lon="1.73399">
        <ele>127.19999694824</ele>
        <time>2011-04-26T08:37:35.000Z</time>
      </trkpt>
      <trkpt lat="48.72157" lon="1.73396">
        <ele>126.80000305176</ele>
        <time>2011-04-26T08:37:43.000Z</time>
      </trkpt>
      <trkpt lat="48.72164" lon="1.73395">
        <ele>126.40000152588</ele>
        <time>2011-04-26T08:37:48.000Z</time>
      </trkpt>
      <trkpt lat="48.72168" lon="1.73395">
        <ele>126.40000152588</ele>
        <time>2011-04-26T08:37:52.000Z</time>
      </trkpt>
      <trkpt lat="48.72171" lon="1.73394">
        <ele>126.40000152588</ele>
        <time>2011-04-26T08:37:55.000Z</time>
      </trkpt>
      <trkpt lat="48.72179" lon="1.73392">
        <ele>126.59999847412</ele>
        <time>2011-04-26T08:38:01.000Z</time>
      </trkpt>
      <trkpt lat="48.72189" lon="1.73388">
        <ele>126.59999847412</ele>
        <time>2011-04-26T08:38:09.000Z</time>
      </trkpt>
      <trkpt lat="48.72195" lon="1.73385">
        <ele>126.80000305176</ele>
        <time>2011-04-26T08:38:14.000Z</time>
      </trkpt>
      <trkpt lat="48.72203" lon="1.73387">
        <ele>127</ele>
        <time>2011-04-26T08:38:21.000Z</time>
      </trkpt>
      <trkpt lat="48.72211" lon="1.73387">
        <ele>127</ele>
        <time>2011-04-26T08:38:27.000Z</time>
      </trkpt>
      <trkpt lat="48.72219" lon="1.73387">
        <ele>127.19999694824</ele>
        <time>2011-04-26T08:38:33.000Z</time>
      </trkpt>
      <trkpt lat="48.72227" lon="1.73386">
        <ele>127.40000152588</ele>
        <time>2011-04-26T08:38:39.000Z</time>
      </trkpt>
      <trkpt lat="48.72235" lon="1.73383">
        <ele>127.59999847412</ele>
        <time>2011-04-26T08:38:46.000Z</time>
      </trkpt>
      <trkpt lat="48.72242" lon="1.73384">
        <ele>127.80000305176</ele>
        <time>2011-04-26T08:38:52.000Z</time>
      </trkpt>
      <trkpt lat="48.72245" lon="1.73385">
        <ele>127.80000305176</ele>
        <time>2011-04-26T08:38:55.000Z</time>
      </trkpt>
      <trkpt lat="48.72255" lon="1.73388">
        <ele>127.80000305176</ele>
        <time>2011-04-26T08:39:03.000Z</time>
      </trkpt>
      <trkpt lat="48.72256" lon="1.73388">
        <ele>127.80000305176</ele>
        <time>2011-04-26T08:39:04.000Z</time>
      </trkpt>
      <trkpt lat="48.72258" lon="1.7339">
        <ele>127.80000305176</ele>
        <time>2011-04-26T08:39:06.000Z</time>
      </trkpt>
      <trkpt lat="48.72264" lon="1.73391">
        <ele>127.80000305176</ele>
        <time>2011-04-26T08:39:10.000Z</time>
      </trkpt>
      <trkpt lat="48.72271" lon="1.73394">
        <ele>127.80000305176</ele>
        <time>2011-04-26T08:39:17.000Z</time>
      </trkpt>
      <trkpt lat="48.72278" lon="1.73393">
        <ele>127.80000305176</ele>
        <time>2011-04-26T08:39:22.000Z</time>
      </trkpt>
      <trkpt lat="48.72282" lon="1.73391">
        <ele>127.80000305176</ele>
        <time>2011-04-26T08:39:26.000Z</time>
      </trkpt>
      <trkpt lat="48.72285" lon="1.73391">
        <ele>127.80000305176</ele>
        <time>2011-04-26T08:39:28.000Z</time>
      </trkpt>
      <trkpt lat="48.72296" lon="1.73396">
        <ele>127.80000305176</ele>
        <time>2011-04-26T08:39:36.000Z</time>
      </trkpt>
      <trkpt lat="48.72303" lon="1.734">
        <ele>127.80000305176</ele>
        <time>2011-04-26T08:39:41.000Z</time>
      </trkpt>
      <trkpt lat="48.72311" lon="1.73397">
        <ele>127.80000305176</ele>
        <time>2011-04-26T08:39:48.000Z</time>
      </trkpt>
      <trkpt lat="48.72316" lon="1.73404">
        <ele>127.80000305176</ele>
        <time>2011-04-26T08:39:54.000Z</time>
      </trkpt>
      <trkpt lat="48.72323" lon="1.73406">
        <ele>127.80000305176</ele>
        <time>2011-04-26T08:39:59.000Z</time>
      </trkpt>
      <trkpt lat="48.72325" lon="1.73405">
        <ele>127.80000305176</ele>
        <time>2011-04-26T08:40:01.000Z</time>
      </trkpt>
      <trkpt lat="48.72328" lon="1.73404">
        <ele>127.80000305176</ele>
        <time>2011-04-26T08:40:03.000Z</time>
      </trkpt>
      <trkpt lat="48.72336" lon="1.73405">
        <ele>127.80000305176</ele>
        <time>2011-04-26T08:40:10.000Z</time>
      </trkpt>
      <trkpt lat="48.72344" lon="1.73408">
        <ele>127.59999847412</ele>
        <time>2011-04-26T08:40:18.000Z</time>
      </trkpt>
      <trkpt lat="48.72349" lon="1.73408">
        <ele>127.40000152588</ele>
        <time>2011-04-26T08:40:23.000Z</time>
      </trkpt>
      <trkpt lat="48.72358" lon="1.73411">
        <ele>127.19999694824</ele>
        <time>2011-04-26T08:40:30.000Z</time>
      </trkpt>
      <trkpt lat="48.72364" lon="1.73413">
        <ele>127.19999694824</ele>
        <time>2011-04-26T08:40:35.000Z</time>
      </trkpt>
      <trkpt lat="48.72367" lon="1.73415">
        <ele>127</ele>
        <time>2011-04-26T08:40:37.000Z</time>
      </trkpt>
      <trkpt lat="48.72374" lon="1.73419">
        <ele>127</ele>
        <time>2011-04-26T08:40:42.000Z</time>
      </trkpt>
      <trkpt lat="48.72381" lon="1.73419">
        <ele>126.80000305176</ele>
        <time>2011-04-26T08:40:47.000Z</time>
      </trkpt>
      <trkpt lat="48.72393" lon="1.73421">
        <ele>126.40000152588</ele>
        <time>2011-04-26T08:40:56.000Z</time>
      </trkpt>
      <trkpt lat="48.724" lon="1.73423">
        <ele>126.40000152588</ele>
        <time>2011-04-26T08:41:01.000Z</time>
      </trkpt>
      <trkpt lat="48.72411" lon="1.73425">
        <ele>126</ele>
        <time>2011-04-26T08:41:09.000Z</time>
      </trkpt>
      <trkpt lat="48.72422" lon="1.73428">
        <ele>126.19999694824</ele>
        <time>2011-04-26T08:41:18.000Z</time>
      </trkpt>
      <trkpt lat="48.7243" lon="1.7343">
        <ele>126.40000152588</ele>
        <time>2011-04-26T08:41:24.000Z</time>
      </trkpt>
      <trkpt lat="48.72443" lon="1.73433">
        <ele>126.80000305176</ele>
        <time>2011-04-26T08:41:33.000Z</time>
      </trkpt>
      <trkpt lat="48.72451" lon="1.73434">
        <ele>127.19999694824</ele>
        <time>2011-04-26T08:41:41.000Z</time>
      </trkpt>
      <trkpt lat="48.72451" lon="1.73434">
        <ele>127.19999694824</ele>
        <time>2011-04-26T08:41:42.000Z</time>
      </trkpt>
      <trkpt lat="48.72461" lon="1.73437">
        <ele>127.59999847412</ele>
        <time>2011-04-26T08:42:08.000Z</time>
      </trkpt>
      <trkpt lat="48.72468" lon="1.7344">
        <ele>127.80000305176</ele>
        <time>2011-04-26T08:42:13.000Z</time>
      </trkpt>
      <trkpt lat="48.72474" lon="1.73441">
        <ele>128</ele>
        <time>2011-04-26T08:42:19.000Z</time>
      </trkpt>
      <trkpt lat="48.72479" lon="1.73442">
        <ele>128.19999694824</ele>
        <time>2011-04-26T08:42:23.000Z</time>
      </trkpt>
      <trkpt lat="48.72486" lon="1.73444">
        <ele>128.39999389648</ele>
        <time>2011-04-26T08:42:30.000Z</time>
      </trkpt>
      <trkpt lat="48.72494" lon="1.73445">
        <ele>128.60000610352</ele>
        <time>2011-04-26T08:42:37.000Z</time>
      </trkpt>
      <trkpt lat="48.72502" lon="1.73447">
        <ele>128.80000305176</ele>
        <time>2011-04-26T08:42:44.000Z</time>
      </trkpt>
      <trkpt lat="48.72513" lon="1.73447">
        <ele>128.80000305176</ele>
        <time>2011-04-26T08:42:53.000Z</time>
      </trkpt>
      <trkpt lat="48.72519" lon="1.73447">
        <ele>128.80000305176</ele>
        <time>2011-04-26T08:42:58.000Z</time>
      </trkpt>
      <trkpt lat="48.72529" lon="1.73452">
        <ele>128.60000610352</ele>
        <time>2011-04-26T08:43:08.000Z</time>
      </trkpt>
      <trkpt lat="48.72537" lon="1.73454">
        <ele>128.39999389648</ele>
        <time>2011-04-26T08:43:14.000Z</time>
      </trkpt>
      <trkpt lat="48.72544" lon="1.7345">
        <ele>128.39999389648</ele>
        <time>2011-04-26T08:43:21.000Z</time>
      </trkpt>
      <trkpt lat="48.72547" lon="1.7344">
        <ele>128.60000610352</ele>
        <time>2011-04-26T08:43:27.000Z</time>
      </trkpt>
      <trkpt lat="48.72547" lon="1.73422">
        <ele>128.80000305176</ele>
        <time>2011-04-26T08:43:36.000Z</time>
      </trkpt>
      <trkpt lat="48.72546" lon="1.73415">
        <ele>128.80000305176</ele>
        <time>2011-04-26T08:43:40.000Z</time>
      </trkpt>
      <trkpt lat="48.72548" lon="1.73407">
        <ele>128.80000305176</ele>
        <time>2011-04-26T08:43:44.000Z</time>
      </trkpt>
      <trkpt lat="48.7255" lon="1.73402">
        <ele>128.60000610352</ele>
        <time>2011-04-26T08:43:47.000Z</time>
      </trkpt>
      <trkpt lat="48.72552" lon="1.73396">
        <ele>128.60000610352</ele>
        <time>2011-04-26T08:43:51.000Z</time>
      </trkpt>
      <trkpt lat="48.72556" lon="1.73377">
        <ele>128.19999694824</ele>
        <time>2011-04-26T08:44:00.000Z</time>
      </trkpt>
      <trkpt lat="48.72562" lon="1.73362">
        <ele>128</ele>
        <time>2011-04-26T08:44:08.000Z</time>
      </trkpt>
      <trkpt lat="48.72566" lon="1.73348">
        <ele>128</ele>
        <time>2011-04-26T08:44:16.000Z</time>
      </trkpt>
      <trkpt lat="48.72568" lon="1.73328">
        <ele>127.59999847412</ele>
        <time>2011-04-26T08:44:25.000Z</time>
      </trkpt>
      <trkpt lat="48.72573" lon="1.73316">
        <ele>127.59999847412</ele>
        <time>2011-04-26T08:44:33.000Z</time>
      </trkpt>
      <trkpt lat="48.72573" lon="1.73315">
        <ele>127.59999847412</ele>
        <time>2011-04-26T08:44:34.000Z</time>
      </trkpt>
      <trkpt lat="48.72575" lon="1.73309">
        <ele>127.59999847412</ele>
        <time>2011-04-26T08:44:38.000Z</time>
      </trkpt>
      <trkpt lat="48.72576" lon="1.733">
        <ele>127.40000152588</ele>
        <time>2011-04-26T08:44:42.000Z</time>
      </trkpt>
      <trkpt lat="48.7258" lon="1.73289">
        <ele>127.40000152588</ele>
        <time>2011-04-26T08:44:48.000Z</time>
      </trkpt>
      <trkpt lat="48.72581" lon="1.73284">
        <ele>127.19999694824</ele>
        <time>2011-04-26T08:44:53.000Z</time>
      </trkpt>
      <trkpt lat="48.72581" lon="1.73282">
        <ele>127.19999694824</ele>
        <time>2011-04-26T08:44:54.000Z</time>
      </trkpt>
      <trkpt lat="48.72583" lon="1.73277">
        <ele>127.19999694824</ele>
        <time>2011-04-26T08:45:00.000Z</time>
      </trkpt>
      <trkpt lat="48.72585" lon="1.73266">
        <ele>127</ele>
        <time>2011-04-26T08:45:06.000Z</time>
      </trkpt>
      <trkpt lat="48.72586" lon="1.73265">
        <ele>127</ele>
        <time>2011-04-26T08:45:07.000Z</time>
      </trkpt>
      <trkpt lat="48.72588" lon="1.73253">
        <ele>126.80000305176</ele>
        <time>2011-04-26T08:45:14.000Z</time>
      </trkpt>
      <trkpt lat="48.72589" lon="1.73241">
        <ele>126.80000305176</ele>
        <time>2011-04-26T08:45:21.000Z</time>
      </trkpt>
      <trkpt lat="48.72593" lon="1.73225">
        <ele>126.80000305176</ele>
        <time>2011-04-26T08:45:31.000Z</time>
      </trkpt>
      <trkpt lat="48.72595" lon="1.73219">
        <ele>126.80000305176</ele>
        <time>2011-04-26T08:45:35.000Z</time>
      </trkpt>
      <trkpt lat="48.72598" lon="1.73212">
        <ele>126.80000305176</ele>
        <time>2011-04-26T08:45:41.000Z</time>
      </trkpt>
      <trkpt lat="48.72599" lon="1.7321">
        <ele>126.80000305176</ele>
        <time>2011-04-26T08:45:42.000Z</time>
      </trkpt>
      <trkpt lat="48.72602" lon="1.73198">
        <ele>126.80000305176</ele>
        <time>2011-04-26T08:45:50.000Z</time>
      </trkpt>
      <trkpt lat="48.72609" lon="1.73187">
        <ele>126.80000305176</ele>
        <time>2011-04-26T08:45:58.000Z</time>
      </trkpt>
      <trkpt lat="48.72615" lon="1.73181">
        <ele>126.80000305176</ele>
        <time>2011-04-26T08:46:05.000Z</time>
      </trkpt>
      <trkpt lat="48.72623" lon="1.73177">
        <ele>126.80000305176</ele>
        <time>2011-04-26T08:46:12.000Z</time>
      </trkpt>
      <trkpt lat="48.72624" lon="1.73176">
        <ele>126.80000305176</ele>
        <time>2011-04-26T08:46:14.000Z</time>
      </trkpt>
      <trkpt lat="48.72632" lon="1.73171">
        <ele>126.80000305176</ele>
        <time>2011-04-26T08:46:22.000Z</time>
      </trkpt>
      <trkpt lat="48.72642" lon="1.73161">
        <ele>126.80000305176</ele>
        <time>2011-04-26T08:46:30.000Z</time>
      </trkpt>
      <trkpt lat="48.72649" lon="1.73158">
        <ele>127</ele>
        <time>2011-04-26T08:46:36.000Z</time>
      </trkpt>
      <trkpt lat="48.72657" lon="1.73151">
        <ele>127</ele>
        <time>2011-04-26T08:46:43.000Z</time>
      </trkpt>
      <trkpt lat="48.72662" lon="1.73149">
        <ele>127</ele>
        <time>2011-04-26T08:46:47.000Z</time>
      </trkpt>
      <trkpt lat="48.72673" lon="1.73141">
        <ele>127.19999694824</ele>
        <time>2011-04-26T08:46:55.000Z</time>
      </trkpt>
      <trkpt lat="48.72683" lon="1.73134">
        <ele>127</ele>
        <time>2011-04-26T08:47:04.000Z</time>
      </trkpt>
      <trkpt lat="48.72692" lon="1.73125">
        <ele>127</ele>
        <time>2011-04-26T08:47:12.000Z</time>
      </trkpt>
      <trkpt lat="48.72701" lon="1.73121">
        <ele>126.80000305176</ele>
        <time>2011-04-26T08:47:19.000Z</time>
      </trkpt>
      <trkpt lat="48.72712" lon="1.73114">
        <ele>126.59999847412</ele>
        <time>2011-04-26T08:47:28.000Z</time>
      </trkpt>
      <trkpt lat="48.72721" lon="1.73109">
        <ele>126.40000152588</ele>
        <time>2011-04-26T08:47:34.000Z</time>
      </trkpt>
      <trkpt lat="48.72729" lon="1.73103">
        <ele>126.40000152588</ele>
        <time>2011-04-26T08:47:42.000Z</time>
      </trkpt>
      <trkpt lat="48.72739" lon="1.73096">
        <ele>126.19999694824</ele>
        <time>2011-04-26T08:47:51.000Z</time>
      </trkpt>
      <trkpt lat="48.72748" lon="1.73088">
        <ele>126</ele>
        <time>2011-04-26T08:47:59.000Z</time>
      </trkpt>
      <trkpt lat="48.72756" lon="1.73084">
        <ele>126</ele>
        <time>2011-04-26T08:48:06.000Z</time>
      </trkpt>
      <trkpt lat="48.72757" lon="1.73083">
        <ele>126</ele>
        <time>2011-04-26T08:48:07.000Z</time>
      </trkpt>
      <trkpt lat="48.72765" lon="1.73077">
        <ele>126.19999694824</ele>
        <time>2011-04-26T08:48:15.000Z</time>
      </trkpt>
      <trkpt lat="48.72767" lon="1.73076">
        <ele>126.19999694824</ele>
        <time>2011-04-26T08:48:17.000Z</time>
      </trkpt>
      <trkpt lat="48.72777" lon="1.73069">
        <ele>126.40000152588</ele>
        <time>2011-04-26T08:48:25.000Z</time>
      </trkpt>
      <trkpt lat="48.72783" lon="1.73066">
        <ele>126.59999847412</ele>
        <time>2011-04-26T08:48:30.000Z</time>
      </trkpt>
      <trkpt lat="48.72793" lon="1.7306">
        <ele>126.80000305176</ele>
        <time>2011-04-26T08:48:40.000Z</time>
      </trkpt>
      <trkpt lat="48.728" lon="1.73054">
        <ele>126.80000305176</ele>
        <time>2011-04-26T08:48:47.000Z</time>
      </trkpt>
      <trkpt lat="48.72801" lon="1.73052">
        <ele>126.80000305176</ele>
        <time>2011-04-26T08:48:51.000Z</time>
      </trkpt>
      <trkpt lat="48.72817" lon="1.73043">
        <ele>127.19999694824</ele>
        <time>2011-04-26T08:49:38.000Z</time>
      </trkpt>
      <trkpt lat="48.72827" lon="1.73038">
        <ele>127.19999694824</ele>
        <time>2011-04-26T08:49:47.000Z</time>
      </trkpt>
      <trkpt lat="48.72837" lon="1.73032">
        <ele>127.40000152588</ele>
        <time>2011-04-26T08:49:56.000Z</time>
      </trkpt>
      <trkpt lat="48.72844" lon="1.73027">
        <ele>127.19999694824</ele>
        <time>2011-04-26T08:50:02.000Z</time>
      </trkpt>
      <trkpt lat="48.72846" lon="1.73026">
        <ele>127.19999694824</ele>
        <time>2011-04-26T08:50:04.000Z</time>
      </trkpt>
      <trkpt lat="48.72847" lon="1.73025">
        <ele>127.19999694824</ele>
        <time>2011-04-26T08:50:07.000Z</time>
      </trkpt>
      <trkpt lat="48.72866" lon="1.73027">
        <ele>127.40000152588</ele>
        <time>2011-04-26T08:50:34.000Z</time>
      </trkpt>
      <trkpt lat="48.72872" lon="1.73038">
        <ele>127.59999847412</ele>
        <time>2011-04-26T08:50:41.000Z</time>
      </trkpt>
      <trkpt lat="48.72879" lon="1.73054">
        <ele>128</ele>
        <time>2011-04-26T08:50:51.000Z</time>
      </trkpt>
      <trkpt lat="48.72884" lon="1.73063">
        <ele>128.19999694824</ele>
        <time>2011-04-26T08:50:57.000Z</time>
      </trkpt>
      <trkpt lat="48.72888" lon="1.73075">
        <ele>128.39999389648</ele>
        <time>2011-04-26T08:51:04.000Z</time>
      </trkpt>
      <trkpt lat="48.72891" lon="1.73082">
        <ele>128.60000610352</ele>
        <time>2011-04-26T08:51:08.000Z</time>
      </trkpt>
      <trkpt lat="48.72905" lon="1.73104">
        <ele>129</ele>
        <time>2011-04-26T08:51:15.000Z</time>
      </trkpt>
      <trkpt lat="48.72914" lon="1.73122">
        <ele>129.39999389648</ele>
        <time>2011-04-26T08:51:20.000Z</time>
      </trkpt>
      <trkpt lat="48.72925" lon="1.7314">
        <ele>129.80000305176</ele>
        <time>2011-04-26T08:51:25.000Z</time>
      </trkpt>
      <trkpt lat="48.72934" lon="1.73157">
        <ele>130.39999389648</ele>
        <time>2011-04-26T08:51:30.000Z</time>
      </trkpt>
      <trkpt lat="48.72946" lon="1.73176">
        <ele>131</ele>
        <time>2011-04-26T08:51:35.000Z</time>
      </trkpt>
      <trkpt lat="48.72958" lon="1.73195">
        <ele>131.39999389648</ele>
        <time>2011-04-26T08:51:40.000Z</time>
      </trkpt>
      <trkpt lat="48.72972" lon="1.73218">
        <ele>132</ele>
        <time>2011-04-26T08:51:46.000Z</time>
      </trkpt>
      <trkpt lat="48.72989" lon="1.73245">
        <ele>132.60000610352</ele>
        <time>2011-04-26T08:51:53.000Z</time>
      </trkpt>
      <trkpt lat="48.72998" lon="1.73261">
        <ele>133</ele>
        <time>2011-04-26T08:51:57.000Z</time>
      </trkpt>
      <trkpt lat="48.73007" lon="1.73276">
        <ele>133.60000610352</ele>
        <time>2011-04-26T08:52:01.000Z</time>
      </trkpt>
      <trkpt lat="48.73018" lon="1.73299">
        <ele>134.19999694824</ele>
        <time>2011-04-26T08:52:07.000Z</time>
      </trkpt>
      <trkpt lat="48.73029" lon="1.73317">
        <ele>135</ele>
        <time>2011-04-26T08:52:12.000Z</time>
      </trkpt>
      <trkpt lat="48.7304" lon="1.73336">
        <ele>135.80000305176</ele>
        <time>2011-04-26T08:52:17.000Z</time>
      </trkpt>
      <trkpt lat="48.73058" lon="1.7335">
        <ele>136.60000610352</ele>
        <time>2011-04-26T08:52:23.000Z</time>
      </trkpt>
      <trkpt lat="48.73072" lon="1.73351">
        <ele>137.19999694824</ele>
        <time>2011-04-26T08:52:28.000Z</time>
      </trkpt>
      <trkpt lat="48.73088" lon="1.73353">
        <ele>137.80000305176</ele>
        <time>2011-04-26T08:52:33.000Z</time>
      </trkpt>
      <trkpt lat="48.73105" lon="1.73355">
        <ele>138.19999694824</ele>
        <time>2011-04-26T08:52:38.000Z</time>
      </trkpt>
      <trkpt lat="48.73121" lon="1.73351">
        <ele>138.60000610352</ele>
        <time>2011-04-26T08:52:43.000Z</time>
      </trkpt>
      <trkpt lat="48.73133" lon="1.73351">
        <ele>138.80000305176</ele>
        <time>2011-04-26T08:52:48.000Z</time>
      </trkpt>
      <trkpt lat="48.73136" lon="1.73351">
        <ele>139</ele>
        <time>2011-04-26T08:52:52.000Z</time>
      </trkpt>
      <trkpt lat="48.73146" lon="1.73351">
        <ele>139.19999694824</ele>
        <time>2011-04-26T08:52:57.000Z</time>
      </trkpt>
      <trkpt lat="48.73161" lon="1.73352">
        <ele>139.60000610352</ele>
        <time>2011-04-26T08:53:03.000Z</time>
      </trkpt>
      <trkpt lat="48.73176" lon="1.73352">
        <ele>139.80000305176</ele>
        <time>2011-04-26T08:53:08.000Z</time>
      </trkpt>
      <trkpt lat="48.73191" lon="1.73353">
        <ele>139.80000305176</ele>
        <time>2011-04-26T08:53:12.000Z</time>
      </trkpt>
      <trkpt lat="48.73202" lon="1.73354">
        <ele>139.80000305176</ele>
        <time>2011-04-26T08:53:16.000Z</time>
      </trkpt>
      <trkpt lat="48.7322" lon="1.73354">
        <ele>139.80000305176</ele>
        <time>2011-04-26T08:53:22.000Z</time>
      </trkpt>
      <trkpt lat="48.73234" lon="1.73354">
        <ele>139.80000305176</ele>
        <time>2011-04-26T08:53:27.000Z</time>
      </trkpt>
      <trkpt lat="48.7325" lon="1.73355">
        <ele>139.80000305176</ele>
        <time>2011-04-26T08:53:32.000Z</time>
      </trkpt>
      <trkpt lat="48.73262" lon="1.73356">
        <ele>140</ele>
        <time>2011-04-26T08:53:37.000Z</time>
      </trkpt>
      <trkpt lat="48.73277" lon="1.73356">
        <ele>140</ele>
        <time>2011-04-26T08:53:42.000Z</time>
      </trkpt>
      <trkpt lat="48.73279" lon="1.73355">
        <ele>140</ele>
        <time>2011-04-26T08:53:43.000Z</time>
      </trkpt>
      <trkpt lat="48.73296" lon="1.73354">
        <ele>140</ele>
        <time>2011-04-26T08:53:48.000Z</time>
      </trkpt>
      <trkpt lat="48.73304" lon="1.73355">
        <ele>140</ele>
        <time>2011-04-26T08:53:50.000Z</time>
      </trkpt>
      <trkpt lat="48.73326" lon="1.73358">
        <ele>140.19999694824</ele>
        <time>2011-04-26T08:53:56.000Z</time>
      </trkpt>
      <trkpt lat="48.73334" lon="1.73358">
        <ele>140.19999694824</ele>
        <time>2011-04-26T08:53:59.000Z</time>
      </trkpt>
      <trkpt lat="48.73341" lon="1.73349">
        <ele>140.19999694824</ele>
        <time>2011-04-26T08:54:03.000Z</time>
      </trkpt>
      <trkpt lat="48.73342" lon="1.73344">
        <ele>140.19999694824</ele>
        <time>2011-04-26T08:54:04.000Z</time>
      </trkpt>
      <trkpt lat="48.73342" lon="1.73313">
        <ele>139.80000305176</ele>
        <time>2011-04-26T08:54:10.000Z</time>
      </trkpt>
      <trkpt lat="48.73342" lon="1.73284">
        <ele>139.39999389648</ele>
        <time>2011-04-26T08:54:16.000Z</time>
      </trkpt>
      <trkpt lat="48.7334" lon="1.73256">
        <ele>139.19999694824</ele>
        <time>2011-04-26T08:54:23.000Z</time>
      </trkpt>
      <trkpt lat="48.73338" lon="1.73229">
        <ele>138.19999694824</ele>
        <time>2011-04-26T08:54:29.000Z</time>
      </trkpt>
      <trkpt lat="48.73338" lon="1.7321">
        <ele>137.60000610352</ele>
        <time>2011-04-26T08:54:33.000Z</time>
      </trkpt>
      <trkpt lat="48.73344" lon="1.73204">
        <ele>137.60000610352</ele>
        <time>2011-04-26T08:54:38.000Z</time>
      </trkpt>
      <trkpt lat="48.73344" lon="1.73204">
        <ele>137.39999389648</ele>
        <time>2011-04-26T08:54:41.000Z</time>
      </trkpt>
      <trkpt lat="48.73339" lon="1.73202">
        <ele>137.19999694824</ele>
        <time>2011-04-26T08:54:47.000Z</time>
      </trkpt>
      <trkpt lat="48.73337" lon="1.73195">
        <ele>137</ele>
        <time>2011-04-26T08:54:52.000Z</time>
      </trkpt>
      <trkpt lat="48.73336" lon="1.73183">
        <ele>136.60000610352</ele>
        <time>2011-04-26T08:56:55.000Z</time>
      </trkpt>
      <trkpt lat="48.73336" lon="1.73176">
        <ele>136.19999694824</ele>
        <time>2011-04-26T08:56:57.000Z</time>
      </trkpt>
      <trkpt lat="48.73335" lon="1.73162">
        <ele>135.80000305176</ele>
        <time>2011-04-26T08:57:05.000Z</time>
      </trkpt>
      <trkpt lat="48.73336" lon="1.73156">
        <ele>135.80000305176</ele>
        <time>2011-04-26T08:57:09.000Z</time>
      </trkpt>
      <trkpt lat="48.73334" lon="1.73144">
        <ele>135.39999389648</ele>
        <time>2011-04-26T08:57:15.000Z</time>
      </trkpt>
      <trkpt lat="48.7333" lon="1.73127">
        <ele>134.80000305176</ele>
        <time>2011-04-26T08:57:25.000Z</time>
      </trkpt>
      <trkpt lat="48.73329" lon="1.73107">
        <ele>134.39999389648</ele>
        <time>2011-04-26T08:57:36.000Z</time>
      </trkpt>
      <trkpt lat="48.73328" lon="1.7309">
        <ele>133.80000305176</ele>
        <time>2011-04-26T08:57:44.000Z</time>
      </trkpt>
      <trkpt lat="48.73329" lon="1.73084">
        <ele>133.80000305176</ele>
        <time>2011-04-26T08:57:47.000Z</time>
      </trkpt>
      <trkpt lat="48.73328" lon="1.7308">
        <ele>133.60000610352</ele>
        <time>2011-04-26T08:57:50.000Z</time>
      </trkpt>
      <trkpt lat="48.73328" lon="1.73075">
        <ele>133.39999389648</ele>
        <time>2011-04-26T08:57:53.000Z</time>
      </trkpt>
      <trkpt lat="48.73326" lon="1.73058">
        <ele>132.80000305176</ele>
        <time>2011-04-26T08:58:00.000Z</time>
      </trkpt>
      <trkpt lat="48.73325" lon="1.7305">
        <ele>132.39999389648</ele>
        <time>2011-04-26T08:58:04.000Z</time>
      </trkpt>
      <trkpt lat="48.73324" lon="1.73034">
        <ele>131.80000305176</ele>
        <time>2011-04-26T08:58:11.000Z</time>
      </trkpt>
      <trkpt lat="48.73323" lon="1.73023">
        <ele>131.39999389648</ele>
        <time>2011-04-26T08:58:16.000Z</time>
      </trkpt>
      <trkpt lat="48.7332" lon="1.73009">
        <ele>130.80000305176</ele>
        <time>2011-04-26T08:58:23.000Z</time>
      </trkpt>
      <trkpt lat="48.7332" lon="1.72993">
        <ele>130.60000610352</ele>
        <time>2011-04-26T08:58:30.000Z</time>
      </trkpt>
      <trkpt lat="48.73319" lon="1.7299">
        <ele>130.60000610352</ele>
        <time>2011-04-26T08:58:34.000Z</time>
      </trkpt>
      <trkpt lat="48.7332" lon="1.72981">
        <ele>130.60000610352</ele>
        <time>2011-04-26T08:59:03.000Z</time>
      </trkpt>
      <trkpt lat="48.73319" lon="1.72975">
        <ele>130.80000305176</ele>
        <time>2011-04-26T08:59:05.000Z</time>
      </trkpt>
      <trkpt lat="48.73319" lon="1.72975">
        <ele>130.80000305176</ele>
        <time>2011-04-26T08:59:08.000Z</time>
      </trkpt>
      <trkpt lat="48.73312" lon="1.72952">
        <ele>130.80000305176</ele>
        <time>2011-04-26T08:59:36.000Z</time>
      </trkpt>
      <trkpt lat="48.73312" lon="1.72943">
        <ele>131</ele>
        <time>2011-04-26T08:59:42.000Z</time>
      </trkpt>
      <trkpt lat="48.73315" lon="1.72942">
        <ele>131</ele>
        <time>2011-04-26T08:59:47.000Z</time>
      </trkpt>
      <trkpt lat="48.73313" lon="1.7293">
        <ele>131.19999694824</ele>
        <time>2011-04-26T08:59:57.000Z</time>
      </trkpt>
      <trkpt lat="48.73312" lon="1.72919">
        <ele>131.39999389648</ele>
        <time>2011-04-26T09:00:01.000Z</time>
      </trkpt>
      <trkpt lat="48.73311" lon="1.72902">
        <ele>131.39999389648</ele>
        <time>2011-04-26T09:00:09.000Z</time>
      </trkpt>
      <trkpt lat="48.73309" lon="1.72889">
        <ele>131.60000610352</ele>
        <time>2011-04-26T09:00:15.000Z</time>
      </trkpt>
      <trkpt lat="48.73307" lon="1.72869">
        <ele>131.60000610352</ele>
        <time>2011-04-26T09:00:24.000Z</time>
      </trkpt>
      <trkpt lat="48.73304" lon="1.72848">
        <ele>131.80000305176</ele>
        <time>2011-04-26T09:00:34.000Z</time>
      </trkpt>
      <trkpt lat="48.73303" lon="1.72827">
        <ele>131.80000305176</ele>
        <time>2011-04-26T09:00:44.000Z</time>
      </trkpt>
      <trkpt lat="48.73301" lon="1.72809">
        <ele>131.39999389648</ele>
        <time>2011-04-26T09:00:52.000Z</time>
      </trkpt>
      <trkpt lat="48.733" lon="1.72795">
        <ele>131.19999694824</ele>
        <time>2011-04-26T09:00:59.000Z</time>
      </trkpt>
      <trkpt lat="48.73299" lon="1.72772">
        <ele>131</ele>
        <time>2011-04-26T09:01:09.000Z</time>
      </trkpt>
      <trkpt lat="48.73296" lon="1.72762">
        <ele>130.80000305176</ele>
        <time>2011-04-26T09:01:15.000Z</time>
      </trkpt>
      <trkpt lat="48.73295" lon="1.72746">
        <ele>130.39999389648</ele>
        <time>2011-04-26T09:01:24.000Z</time>
      </trkpt>
      <trkpt lat="48.73295" lon="1.72734">
        <ele>130.39999389648</ele>
        <time>2011-04-26T09:01:31.000Z</time>
      </trkpt>
      <trkpt lat="48.733" lon="1.7272">
        <ele>130.39999389648</ele>
        <time>2011-04-26T09:01:39.000Z</time>
      </trkpt>
      <trkpt lat="48.73303" lon="1.72698">
        <ele>130.39999389648</ele>
        <time>2011-04-26T09:01:49.000Z</time>
      </trkpt>
      <trkpt lat="48.73304" lon="1.72689">
        <ele>130.39999389648</ele>
        <time>2011-04-26T09:01:56.000Z</time>
      </trkpt>
      <trkpt lat="48.73306" lon="1.72679">
        <ele>130.39999389648</ele>
        <time>2011-04-26T09:02:04.000Z</time>
      </trkpt>
      <trkpt lat="48.73309" lon="1.72659">
        <ele>130</ele>
        <time>2011-04-26T09:02:13.000Z</time>
      </trkpt>
      <trkpt lat="48.73311" lon="1.72641">
        <ele>129.39999389648</ele>
        <time>2011-04-26T09:02:21.000Z</time>
      </trkpt>
      <trkpt lat="48.73314" lon="1.72627">
        <ele>129</ele>
        <time>2011-04-26T09:02:27.000Z</time>
      </trkpt>
      <trkpt lat="48.73319" lon="1.72596">
        <ele>128</ele>
        <time>2011-04-26T09:02:34.000Z</time>
      </trkpt>
      <trkpt lat="48.73326" lon="1.72563">
        <ele>127.19999694824</ele>
        <time>2011-04-26T09:02:41.000Z</time>
      </trkpt>
      <trkpt lat="48.73331" lon="1.72529">
        <ele>126.59999847412</ele>
        <time>2011-04-26T09:02:48.000Z</time>
      </trkpt>
      <trkpt lat="48.73335" lon="1.72503">
        <ele>126</ele>
        <time>2011-04-26T09:02:55.000Z</time>
      </trkpt>
      <trkpt lat="48.73337" lon="1.72499">
        <ele>126.19999694824</ele>
        <time>2011-04-26T09:02:58.000Z</time>
      </trkpt>
      <trkpt lat="48.73337" lon="1.72497">
        <ele>126.19999694824</ele>
        <time>2011-04-26T09:03:01.000Z</time>
      </trkpt>
      <trkpt lat="48.73338" lon="1.72492">
        <ele>126.19999694824</ele>
        <time>2011-04-26T09:03:03.000Z</time>
      </trkpt>
      <trkpt lat="48.73336" lon="1.72484">
        <ele>126.19999694824</ele>
        <time>2011-04-26T09:03:08.000Z</time>
      </trkpt>
      <trkpt lat="48.73337" lon="1.72475">
        <ele>126.19999694824</ele>
        <time>2011-04-26T09:03:13.000Z</time>
      </trkpt>
      <trkpt lat="48.73338" lon="1.72473">
        <ele>126.19999694824</ele>
        <time>2011-04-26T09:03:14.000Z</time>
      </trkpt>
      <trkpt lat="48.73339" lon="1.72465">
        <ele>126.40000152588</ele>
        <time>2011-04-26T09:03:18.000Z</time>
      </trkpt>
      <trkpt lat="48.73342" lon="1.72446">
        <ele>126.59999847412</ele>
        <time>2011-04-26T09:03:27.000Z</time>
      </trkpt>
      <trkpt lat="48.73346" lon="1.72432">
        <ele>126.80000305176</ele>
        <time>2011-04-26T09:03:34.000Z</time>
      </trkpt>
      <trkpt lat="48.73348" lon="1.72422">
        <ele>127</ele>
        <time>2011-04-26T09:03:39.000Z</time>
      </trkpt>
      <trkpt lat="48.7335" lon="1.72406">
        <ele>127</ele>
        <time>2011-04-26T09:03:46.000Z</time>
      </trkpt>
      <trkpt lat="48.73353" lon="1.72391">
        <ele>127</ele>
        <time>2011-04-26T09:03:52.000Z</time>
      </trkpt>
      <trkpt lat="48.73359" lon="1.72354">
        <ele>127</ele>
        <time>2011-04-26T09:04:00.000Z</time>
      </trkpt>
      <trkpt lat="48.73366" lon="1.72314">
        <ele>127</ele>
        <time>2011-04-26T09:04:08.000Z</time>
      </trkpt>
      <trkpt lat="48.73374" lon="1.72263">
        <ele>127</ele>
        <time>2011-04-26T09:04:18.000Z</time>
      </trkpt>
      <trkpt lat="48.73378" lon="1.72237">
        <ele>126.80000305176</ele>
        <time>2011-04-26T09:04:23.000Z</time>
      </trkpt>
      <trkpt lat="48.73383" lon="1.72207">
        <ele>126.80000305176</ele>
        <time>2011-04-26T09:04:29.000Z</time>
      </trkpt>
      <trkpt lat="48.7339" lon="1.72172">
        <ele>126.59999847412</ele>
        <time>2011-04-26T09:04:36.000Z</time>
      </trkpt>
      <trkpt lat="48.73396" lon="1.72139">
        <ele>127.19999694824</ele>
        <time>2011-04-26T09:04:43.000Z</time>
      </trkpt>
      <trkpt lat="48.73404" lon="1.72098">
        <ele>128.19999694824</ele>
        <time>2011-04-26T09:04:51.000Z</time>
      </trkpt>
      <trkpt lat="48.73411" lon="1.72047">
        <ele>128.39999389648</ele>
        <time>2011-04-26T09:05:01.000Z</time>
      </trkpt>
      <trkpt lat="48.73414" lon="1.72034">
        <ele>128.19999694824</ele>
        <time>2011-04-26T09:05:06.000Z</time>
      </trkpt>
      <trkpt lat="48.73414" lon="1.7203">
        <ele>128.19999694824</ele>
        <time>2011-04-26T09:05:08.000Z</time>
      </trkpt>
      <trkpt lat="48.73417" lon="1.72013">
        <ele>128</ele>
        <time>2011-04-26T09:05:16.000Z</time>
      </trkpt>
      <trkpt lat="48.73425" lon="1.72002">
        <ele>128.39999389648</ele>
        <time>2011-04-26T09:05:24.000Z</time>
      </trkpt>
      <trkpt lat="48.73428" lon="1.71996">
        <ele>128.39999389648</ele>
        <time>2011-04-26T09:05:30.000Z</time>
      </trkpt>
      <trkpt lat="48.73428" lon="1.71994">
        <ele>128.60000610352</ele>
        <time>2011-04-26T09:05:31.000Z</time>
      </trkpt>
      <trkpt lat="48.73428" lon="1.71979">
        <ele>128.80000305176</ele>
        <time>2011-04-26T09:05:39.000Z</time>
      </trkpt>
      <trkpt lat="48.73427" lon="1.71966">
        <ele>129</ele>
        <time>2011-04-26T09:05:46.000Z</time>
      </trkpt>
      <trkpt lat="48.73428" lon="1.71955">
        <ele>129.39999389648</ele>
        <time>2011-04-26T09:05:52.000Z</time>
      </trkpt>
      <trkpt lat="48.73432" lon="1.7194">
        <ele>129.60000610352</ele>
        <time>2011-04-26T09:06:00.000Z</time>
      </trkpt>
      <trkpt lat="48.73433" lon="1.71923">
        <ele>130</ele>
        <time>2011-04-26T09:06:08.000Z</time>
      </trkpt>
      <trkpt lat="48.73434" lon="1.71906">
        <ele>130.39999389648</ele>
        <time>2011-04-26T09:06:17.000Z</time>
      </trkpt>
      <trkpt lat="48.73435" lon="1.71889">
        <ele>130.80000305176</ele>
        <time>2011-04-26T09:06:26.000Z</time>
      </trkpt>
      <trkpt lat="48.73435" lon="1.71887">
        <ele>130.80000305176</ele>
        <time>2011-04-26T09:06:27.000Z</time>
      </trkpt>
      <trkpt lat="48.73438" lon="1.71874">
        <ele>131</ele>
        <time>2011-04-26T09:06:33.000Z</time>
      </trkpt>
      <trkpt lat="48.73443" lon="1.71846">
        <ele>131.60000610352</ele>
        <time>2011-04-26T09:06:39.000Z</time>
      </trkpt>
      <trkpt lat="48.73446" lon="1.71818">
        <ele>131.80000305176</ele>
        <time>2011-04-26T09:06:44.000Z</time>
      </trkpt>
      <trkpt lat="48.73453" lon="1.71793">
        <ele>131.60000610352</ele>
        <time>2011-04-26T09:06:49.000Z</time>
      </trkpt>
      <trkpt lat="48.73462" lon="1.71761">
        <ele>131.60000610352</ele>
        <time>2011-04-26T09:06:55.000Z</time>
      </trkpt>
      <trkpt lat="48.73471" lon="1.71741">
        <ele>131.60000610352</ele>
        <time>2011-04-26T09:06:59.000Z</time>
      </trkpt>
      <trkpt lat="48.73482" lon="1.71719">
        <ele>131.60000610352</ele>
        <time>2011-04-26T09:07:04.000Z</time>
      </trkpt>
      <trkpt lat="48.73486" lon="1.71689">
        <ele>131.60000610352</ele>
        <time>2011-04-26T09:07:09.000Z</time>
      </trkpt>
      <trkpt lat="48.73489" lon="1.71663">
        <ele>131.39999389648</ele>
        <time>2011-04-26T09:07:14.000Z</time>
      </trkpt>
      <trkpt lat="48.73493" lon="1.7164">
        <ele>130.80000305176</ele>
        <time>2011-04-26T09:07:19.000Z</time>
      </trkpt>
      <trkpt lat="48.73499" lon="1.71618">
        <ele>130.19999694824</ele>
        <time>2011-04-26T09:07:24.000Z</time>
      </trkpt>
      <trkpt lat="48.73506" lon="1.71599">
        <ele>129.60000610352</ele>
        <time>2011-04-26T09:07:29.000Z</time>
      </trkpt>
      <trkpt lat="48.73512" lon="1.71582">
        <ele>129.19999694824</ele>
        <time>2011-04-26T09:07:33.000Z</time>
      </trkpt>
      <trkpt lat="48.73519" lon="1.71563">
        <ele>128.80000305176</ele>
        <time>2011-04-26T09:07:38.000Z</time>
      </trkpt>
      <trkpt lat="48.73527" lon="1.71525">
        <ele>127.80000305176</ele>
        <time>2011-04-26T09:07:45.000Z</time>
      </trkpt>
      <trkpt lat="48.73537" lon="1.71489">
        <ele>127.40000152588</ele>
        <time>2011-04-26T09:07:52.000Z</time>
      </trkpt>
      <trkpt lat="48.73547" lon="1.71448">
        <ele>127.59999847412</ele>
        <time>2011-04-26T09:08:00.000Z</time>
      </trkpt>
      <trkpt lat="48.73558" lon="1.71408">
        <ele>127.59999847412</ele>
        <time>2011-04-26T09:08:08.000Z</time>
      </trkpt>
      <trkpt lat="48.7357" lon="1.71364">
        <ele>127.80000305176</ele>
        <time>2011-04-26T09:08:17.000Z</time>
      </trkpt>
      <trkpt lat="48.7358" lon="1.71324">
        <ele>127.59999847412</ele>
        <time>2011-04-26T09:08:25.000Z</time>
      </trkpt>
      <trkpt lat="48.73593" lon="1.71275">
        <ele>127.19999694824</ele>
        <time>2011-04-26T09:08:35.000Z</time>
      </trkpt>
      <trkpt lat="48.73602" lon="1.71241">
        <ele>127</ele>
        <time>2011-04-26T09:08:42.000Z</time>
      </trkpt>
      <trkpt lat="48.7361" lon="1.71214">
        <ele>127</ele>
        <time>2011-04-26T09:08:48.000Z</time>
      </trkpt>
      <trkpt lat="48.73616" lon="1.7119">
        <ele>127.19999694824</ele>
        <time>2011-04-26T09:08:54.000Z</time>
      </trkpt>
      <trkpt lat="48.73619" lon="1.71174">
        <ele>127.19999694824</ele>
        <time>2011-04-26T09:09:01.000Z</time>
      </trkpt>
      <trkpt lat="48.73623" lon="1.71162">
        <ele>127.40000152588</ele>
        <time>2011-04-26T09:09:09.000Z</time>
      </trkpt>
      <trkpt lat="48.73625" lon="1.71152">
        <ele>127.40000152588</ele>
        <time>2011-04-26T09:09:16.000Z</time>
      </trkpt>
      <trkpt lat="48.73625" lon="1.71152">
        <ele>127.40000152588</ele>
        <time>2011-04-26T09:09:18.000Z</time>
      </trkpt>
      <trkpt lat="48.73625" lon="1.71155">
        <ele>127.40000152588</ele>
        <time>2011-04-26T09:13:50.000Z</time>
      </trkpt>
      <trkpt lat="48.73627" lon="1.71165">
        <ele>127.40000152588</ele>
        <time>2011-04-26T09:13:57.000Z</time>
      </trkpt>
      <trkpt lat="48.73627" lon="1.71165">
        <ele>127.40000152588</ele>
        <time>2011-04-26T09:13:58.000Z</time>
      </trkpt>
      <trkpt lat="48.7363" lon="1.71168">
        <ele>127.40000152588</ele>
        <time>2011-04-26T09:14:33.000Z</time>
      </trkpt>
      <trkpt lat="48.73633" lon="1.71169">
        <ele>127.40000152588</ele>
        <time>2011-04-26T09:14:37.000Z</time>
      </trkpt>
      <trkpt lat="48.73616" lon="1.71151">
        <ele>127.19999694824</ele>
        <time>2011-04-26T09:17:37.000Z</time>
      </trkpt>
      <trkpt lat="48.73602" lon="1.71151">
        <ele>127</ele>
        <time>2011-04-26T09:17:41.000Z</time>
      </trkpt>
      <trkpt lat="48.73589" lon="1.7115">
        <ele>126.80000305176</ele>
        <time>2011-04-26T09:17:45.000Z</time>
      </trkpt>
      <trkpt lat="48.73569" lon="1.7115">
        <ele>127</ele>
        <time>2011-04-26T09:17:51.000Z</time>
      </trkpt>
      <trkpt lat="48.73553" lon="1.71151">
        <ele>127.19999694824</ele>
        <time>2011-04-26T09:17:56.000Z</time>
      </trkpt>
      <trkpt lat="48.73536" lon="1.71152">
        <ele>127.40000152588</ele>
        <time>2011-04-26T09:18:01.000Z</time>
      </trkpt>
      <trkpt lat="48.73521" lon="1.71151">
        <ele>127.59999847412</ele>
        <time>2011-04-26T09:18:06.000Z</time>
      </trkpt>
      <trkpt lat="48.73512" lon="1.71151">
        <ele>127.80000305176</ele>
        <time>2011-04-26T09:18:09.000Z</time>
      </trkpt>
      <trkpt lat="48.73494" lon="1.71149">
        <ele>127.80000305176</ele>
        <time>2011-04-26T09:18:15.000Z</time>
      </trkpt>
      <trkpt lat="48.73476" lon="1.71149">
        <ele>127.40000152588</ele>
        <time>2011-04-26T09:18:21.000Z</time>
      </trkpt>
      <trkpt lat="48.73459" lon="1.7115">
        <ele>127</ele>
        <time>2011-04-26T09:18:26.000Z</time>
      </trkpt>
      <trkpt lat="48.73436" lon="1.71152">
        <ele>126.40000152588</ele>
        <time>2011-04-26T09:18:32.000Z</time>
      </trkpt>
      <trkpt lat="48.73418" lon="1.71154">
        <ele>126</ele>
        <time>2011-04-26T09:18:37.000Z</time>
      </trkpt>
      <trkpt lat="48.734" lon="1.71153">
        <ele>125.59999847412</ele>
        <time>2011-04-26T09:18:42.000Z</time>
      </trkpt>
      <trkpt lat="48.73383" lon="1.71154">
        <ele>125.19999694824</ele>
        <time>2011-04-26T09:18:47.000Z</time>
      </trkpt>
      <trkpt lat="48.73366" lon="1.71155">
        <ele>124.80000305176</ele>
        <time>2011-04-26T09:18:52.000Z</time>
      </trkpt>
      <trkpt lat="48.73352" lon="1.71157">
        <ele>124.40000152588</ele>
        <time>2011-04-26T09:18:56.000Z</time>
      </trkpt>
      <trkpt lat="48.7334" lon="1.71156">
        <ele>124.19999694824</ele>
        <time>2011-04-26T09:19:00.000Z</time>
      </trkpt>
      <trkpt lat="48.73326" lon="1.71154">
        <ele>124.19999694824</ele>
        <time>2011-04-26T09:19:05.000Z</time>
      </trkpt>
      <trkpt lat="48.73323" lon="1.71154">
        <ele>124.19999694824</ele>
        <time>2011-04-26T09:19:06.000Z</time>
      </trkpt>
      <trkpt lat="48.733" lon="1.71156">
        <ele>124.59999847412</ele>
        <time>2011-04-26T09:19:12.000Z</time>
      </trkpt>
      <trkpt lat="48.73281" lon="1.71159">
        <ele>124.80000305176</ele>
        <time>2011-04-26T09:19:17.000Z</time>
      </trkpt>
      <trkpt lat="48.73272" lon="1.71159">
        <ele>124.80000305176</ele>
        <time>2011-04-26T09:19:21.000Z</time>
      </trkpt>
      <trkpt lat="48.73259" lon="1.71158">
        <ele>125</ele>
        <time>2011-04-26T09:19:25.000Z</time>
      </trkpt>
      <trkpt lat="48.73246" lon="1.71157">
        <ele>125.19999694824</ele>
        <time>2011-04-26T09:19:30.000Z</time>
      </trkpt>
      <trkpt lat="48.73245" lon="1.71157">
        <ele>125.19999694824</ele>
        <time>2011-04-26T09:19:34.000Z</time>
      </trkpt>
      <trkpt lat="48.73241" lon="1.71157">
        <ele>125.19999694824</ele>
        <time>2011-04-26T09:19:39.000Z</time>
      </trkpt>
      <trkpt lat="48.73231" lon="1.71158">
        <ele>125.19999694824</ele>
        <time>2011-04-26T09:19:41.000Z</time>
      </trkpt>
      <trkpt lat="48.73214" lon="1.71155">
        <ele>125.19999694824</ele>
        <time>2011-04-26T09:19:46.000Z</time>
      </trkpt>
      <trkpt lat="48.73195" lon="1.71156">
        <ele>125</ele>
        <time>2011-04-26T09:19:52.000Z</time>
      </trkpt>
      <trkpt lat="48.73182" lon="1.71156">
        <ele>125</ele>
        <time>2011-04-26T09:19:56.000Z</time>
      </trkpt>
      <trkpt lat="48.73174" lon="1.71156">
        <ele>125</ele>
        <time>2011-04-26T09:20:01.000Z</time>
      </trkpt>
      <trkpt lat="48.73163" lon="1.71159">
        <ele>124.80000305176</ele>
        <time>2011-04-26T09:20:09.000Z</time>
      </trkpt>
      <trkpt lat="48.73153" lon="1.71159">
        <ele>124.59999847412</ele>
        <time>2011-04-26T09:20:16.000Z</time>
      </trkpt>
      <trkpt lat="48.73152" lon="1.71159">
        <ele>124.59999847412</ele>
        <time>2011-04-26T09:20:17.000Z</time>
      </trkpt>
      <trkpt lat="48.73146" lon="1.71159">
        <ele>124.40000152588</ele>
        <time>2011-04-26T09:20:21.000Z</time>
      </trkpt>
      <trkpt lat="48.73143" lon="1.71159">
        <ele>124.19999694824</ele>
        <time>2011-04-26T09:20:24.000Z</time>
      </trkpt>
      <trkpt lat="48.73128" lon="1.71157">
        <ele>124</ele>
        <time>2011-04-26T09:20:33.000Z</time>
      </trkpt>
      <trkpt lat="48.73122" lon="1.71158">
        <ele>123.80000305176</ele>
        <time>2011-04-26T09:20:37.000Z</time>
      </trkpt>
      <trkpt lat="48.73115" lon="1.71162">
        <ele>123.59999847412</ele>
        <time>2011-04-26T09:20:44.000Z</time>
      </trkpt>
      <trkpt lat="48.73105" lon="1.71161">
        <ele>123.40000152588</ele>
        <time>2011-04-26T09:20:51.000Z</time>
      </trkpt>
      <trkpt lat="48.73103" lon="1.71161">
        <ele>123.40000152588</ele>
        <time>2011-04-26T09:20:53.000Z</time>
      </trkpt>
      <trkpt lat="48.73098" lon="1.71161">
        <ele>123.19999694824</ele>
        <time>2011-04-26T09:21:00.000Z</time>
      </trkpt>
      <trkpt lat="48.73092" lon="1.71163">
        <ele>123</ele>
        <time>2011-04-26T09:21:05.000Z</time>
      </trkpt>
      <trkpt lat="48.73091" lon="1.71162">
        <ele>123</ele>
        <time>2011-04-26T09:21:06.000Z</time>
      </trkpt>
      <trkpt lat="48.73086" lon="1.71158">
        <ele>122.80000305176</ele>
        <time>2011-04-26T09:21:10.000Z</time>
      </trkpt>
      <trkpt lat="48.73076" lon="1.71157">
        <ele>122.59999847412</ele>
        <time>2011-04-26T09:21:17.000Z</time>
      </trkpt>
      <trkpt lat="48.73062" lon="1.71157">
        <ele>122</ele>
        <time>2011-04-26T09:21:26.000Z</time>
      </trkpt>
      <trkpt lat="48.73052" lon="1.71158">
        <ele>121.59999847412</ele>
        <time>2011-04-26T09:21:33.000Z</time>
      </trkpt>
      <trkpt lat="48.73043" lon="1.71157">
        <ele>121.40000152588</ele>
        <time>2011-04-26T09:21:39.000Z</time>
      </trkpt>
      <trkpt lat="48.73036" lon="1.7116">
        <ele>121.19999694824</ele>
        <time>2011-04-26T09:21:43.000Z</time>
      </trkpt>
      <trkpt lat="48.73032" lon="1.71162">
        <ele>121</ele>
        <time>2011-04-26T09:21:45.000Z</time>
      </trkpt>
      <trkpt lat="48.73024" lon="1.71163">
        <ele>120.80000305176</ele>
        <time>2011-04-26T09:21:51.000Z</time>
      </trkpt>
      <trkpt lat="48.73014" lon="1.71161">
        <ele>120.40000152588</ele>
        <time>2011-04-26T09:21:59.000Z</time>
      </trkpt>
      <trkpt lat="48.73005" lon="1.7116">
        <ele>120</ele>
        <time>2011-04-26T09:22:06.000Z</time>
      </trkpt>
      <trkpt lat="48.72997" lon="1.71157">
        <ele>119.80000305176</ele>
        <time>2011-04-26T09:22:12.000Z</time>
      </trkpt>
      <trkpt lat="48.72986" lon="1.71153">
        <ele>119.40000152588</ele>
        <time>2011-04-26T09:22:20.000Z</time>
      </trkpt>
      <trkpt lat="48.72976" lon="1.71149">
        <ele>119.19999694824</ele>
        <time>2011-04-26T09:22:28.000Z</time>
      </trkpt>
      <trkpt lat="48.72964" lon="1.71142">
        <ele>119</ele>
        <time>2011-04-26T09:22:36.000Z</time>
      </trkpt>
      <trkpt lat="48.72957" lon="1.71136">
        <ele>118.80000305176</ele>
        <time>2011-04-26T09:22:42.000Z</time>
      </trkpt>
      <trkpt lat="48.72948" lon="1.71132">
        <ele>118.80000305176</ele>
        <time>2011-04-26T09:22:48.000Z</time>
      </trkpt>
      <trkpt lat="48.72947" lon="1.71131">
        <ele>118.80000305176</ele>
        <time>2011-04-26T09:22:49.000Z</time>
      </trkpt>
      <trkpt lat="48.72936" lon="1.71127">
        <ele>118.59999847412</ele>
        <time>2011-04-26T09:22:56.000Z</time>
      </trkpt>
      <trkpt lat="48.72923" lon="1.71123">
        <ele>118.40000152588</ele>
        <time>2011-04-26T09:23:05.000Z</time>
      </trkpt>
      <trkpt lat="48.72913" lon="1.71117">
        <ele>118.40000152588</ele>
        <time>2011-04-26T09:23:13.000Z</time>
      </trkpt>
      <trkpt lat="48.72903" lon="1.71113">
        <ele>118.40000152588</ele>
        <time>2011-04-26T09:23:20.000Z</time>
      </trkpt>
      <trkpt lat="48.7289" lon="1.71107">
        <ele>118.59999847412</ele>
        <time>2011-04-26T09:23:29.000Z</time>
      </trkpt>
      <trkpt lat="48.72878" lon="1.71103">
        <ele>118.59999847412</ele>
        <time>2011-04-26T09:23:37.000Z</time>
      </trkpt>
      <trkpt lat="48.72871" lon="1.71099">
        <ele>118.59999847412</ele>
        <time>2011-04-26T09:23:42.000Z</time>
      </trkpt>
      <trkpt lat="48.72857" lon="1.71092">
        <ele>118.80000305176</ele>
        <time>2011-04-26T09:23:53.000Z</time>
      </trkpt>
      <trkpt lat="48.72849" lon="1.71087">
        <ele>118.80000305176</ele>
        <time>2011-04-26T09:24:00.000Z</time>
      </trkpt>
      <trkpt lat="48.72838" lon="1.71081">
        <ele>118.80000305176</ele>
        <time>2011-04-26T09:24:08.000Z</time>
      </trkpt>
      <trkpt lat="48.72825" lon="1.71075">
        <ele>119</ele>
        <time>2011-04-26T09:24:17.000Z</time>
      </trkpt>
      <trkpt lat="48.72815" lon="1.71066">
        <ele>119</ele>
        <time>2011-04-26T09:24:26.000Z</time>
      </trkpt>
      <trkpt lat="48.72805" lon="1.71061">
        <ele>119.19999694824</ele>
        <time>2011-04-26T09:24:33.000Z</time>
      </trkpt>
      <trkpt lat="48.72795" lon="1.71057">
        <ele>119.40000152588</ele>
        <time>2011-04-26T09:24:37.000Z</time>
      </trkpt>
      <trkpt lat="48.72784" lon="1.7105">
        <ele>119.40000152588</ele>
        <time>2011-04-26T09:24:42.000Z</time>
      </trkpt>
      <trkpt lat="48.72774" lon="1.71048">
        <ele>119.59999847412</ele>
        <time>2011-04-26T09:24:48.000Z</time>
      </trkpt>
      <trkpt lat="48.72772" lon="1.71048">
        <ele>119.59999847412</ele>
        <time>2011-04-26T09:24:53.000Z</time>
      </trkpt>
      <trkpt lat="48.72767" lon="1.71045">
        <ele>119.59999847412</ele>
        <time>2011-04-26T09:24:59.000Z</time>
      </trkpt>
      <trkpt lat="48.72767" lon="1.71044">
        <ele>119.59999847412</ele>
        <time>2011-04-26T09:25:00.000Z</time>
      </trkpt>
      <trkpt lat="48.72739" lon="1.71027">
        <ele>119.59999847412</ele>
        <time>2011-04-26T09:26:42.000Z</time>
      </trkpt>
      <trkpt lat="48.72733" lon="1.71026">
        <ele>119.59999847412</ele>
        <time>2011-04-26T09:26:48.000Z</time>
      </trkpt>
      <trkpt lat="48.72729" lon="1.71026">
        <ele>119.59999847412</ele>
        <time>2011-04-26T09:26:54.000Z</time>
      </trkpt>
      <trkpt lat="48.72725" lon="1.71025">
        <ele>119.59999847412</ele>
        <time>2011-04-26T09:26:59.000Z</time>
      </trkpt>
      <trkpt lat="48.72723" lon="1.71025">
        <ele>119.59999847412</ele>
        <time>2011-04-26T09:27:02.000Z</time>
      </trkpt>
      <trkpt lat="48.72706" lon="1.71021">
        <ele>119.59999847412</ele>
        <time>2011-04-26T09:27:43.000Z</time>
      </trkpt>
      <trkpt lat="48.72693" lon="1.71021">
        <ele>119.80000305176</ele>
        <time>2011-04-26T09:27:48.000Z</time>
      </trkpt>
      <trkpt lat="48.72676" lon="1.71019">
        <ele>119.80000305176</ele>
        <time>2011-04-26T09:27:53.000Z</time>
      </trkpt>
      <trkpt lat="48.72656" lon="1.71019">
        <ele>120</ele>
        <time>2011-04-26T09:27:59.000Z</time>
      </trkpt>
      <trkpt lat="48.72639" lon="1.71017">
        <ele>120.19999694824</ele>
        <time>2011-04-26T09:28:04.000Z</time>
      </trkpt>
      <trkpt lat="48.72619" lon="1.71014">
        <ele>120.40000152588</ele>
        <time>2011-04-26T09:28:10.000Z</time>
      </trkpt>
      <trkpt lat="48.72595" lon="1.71011">
        <ele>120.80000305176</ele>
        <time>2011-04-26T09:28:17.000Z</time>
      </trkpt>
      <trkpt lat="48.72581" lon="1.7101">
        <ele>121</ele>
        <time>2011-04-26T09:28:22.000Z</time>
      </trkpt>
      <trkpt lat="48.72566" lon="1.71014">
        <ele>121</ele>
        <time>2011-04-26T09:28:26.000Z</time>
      </trkpt>
      <trkpt lat="48.72545" lon="1.71023">
        <ele>121</ele>
        <time>2011-04-26T09:28:32.000Z</time>
      </trkpt>
      <trkpt lat="48.72527" lon="1.71031">
        <ele>121</ele>
        <time>2011-04-26T09:28:37.000Z</time>
      </trkpt>
      <trkpt lat="48.7251" lon="1.71038">
        <ele>121</ele>
        <time>2011-04-26T09:28:42.000Z</time>
      </trkpt>
      <trkpt lat="48.7249" lon="1.71045">
        <ele>120.80000305176</ele>
        <time>2011-04-26T09:28:48.000Z</time>
      </trkpt>
      <trkpt lat="48.7247" lon="1.7105">
        <ele>120.59999847412</ele>
        <time>2011-04-26T09:28:54.000Z</time>
      </trkpt>
      <trkpt lat="48.72446" lon="1.71059">
        <ele>120.19999694824</ele>
        <time>2011-04-26T09:29:01.000Z</time>
      </trkpt>
      <trkpt lat="48.72426" lon="1.71067">
        <ele>120</ele>
        <time>2011-04-26T09:29:07.000Z</time>
      </trkpt>
      <trkpt lat="48.72411" lon="1.71073">
        <ele>119.80000305176</ele>
        <time>2011-04-26T09:29:13.000Z</time>
      </trkpt>
      <trkpt lat="48.72401" lon="1.71075">
        <ele>119.80000305176</ele>
        <time>2011-04-26T09:29:17.000Z</time>
      </trkpt>
      <trkpt lat="48.72365" lon="1.71089">
        <ele>119.40000152588</ele>
        <time>2011-04-26T09:29:26.000Z</time>
      </trkpt>
      <trkpt lat="48.72358" lon="1.71092">
        <ele>119.40000152588</ele>
        <time>2011-04-26T09:29:28.000Z</time>
      </trkpt>
      <trkpt lat="48.72335" lon="1.71101">
        <ele>119.19999694824</ele>
        <time>2011-04-26T09:29:35.000Z</time>
      </trkpt>
      <trkpt lat="48.72317" lon="1.71108">
        <ele>119.40000152588</ele>
        <time>2011-04-26T09:29:40.000Z</time>
      </trkpt>
      <trkpt lat="48.72292" lon="1.71116">
        <ele>120.19999694824</ele>
        <time>2011-04-26T09:29:47.000Z</time>
      </trkpt>
      <trkpt lat="48.72274" lon="1.71124">
        <ele>120.80000305176</ele>
        <time>2011-04-26T09:29:52.000Z</time>
      </trkpt>
      <trkpt lat="48.72256" lon="1.71133">
        <ele>121.59999847412</ele>
        <time>2011-04-26T09:29:57.000Z</time>
      </trkpt>
      <trkpt lat="48.72235" lon="1.71141">
        <ele>122.19999694824</ele>
        <time>2011-04-26T09:30:03.000Z</time>
      </trkpt>
      <trkpt lat="48.72213" lon="1.71151">
        <ele>123</ele>
        <time>2011-04-26T09:30:09.000Z</time>
      </trkpt>
      <trkpt lat="48.72197" lon="1.71157">
        <ele>123.40000152588</ele>
        <time>2011-04-26T09:30:14.000Z</time>
      </trkpt>
      <trkpt lat="48.72183" lon="1.71162">
        <ele>123.59999847412</ele>
        <time>2011-04-26T09:30:20.000Z</time>
      </trkpt>
      <trkpt lat="48.72169" lon="1.71166">
        <ele>123.80000305176</ele>
        <time>2011-04-26T09:30:25.000Z</time>
      </trkpt>
      <trkpt lat="48.72162" lon="1.71169">
        <ele>124</ele>
        <time>2011-04-26T09:30:31.000Z</time>
      </trkpt>
      <trkpt lat="48.72155" lon="1.71171">
        <ele>124.19999694824</ele>
        <time>2011-04-26T09:30:36.000Z</time>
      </trkpt>
      <trkpt lat="48.7215" lon="1.71172">
        <ele>124.19999694824</ele>
        <time>2011-04-26T09:30:40.000Z</time>
      </trkpt>
      <trkpt lat="48.72138" lon="1.71179">
        <ele>124.59999847412</ele>
        <time>2011-04-26T09:30:48.000Z</time>
      </trkpt>
      <trkpt lat="48.72128" lon="1.71184">
        <ele>124.80000305176</ele>
        <time>2011-04-26T09:30:55.000Z</time>
      </trkpt>
      <trkpt lat="48.72117" lon="1.71187">
        <ele>125</ele>
        <time>2011-04-26T09:31:02.000Z</time>
      </trkpt>
      <trkpt lat="48.72104" lon="1.71195">
        <ele>125.19999694824</ele>
        <time>2011-04-26T09:31:10.000Z</time>
      </trkpt>
      <trkpt lat="48.721" lon="1.71196">
        <ele>125.19999694824</ele>
        <time>2011-04-26T09:31:14.000Z</time>
      </trkpt>
      <trkpt lat="48.72092" lon="1.71196">
        <ele>125.40000152588</ele>
        <time>2011-04-26T09:31:21.000Z</time>
      </trkpt>
      <trkpt lat="48.72089" lon="1.71197">
        <ele>125.40000152588</ele>
        <time>2011-04-26T09:31:23.000Z</time>
      </trkpt>
      <trkpt lat="48.72077" lon="1.71199">
        <ele>125.80000305176</ele>
        <time>2011-04-26T09:31:31.000Z</time>
      </trkpt>
      <trkpt lat="48.72064" lon="1.71206">
        <ele>126.19999694824</ele>
        <time>2011-04-26T09:31:41.000Z</time>
      </trkpt>
      <trkpt lat="48.72057" lon="1.71209">
        <ele>126.40000152588</ele>
        <time>2011-04-26T09:31:47.000Z</time>
      </trkpt>
      <trkpt lat="48.72048" lon="1.71213">
        <ele>126.80000305176</ele>
        <time>2011-04-26T09:31:54.000Z</time>
      </trkpt>
      <trkpt lat="48.72039" lon="1.71214">
        <ele>127.19999694824</ele>
        <time>2011-04-26T09:32:01.000Z</time>
      </trkpt>
      <trkpt lat="48.72031" lon="1.71218">
        <ele>127.40000152588</ele>
        <time>2011-04-26T09:32:07.000Z</time>
      </trkpt>
      <trkpt lat="48.72024" lon="1.71219">
        <ele>127.59999847412</ele>
        <time>2011-04-26T09:32:14.000Z</time>
      </trkpt>
      <trkpt lat="48.72022" lon="1.71219">
        <ele>127.80000305176</ele>
        <time>2011-04-26T09:32:15.000Z</time>
      </trkpt>
      <trkpt lat="48.72015" lon="1.71223">
        <ele>128</ele>
        <time>2011-04-26T09:32:20.000Z</time>
      </trkpt>
      <trkpt lat="48.72" lon="1.71227">
        <ele>128.39999389648</ele>
        <time>2011-04-26T09:32:29.000Z</time>
      </trkpt>
      <trkpt lat="48.71986" lon="1.71234">
        <ele>128.19999694824</ele>
        <time>2011-04-26T09:32:38.000Z</time>
      </trkpt>
      <trkpt lat="48.71984" lon="1.71236">
        <ele>128</ele>
        <time>2011-04-26T09:32:41.000Z</time>
      </trkpt>
      <trkpt lat="48.7198" lon="1.71238">
        <ele>128</ele>
        <time>2011-04-26T09:32:47.000Z</time>
      </trkpt>
      <trkpt lat="48.71972" lon="1.71237">
        <ele>127.80000305176</ele>
        <time>2011-04-26T09:32:53.000Z</time>
      </trkpt>
      <trkpt lat="48.71968" lon="1.71239">
        <ele>127.80000305176</ele>
        <time>2011-04-26T09:32:57.000Z</time>
      </trkpt>
      <trkpt lat="48.71961" lon="1.71241">
        <ele>127.59999847412</ele>
        <time>2011-04-26T09:33:02.000Z</time>
      </trkpt>
      <trkpt lat="48.71949" lon="1.71246">
        <ele>127.40000152588</ele>
        <time>2011-04-26T09:33:11.000Z</time>
      </trkpt>
      <trkpt lat="48.71936" lon="1.71249">
        <ele>127.19999694824</ele>
        <time>2011-04-26T09:33:20.000Z</time>
      </trkpt>
      <trkpt lat="48.71922" lon="1.71255">
        <ele>127</ele>
        <time>2011-04-26T09:33:30.000Z</time>
      </trkpt>
      <trkpt lat="48.7191" lon="1.7126">
        <ele>127</ele>
        <time>2011-04-26T09:33:38.000Z</time>
      </trkpt>
      <trkpt lat="48.71895" lon="1.71266">
        <ele>126.80000305176</ele>
        <time>2011-04-26T09:33:43.000Z</time>
      </trkpt>
      <trkpt lat="48.71878" lon="1.71272">
        <ele>126.80000305176</ele>
        <time>2011-04-26T09:33:49.000Z</time>
      </trkpt>
      <trkpt lat="48.71854" lon="1.7128">
        <ele>126.59999847412</ele>
        <time>2011-04-26T09:33:57.000Z</time>
      </trkpt>
      <trkpt lat="48.71839" lon="1.71288">
        <ele>126.40000152588</ele>
        <time>2011-04-26T09:34:02.000Z</time>
      </trkpt>
      <trkpt lat="48.71822" lon="1.71295">
        <ele>126.59999847412</ele>
        <time>2011-04-26T09:34:08.000Z</time>
      </trkpt>
      <trkpt lat="48.71804" lon="1.71299">
        <ele>127.19999694824</ele>
        <time>2011-04-26T09:34:14.000Z</time>
      </trkpt>
      <trkpt lat="48.71789" lon="1.71303">
        <ele>127.59999847412</ele>
        <time>2011-04-26T09:34:19.000Z</time>
      </trkpt>
      <trkpt lat="48.71763" lon="1.71312">
        <ele>128.60000610352</ele>
        <time>2011-04-26T09:34:27.000Z</time>
      </trkpt>
      <trkpt lat="48.71738" lon="1.7132">
        <ele>129.60000610352</ele>
        <time>2011-04-26T09:34:34.000Z</time>
      </trkpt>
      <trkpt lat="48.71715" lon="1.71331">
        <ele>130.60000610352</ele>
        <time>2011-04-26T09:34:41.000Z</time>
      </trkpt>
      <trkpt lat="48.71695" lon="1.71337">
        <ele>131.39999389648</ele>
        <time>2011-04-26T09:34:47.000Z</time>
      </trkpt>
      <trkpt lat="48.7167" lon="1.71347">
        <ele>132</ele>
        <time>2011-04-26T09:34:55.000Z</time>
      </trkpt>
      <trkpt lat="48.7165" lon="1.71355">
        <ele>132.39999389648</ele>
        <time>2011-04-26T09:35:01.000Z</time>
      </trkpt>
      <trkpt lat="48.71638" lon="1.7136">
        <ele>132.80000305176</ele>
        <time>2011-04-26T09:35:05.000Z</time>
      </trkpt>
      <trkpt lat="48.71618" lon="1.71367">
        <ele>133.39999389648</ele>
        <time>2011-04-26T09:35:11.000Z</time>
      </trkpt>
      <trkpt lat="48.71598" lon="1.71375">
        <ele>134</ele>
        <time>2011-04-26T09:35:17.000Z</time>
      </trkpt>
      <trkpt lat="48.71576" lon="1.71383">
        <ele>134.60000610352</ele>
        <time>2011-04-26T09:35:23.000Z</time>
      </trkpt>
      <trkpt lat="48.71551" lon="1.71392">
        <ele>134.80000305176</ele>
        <time>2011-04-26T09:35:29.000Z</time>
      </trkpt>
      <trkpt lat="48.71519" lon="1.71402">
        <ele>135.19999694824</ele>
        <time>2011-04-26T09:35:35.000Z</time>
      </trkpt>
      <trkpt lat="48.71503" lon="1.71409">
        <ele>135.60000610352</ele>
        <time>2011-04-26T09:35:38.000Z</time>
      </trkpt>
      <trkpt lat="48.71461" lon="1.71427">
        <ele>137</ele>
        <time>2011-04-26T09:35:46.000Z</time>
      </trkpt>
      <trkpt lat="48.7145" lon="1.71431">
        <ele>137.39999389648</ele>
        <time>2011-04-26T09:35:49.000Z</time>
      </trkpt>
      <trkpt lat="48.71435" lon="1.71436">
        <ele>138</ele>
        <time>2011-04-26T09:35:53.000Z</time>
      </trkpt>
      <trkpt lat="48.71406" lon="1.7145">
        <ele>139</ele>
        <time>2011-04-26T09:35:58.000Z</time>
      </trkpt>
      <trkpt lat="48.71373" lon="1.71464">
        <ele>140.39999389648</ele>
        <time>2011-04-26T09:36:04.000Z</time>
      </trkpt>
      <trkpt lat="48.71369" lon="1.71465">
        <ele>140.39999389648</ele>
        <time>2011-04-26T09:36:05.000Z</time>
      </trkpt>
      <trkpt lat="48.71344" lon="1.71473">
        <ele>141.19999694824</ele>
        <time>2011-04-26T09:36:10.000Z</time>
      </trkpt>
      <trkpt lat="48.71329" lon="1.71475">
        <ele>141.80000305176</ele>
        <time>2011-04-26T09:36:14.000Z</time>
      </trkpt>
      <trkpt lat="48.71316" lon="1.71485">
        <ele>142.60000610352</ele>
        <time>2011-04-26T09:36:19.000Z</time>
      </trkpt>
      <trkpt lat="48.71315" lon="1.71498">
        <ele>142.80000305176</ele>
        <time>2011-04-26T09:36:22.000Z</time>
      </trkpt>
      <trkpt lat="48.71313" lon="1.71529">
        <ele>143.19999694824</ele>
        <time>2011-04-26T09:36:28.000Z</time>
      </trkpt>
      <trkpt lat="48.71315" lon="1.71568">
        <ele>143.80000305176</ele>
        <time>2011-04-26T09:36:33.000Z</time>
      </trkpt>
      <trkpt lat="48.71316" lon="1.7161">
        <ele>144.80000305176</ele>
        <time>2011-04-26T09:36:39.000Z</time>
      </trkpt>
      <trkpt lat="48.71316" lon="1.71625">
        <ele>145.39999389648</ele>
        <time>2011-04-26T09:36:42.000Z</time>
      </trkpt>
      <trkpt lat="48.7132" lon="1.71667">
        <ele>146.60000610352</ele>
        <time>2011-04-26T09:36:50.000Z</time>
      </trkpt>
      <trkpt lat="48.71321" lon="1.71701">
        <ele>147.19999694824</ele>
        <time>2011-04-26T09:36:55.000Z</time>
      </trkpt>
      <trkpt lat="48.71322" lon="1.71739">
        <ele>147.60000610352</ele>
        <time>2011-04-26T09:37:00.000Z</time>
      </trkpt>
      <trkpt lat="48.71322" lon="1.71747">
        <ele>147.80000305176</ele>
        <time>2011-04-26T09:37:01.000Z</time>
      </trkpt>
      <trkpt lat="48.71326" lon="1.71782">
        <ele>148.80000305176</ele>
        <time>2011-04-26T09:37:06.000Z</time>
      </trkpt>
      <trkpt lat="48.71328" lon="1.71805">
        <ele>149.39999389648</ele>
        <time>2011-04-26T09:37:10.000Z</time>
      </trkpt>
      <trkpt lat="48.71329" lon="1.71816">
        <ele>149.80000305176</ele>
        <time>2011-04-26T09:37:12.000Z</time>
      </trkpt>
      <trkpt lat="48.71331" lon="1.71834">
        <ele>150.19999694824</ele>
        <time>2011-04-26T09:37:18.000Z</time>
      </trkpt>
      <trkpt lat="48.7133" lon="1.71839">
        <ele>150.19999694824</ele>
        <time>2011-04-26T09:37:20.000Z</time>
      </trkpt>
      <trkpt lat="48.71327" lon="1.7185">
        <ele>150.39999389648</ele>
        <time>2011-04-26T09:37:25.000Z</time>
      </trkpt>
      <trkpt lat="48.71325" lon="1.71862">
        <ele>150.60000610352</ele>
        <time>2011-04-26T09:37:31.000Z</time>
      </trkpt>
      <trkpt lat="48.71325" lon="1.71865">
        <ele>150.60000610352</ele>
        <time>2011-04-26T09:37:32.000Z</time>
      </trkpt>
      <trkpt lat="48.71324" lon="1.71872">
        <ele>150.60000610352</ele>
        <time>2011-04-26T09:37:35.000Z</time>
      </trkpt>
      <trkpt lat="48.71321" lon="1.71887">
        <ele>150.60000610352</ele>
        <time>2011-04-26T09:37:42.000Z</time>
      </trkpt>
      <trkpt lat="48.71319" lon="1.71904">
        <ele>150.60000610352</ele>
        <time>2011-04-26T09:37:50.000Z</time>
      </trkpt>
      <trkpt lat="48.71316" lon="1.71921">
        <ele>150.60000610352</ele>
        <time>2011-04-26T09:37:58.000Z</time>
      </trkpt>
      <trkpt lat="48.71315" lon="1.71939">
        <ele>150.39999389648</ele>
        <time>2011-04-26T09:38:05.000Z</time>
      </trkpt>
      <trkpt lat="48.71316" lon="1.71954">
        <ele>149.80000305176</ele>
        <time>2011-04-26T09:38:12.000Z</time>
      </trkpt>
      <trkpt lat="48.71324" lon="1.71965">
        <ele>148.80000305176</ele>
        <time>2011-04-26T09:38:19.000Z</time>
      </trkpt>
      <trkpt lat="48.71332" lon="1.71969">
        <ele>147.80000305176</ele>
        <time>2011-04-26T09:38:24.000Z</time>
      </trkpt>
      <trkpt lat="48.7134" lon="1.71975">
        <ele>147.39999389648</ele>
        <time>2011-04-26T09:38:29.000Z</time>
      </trkpt>
      <trkpt lat="48.71349" lon="1.71986">
        <ele>146.80000305176</ele>
        <time>2011-04-26T09:38:36.000Z</time>
      </trkpt>
      <trkpt lat="48.71359" lon="1.71997">
        <ele>146</ele>
        <time>2011-04-26T09:38:44.000Z</time>
      </trkpt>
      <trkpt lat="48.71366" lon="1.72">
        <ele>145.80000305176</ele>
        <time>2011-04-26T09:38:49.000Z</time>
      </trkpt>
      <trkpt lat="48.71374" lon="1.72008">
        <ele>145.80000305176</ele>
        <time>2011-04-26T09:38:56.000Z</time>
      </trkpt>
      <trkpt lat="48.7138" lon="1.72018">
        <ele>145.80000305176</ele>
        <time>2011-04-26T09:39:02.000Z</time>
      </trkpt>
      <trkpt lat="48.71385" lon="1.72022">
        <ele>145.60000610352</ele>
        <time>2011-04-26T09:39:05.000Z</time>
      </trkpt>
      <trkpt lat="48.71397" lon="1.72034">
        <ele>145</ele>
        <time>2011-04-26T09:39:14.000Z</time>
      </trkpt>
      <trkpt lat="48.71402" lon="1.72045">
        <ele>144.80000305176</ele>
        <time>2011-04-26T09:39:21.000Z</time>
      </trkpt>
      <trkpt lat="48.71412" lon="1.7206">
        <ele>143.60000610352</ele>
        <time>2011-04-26T09:39:29.000Z</time>
      </trkpt>
      <trkpt lat="48.71414" lon="1.72064">
        <ele>143.39999389648</ele>
        <time>2011-04-26T09:39:31.000Z</time>
      </trkpt>
      <trkpt lat="48.71416" lon="1.72076">
        <ele>143</ele>
        <time>2011-04-26T09:39:37.000Z</time>
      </trkpt>
      <trkpt lat="48.71422" lon="1.72085">
        <ele>142.60000610352</ele>
        <time>2011-04-26T09:39:41.000Z</time>
      </trkpt>
      <trkpt lat="48.71425" lon="1.72088">
        <ele>142.80000305176</ele>
        <time>2011-04-26T09:39:43.000Z</time>
      </trkpt>
      <trkpt lat="48.71424" lon="1.72095">
        <ele>143</ele>
        <time>2011-04-26T09:39:47.000Z</time>
      </trkpt>
      <trkpt lat="48.71426" lon="1.72101">
        <ele>143.19999694824</ele>
        <time>2011-04-26T09:39:50.000Z</time>
      </trkpt>
      <trkpt lat="48.71429" lon="1.72118">
        <ele>143.60000610352</ele>
        <time>2011-04-26T09:39:58.000Z</time>
      </trkpt>
      <trkpt lat="48.7143" lon="1.72127">
        <ele>144</ele>
        <time>2011-04-26T09:40:02.000Z</time>
      </trkpt>
      <trkpt lat="48.71432" lon="1.72146">
        <ele>144.39999389648</ele>
        <time>2011-04-26T09:40:09.000Z</time>
      </trkpt>
      <trkpt lat="48.71435" lon="1.72161">
        <ele>144.80000305176</ele>
        <time>2011-04-26T09:40:16.000Z</time>
      </trkpt>
      <trkpt lat="48.71436" lon="1.72163">
        <ele>144.80000305176</ele>
        <time>2011-04-26T09:40:17.000Z</time>
      </trkpt>
      <trkpt lat="48.71442" lon="1.72169">
        <ele>144</ele>
        <time>2011-04-26T09:40:21.000Z</time>
      </trkpt>
      <trkpt lat="48.7145" lon="1.72177">
        <ele>143</ele>
        <time>2011-04-26T09:40:27.000Z</time>
      </trkpt>
      <trkpt lat="48.71452" lon="1.7218">
        <ele>142.60000610352</ele>
        <time>2011-04-26T09:40:29.000Z</time>
      </trkpt>
      <trkpt lat="48.71461" lon="1.72189">
        <ele>141.39999389648</ele>
        <time>2011-04-26T09:40:36.000Z</time>
      </trkpt>
      <trkpt lat="48.71463" lon="1.7219">
        <ele>141.19999694824</ele>
        <time>2011-04-26T09:40:37.000Z</time>
      </trkpt>
      <trkpt lat="48.71471" lon="1.72204">
        <ele>140.19999694824</ele>
        <time>2011-04-26T09:40:45.000Z</time>
      </trkpt>
      <trkpt lat="48.71475" lon="1.72218">
        <ele>139.39999389648</ele>
        <time>2011-04-26T09:40:52.000Z</time>
      </trkpt>
      <trkpt lat="48.71479" lon="1.72231">
        <ele>138.80000305176</ele>
        <time>2011-04-26T09:40:57.000Z</time>
      </trkpt>
      <trkpt lat="48.71482" lon="1.72246">
        <ele>138.19999694824</ele>
        <time>2011-04-26T09:41:04.000Z</time>
      </trkpt>
      <trkpt lat="48.71485" lon="1.72263">
        <ele>138</ele>
        <time>2011-04-26T09:41:11.000Z</time>
      </trkpt>
      <trkpt lat="48.71487" lon="1.72285">
        <ele>138.19999694824</ele>
        <time>2011-04-26T09:41:16.000Z</time>
      </trkpt>
      <trkpt lat="48.71488" lon="1.72319">
        <ele>138.39999389648</ele>
        <time>2011-04-26T09:41:23.000Z</time>
      </trkpt>
      <trkpt lat="48.71487" lon="1.72348">
        <ele>138.80000305176</ele>
        <time>2011-04-26T09:41:29.000Z</time>
      </trkpt>
      <trkpt lat="48.71487" lon="1.72373">
        <ele>139.19999694824</ele>
        <time>2011-04-26T09:41:34.000Z</time>
      </trkpt>
      <trkpt lat="48.71488" lon="1.72409">
        <ele>139.60000610352</ele>
        <time>2011-04-26T09:41:41.000Z</time>
      </trkpt>
      <trkpt lat="48.7149" lon="1.7244">
        <ele>140</ele>
        <time>2011-04-26T09:41:47.000Z</time>
      </trkpt>
      <trkpt lat="48.71493" lon="1.72476">
        <ele>140.80000305176</ele>
        <time>2011-04-26T09:41:54.000Z</time>
      </trkpt>
      <trkpt lat="48.71497" lon="1.72495">
        <ele>141</ele>
        <time>2011-04-26T09:41:58.000Z</time>
      </trkpt>
      <trkpt lat="48.71499" lon="1.72527">
        <ele>141.39999389648</ele>
        <time>2011-04-26T09:42:04.000Z</time>
      </trkpt>
      <trkpt lat="48.71501" lon="1.72546">
        <ele>141.39999389648</ele>
        <time>2011-04-26T09:42:08.000Z</time>
      </trkpt>
      <trkpt lat="48.71505" lon="1.72577">
        <ele>141.60000610352</ele>
        <time>2011-04-26T09:42:14.000Z</time>
      </trkpt>
      <trkpt lat="48.71508" lon="1.72604">
        <ele>142</ele>
        <time>2011-04-26T09:42:19.000Z</time>
      </trkpt>
      <trkpt lat="48.71514" lon="1.72635">
        <ele>142.39999389648</ele>
        <time>2011-04-26T09:42:25.000Z</time>
      </trkpt>
      <trkpt lat="48.71523" lon="1.72665">
        <ele>142.80000305176</ele>
        <time>2011-04-26T09:42:31.000Z</time>
      </trkpt>
      <trkpt lat="48.71531" lon="1.7269">
        <ele>142.80000305176</ele>
        <time>2011-04-26T09:42:36.000Z</time>
      </trkpt>
      <trkpt lat="48.71541" lon="1.72712">
        <ele>142.80000305176</ele>
        <time>2011-04-26T09:42:41.000Z</time>
      </trkpt>
      <trkpt lat="48.71552" lon="1.72738">
        <ele>142.60000610352</ele>
        <time>2011-04-26T09:42:47.000Z</time>
      </trkpt>
      <trkpt lat="48.71564" lon="1.72762">
        <ele>142</ele>
        <time>2011-04-26T09:42:53.000Z</time>
      </trkpt>
      <trkpt lat="48.71577" lon="1.7279">
        <ele>140.80000305176</ele>
        <time>2011-04-26T09:43:00.000Z</time>
      </trkpt>
      <trkpt lat="48.71587" lon="1.72811">
        <ele>140</ele>
        <time>2011-04-26T09:43:05.000Z</time>
      </trkpt>
      <trkpt lat="48.71601" lon="1.72836">
        <ele>139.19999694824</ele>
        <time>2011-04-26T09:43:11.000Z</time>
      </trkpt>
      <trkpt lat="48.71612" lon="1.72862">
        <ele>139</ele>
        <time>2011-04-26T09:43:17.000Z</time>
      </trkpt>
      <trkpt lat="48.71626" lon="1.72888">
        <ele>138.60000610352</ele>
        <time>2011-04-26T09:43:24.000Z</time>
      </trkpt>
      <trkpt lat="48.71635" lon="1.72909">
        <ele>138.39999389648</ele>
        <time>2011-04-26T09:43:29.000Z</time>
      </trkpt>
      <trkpt lat="48.71646" lon="1.72937">
        <ele>138.19999694824</ele>
        <time>2011-04-26T09:43:36.000Z</time>
      </trkpt>
      <trkpt lat="48.71657" lon="1.72962">
        <ele>138</ele>
        <time>2011-04-26T09:43:42.000Z</time>
      </trkpt>
      <trkpt lat="48.71668" lon="1.72987">
        <ele>137.60000610352</ele>
        <time>2011-04-26T09:43:48.000Z</time>
      </trkpt>
      <trkpt lat="48.71674" lon="1.73013">
        <ele>137.60000610352</ele>
        <time>2011-04-26T09:43:54.000Z</time>
      </trkpt>
      <trkpt lat="48.71677" lon="1.7304">
        <ele>137.80000305176</ele>
        <time>2011-04-26T09:43:59.000Z</time>
      </trkpt>
      <trkpt lat="48.71681" lon="1.73072">
        <ele>138</ele>
        <time>2011-04-26T09:44:05.000Z</time>
      </trkpt>
      <trkpt lat="48.71684" lon="1.73098">
        <ele>137.80000305176</ele>
        <time>2011-04-26T09:44:10.000Z</time>
      </trkpt>
      <trkpt lat="48.71689" lon="1.73131">
        <ele>136.80000305176</ele>
        <time>2011-04-26T09:44:16.000Z</time>
      </trkpt>
      <trkpt lat="48.71694" lon="1.73165">
        <ele>136</ele>
        <time>2011-04-26T09:44:23.000Z</time>
      </trkpt>
      <trkpt lat="48.717" lon="1.73205">
        <ele>136</ele>
        <time>2011-04-26T09:44:31.000Z</time>
      </trkpt>
      <trkpt lat="48.71706" lon="1.73244">
        <ele>136</ele>
        <time>2011-04-26T09:44:38.000Z</time>
      </trkpt>
      <trkpt lat="48.71711" lon="1.73284">
        <ele>136</ele>
        <time>2011-04-26T09:44:45.000Z</time>
      </trkpt>
      <trkpt lat="48.71716" lon="1.73312">
        <ele>136</ele>
        <time>2011-04-26T09:44:50.000Z</time>
      </trkpt>
      <trkpt lat="48.71723" lon="1.73342">
        <ele>136</ele>
        <time>2011-04-26T09:44:56.000Z</time>
      </trkpt>
      <trkpt lat="48.71731" lon="1.73367">
        <ele>136.39999389648</ele>
        <time>2011-04-26T09:45:01.000Z</time>
      </trkpt>
      <trkpt lat="48.71739" lon="1.73395">
        <ele>136.80000305176</ele>
        <time>2011-04-26T09:45:07.000Z</time>
      </trkpt>
      <trkpt lat="48.71745" lon="1.73423">
        <ele>137</ele>
        <time>2011-04-26T09:45:13.000Z</time>
      </trkpt>
      <trkpt lat="48.71748" lon="1.7344">
        <ele>137</ele>
        <time>2011-04-26T09:45:17.000Z</time>
      </trkpt>
      <trkpt lat="48.71752" lon="1.73461">
        <ele>136.80000305176</ele>
        <time>2011-04-26T09:45:22.000Z</time>
      </trkpt>
      <trkpt lat="48.71755" lon="1.73482">
        <ele>136.60000610352</ele>
        <time>2011-04-26T09:45:27.000Z</time>
      </trkpt>
      <trkpt lat="48.71761" lon="1.73499">
        <ele>136.60000610352</ele>
        <time>2011-04-26T09:45:31.000Z</time>
      </trkpt>
      <trkpt lat="48.71764" lon="1.73516">
        <ele>137</ele>
        <time>2011-04-26T09:45:35.000Z</time>
      </trkpt>
      <trkpt lat="48.71772" lon="1.73554">
        <ele>137.80000305176</ele>
        <time>2011-04-26T09:45:43.000Z</time>
      </trkpt>
      <trkpt lat="48.71777" lon="1.73582">
        <ele>138.60000610352</ele>
        <time>2011-04-26T09:45:49.000Z</time>
      </trkpt>
      <trkpt lat="48.71777" lon="1.7361">
        <ele>138.80000305176</ele>
        <time>2011-04-26T09:45:55.000Z</time>
      </trkpt>
      <trkpt lat="48.71779" lon="1.73639">
        <ele>139</ele>
        <time>2011-04-26T09:46:01.000Z</time>
      </trkpt>
      <trkpt lat="48.71781" lon="1.73657">
        <ele>139</ele>
        <time>2011-04-26T09:46:06.000Z</time>
      </trkpt>
      <trkpt lat="48.71784" lon="1.73668">
        <ele>139</ele>
        <time>2011-04-26T09:46:11.000Z</time>
      </trkpt>
      <trkpt lat="48.71788" lon="1.73687">
        <ele>138.39999389648</ele>
        <time>2011-04-26T09:46:19.000Z</time>
      </trkpt>
      <trkpt lat="48.71793" lon="1.73705">
        <ele>138</ele>
        <time>2011-04-26T09:46:28.000Z</time>
      </trkpt>
      <trkpt lat="48.71796" lon="1.73719">
        <ele>137.60000610352</ele>
        <time>2011-04-26T09:46:34.000Z</time>
      </trkpt>
      <trkpt lat="48.71799" lon="1.73733">
        <ele>137.19999694824</ele>
        <time>2011-04-26T09:46:40.000Z</time>
      </trkpt>
      <trkpt lat="48.71801" lon="1.73746">
        <ele>137</ele>
        <time>2011-04-26T09:46:46.000Z</time>
      </trkpt>
      <trkpt lat="48.71805" lon="1.73757">
        <ele>136.80000305176</ele>
        <time>2011-04-26T09:46:51.000Z</time>
      </trkpt>
      <trkpt lat="48.71811" lon="1.73775">
        <ele>136.80000305176</ele>
        <time>2011-04-26T09:46:59.000Z</time>
      </trkpt>
      <trkpt lat="48.71817" lon="1.73792">
        <ele>136.80000305176</ele>
        <time>2011-04-26T09:47:07.000Z</time>
      </trkpt>
      <trkpt lat="48.71821" lon="1.73808">
        <ele>136.80000305176</ele>
        <time>2011-04-26T09:47:14.000Z</time>
      </trkpt>
      <trkpt lat="48.71827" lon="1.73815">
        <ele>136.80000305176</ele>
        <time>2011-04-26T09:47:20.000Z</time>
      </trkpt>
      <trkpt lat="48.71827" lon="1.73815">
        <ele>136.80000305176</ele>
        <time>2011-04-26T09:47:21.000Z</time>
      </trkpt>
      <trkpt lat="48.71829" lon="1.73821">
        <ele>136.80000305176</ele>
        <time>2011-04-26T09:47:29.000Z</time>
      </trkpt>
      <trkpt lat="48.71834" lon="1.73835">
        <ele>136.80000305176</ele>
        <time>2011-04-26T09:47:35.000Z</time>
      </trkpt>
      <trkpt lat="48.71834" lon="1.73837">
        <ele>136.80000305176</ele>
        <time>2011-04-26T09:47:36.000Z</time>
      </trkpt>
      <trkpt lat="48.71837" lon="1.73847">
        <ele>136.60000610352</ele>
        <time>2011-04-26T09:47:41.000Z</time>
      </trkpt>
      <trkpt lat="48.71841" lon="1.73858">
        <ele>136.39999389648</ele>
        <time>2011-04-26T09:47:47.000Z</time>
      </trkpt>
      <trkpt lat="48.71843" lon="1.73867">
        <ele>136.19999694824</ele>
        <time>2011-04-26T09:47:52.000Z</time>
      </trkpt>
      <trkpt lat="48.71845" lon="1.73878">
        <ele>136</ele>
        <time>2011-04-26T09:47:57.000Z</time>
      </trkpt>
      <trkpt lat="48.71847" lon="1.73889">
        <ele>136</ele>
        <time>2011-04-26T09:48:03.000Z</time>
      </trkpt>
      <trkpt lat="48.71853" lon="1.739">
        <ele>135.60000610352</ele>
        <time>2011-04-26T09:48:09.000Z</time>
      </trkpt>
      <trkpt lat="48.71858" lon="1.73912">
        <ele>135.39999389648</ele>
        <time>2011-04-26T09:48:15.000Z</time>
      </trkpt>
      <trkpt lat="48.71866" lon="1.73932">
        <ele>135.60000610352</ele>
        <time>2011-04-26T09:48:25.000Z</time>
      </trkpt>
      <trkpt lat="48.71869" lon="1.7394">
        <ele>135.60000610352</ele>
        <time>2011-04-26T09:48:29.000Z</time>
      </trkpt>
      <trkpt lat="48.71871" lon="1.73951">
        <ele>135.80000305176</ele>
        <time>2011-04-26T09:48:36.000Z</time>
      </trkpt>
      <trkpt lat="48.71871" lon="1.73953">
        <ele>136</ele>
        <time>2011-04-26T09:48:37.000Z</time>
      </trkpt>
      <trkpt lat="48.71877" lon="1.73976">
        <ele>136.19999694824</ele>
        <time>2011-04-26T09:48:47.000Z</time>
      </trkpt>
      <trkpt lat="48.71877" lon="1.73985">
        <ele>136.39999389648</ele>
        <time>2011-04-26T09:48:51.000Z</time>
      </trkpt>
      <trkpt lat="48.71879" lon="1.73993">
        <ele>136.60000610352</ele>
        <time>2011-04-26T09:48:55.000Z</time>
      </trkpt>
      <trkpt lat="48.71883" lon="1.74003">
        <ele>136.60000610352</ele>
        <time>2011-04-26T09:49:00.000Z</time>
      </trkpt>
      <trkpt lat="48.71887" lon="1.74017">
        <ele>137</ele>
        <time>2011-04-26T09:49:07.000Z</time>
      </trkpt>
      <trkpt lat="48.71891" lon="1.7403">
        <ele>137.19999694824</ele>
        <time>2011-04-26T09:49:13.000Z</time>
      </trkpt>
      <trkpt lat="48.71896" lon="1.7404">
        <ele>137.19999694824</ele>
        <time>2011-04-26T09:49:18.000Z</time>
      </trkpt>
      <trkpt lat="48.71901" lon="1.74051">
        <ele>137.19999694824</ele>
        <time>2011-04-26T09:49:23.000Z</time>
      </trkpt>
      <trkpt lat="48.71906" lon="1.74065">
        <ele>137.19999694824</ele>
        <time>2011-04-26T09:49:29.000Z</time>
      </trkpt>
      <trkpt lat="48.71909" lon="1.74083">
        <ele>137.60000610352</ele>
        <time>2011-04-26T09:49:36.000Z</time>
      </trkpt>
      <trkpt lat="48.71913" lon="1.74097">
        <ele>137</ele>
        <time>2011-04-26T09:49:42.000Z</time>
      </trkpt>
      <trkpt lat="48.71917" lon="1.74115">
        <ele>136.60000610352</ele>
        <time>2011-04-26T09:49:50.000Z</time>
      </trkpt>
      <trkpt lat="48.71921" lon="1.74131">
        <ele>136.19999694824</ele>
        <time>2011-04-26T09:49:58.000Z</time>
      </trkpt>
      <trkpt lat="48.7192" lon="1.74135">
        <ele>136.19999694824</ele>
        <time>2011-04-26T09:50:03.000Z</time>
      </trkpt>
      <trkpt lat="48.71924" lon="1.74146">
        <ele>135.80000305176</ele>
        <time>2011-04-26T09:50:09.000Z</time>
      </trkpt>
      <trkpt lat="48.71931" lon="1.74158">
        <ele>135.39999389648</ele>
        <time>2011-04-26T09:50:15.000Z</time>
      </trkpt>
      <trkpt lat="48.71939" lon="1.74176">
        <ele>135.60000610352</ele>
        <time>2011-04-26T09:50:23.000Z</time>
      </trkpt>
      <trkpt lat="48.71939" lon="1.74178">
        <ele>135.80000305176</ele>
        <time>2011-04-26T09:50:24.000Z</time>
      </trkpt>
      <trkpt lat="48.71941" lon="1.74194">
        <ele>136.60000610352</ele>
        <time>2011-04-26T09:50:31.000Z</time>
      </trkpt>
      <trkpt lat="48.71943" lon="1.7421">
        <ele>137.60000610352</ele>
        <time>2011-04-26T09:50:38.000Z</time>
      </trkpt>
      <trkpt lat="48.71944" lon="1.74215">
        <ele>137.80000305176</ele>
        <time>2011-04-26T09:50:40.000Z</time>
      </trkpt>
      <trkpt lat="48.71949" lon="1.74229">
        <ele>138.39999389648</ele>
        <time>2011-04-26T09:50:46.000Z</time>
      </trkpt>
      <trkpt lat="48.71951" lon="1.74233">
        <ele>138.60000610352</ele>
        <time>2011-04-26T09:50:48.000Z</time>
      </trkpt>
      <trkpt lat="48.71954" lon="1.74245">
        <ele>139.19999694824</ele>
        <time>2011-04-26T09:50:53.000Z</time>
      </trkpt>
      <trkpt lat="48.7196" lon="1.74259">
        <ele>139.60000610352</ele>
        <time>2011-04-26T09:51:00.000Z</time>
      </trkpt>
      <trkpt lat="48.71964" lon="1.74274">
        <ele>139.80000305176</ele>
        <time>2011-04-26T09:51:07.000Z</time>
      </trkpt>
      <trkpt lat="48.71967" lon="1.74294">
        <ele>140</ele>
        <time>2011-04-26T09:51:15.000Z</time>
      </trkpt>
      <trkpt lat="48.71967" lon="1.74296">
        <ele>140.19999694824</ele>
        <time>2011-04-26T09:51:16.000Z</time>
      </trkpt>
      <trkpt lat="48.71969" lon="1.74309">
        <ele>140.19999694824</ele>
        <time>2011-04-26T09:51:21.000Z</time>
      </trkpt>
      <trkpt lat="48.71971" lon="1.74319">
        <ele>140.39999389648</ele>
        <time>2011-04-26T09:51:25.000Z</time>
      </trkpt>
      <trkpt lat="48.71971" lon="1.74342">
        <ele>140.60000610352</ele>
        <time>2011-04-26T09:51:34.000Z</time>
      </trkpt>
      <trkpt lat="48.71971" lon="1.74366">
        <ele>140.39999389648</ele>
        <time>2011-04-26T09:51:43.000Z</time>
      </trkpt>
      <trkpt lat="48.71973" lon="1.74388">
        <ele>140</ele>
        <time>2011-04-26T09:51:52.000Z</time>
      </trkpt>
      <trkpt lat="48.71974" lon="1.7441">
        <ele>139.80000305176</ele>
        <time>2011-04-26T09:52:01.000Z</time>
      </trkpt>
      <trkpt lat="48.71974" lon="1.74432">
        <ele>139.60000610352</ele>
        <time>2011-04-26T09:52:10.000Z</time>
      </trkpt>
      <trkpt lat="48.71975" lon="1.74455">
        <ele>139</ele>
        <time>2011-04-26T09:52:20.000Z</time>
      </trkpt>
      <trkpt lat="48.71977" lon="1.74483">
        <ele>138.60000610352</ele>
        <time>2011-04-26T09:52:31.000Z</time>
      </trkpt>
      <trkpt lat="48.71979" lon="1.74506">
        <ele>138.19999694824</ele>
        <time>2011-04-26T09:52:41.000Z</time>
      </trkpt>
      <trkpt lat="48.71979" lon="1.74522">
        <ele>138.60000610352</ele>
        <time>2011-04-26T09:52:49.000Z</time>
      </trkpt>
      <trkpt lat="48.7198" lon="1.74523">
        <ele>138.60000610352</ele>
        <time>2011-04-26T09:52:52.000Z</time>
      </trkpt>
      <trkpt lat="48.71986" lon="1.74531">
        <ele>138.39999389648</ele>
        <time>2011-04-26T09:53:09.000Z</time>
      </trkpt>
      <trkpt lat="48.71985" lon="1.74551">
        <ele>138.80000305176</ele>
        <time>2011-04-26T09:53:17.000Z</time>
      </trkpt>
      <trkpt lat="48.71985" lon="1.74564">
        <ele>139.19999694824</ele>
        <time>2011-04-26T09:53:23.000Z</time>
      </trkpt>
      <trkpt lat="48.71984" lon="1.74572">
        <ele>139.39999389648</ele>
        <time>2011-04-26T09:53:26.000Z</time>
      </trkpt>
      <trkpt lat="48.71985" lon="1.74595">
        <ele>139.80000305176</ele>
        <time>2011-04-26T09:53:35.000Z</time>
      </trkpt>
      <trkpt lat="48.71985" lon="1.74612">
        <ele>140</ele>
        <time>2011-04-26T09:53:42.000Z</time>
      </trkpt>
      <trkpt lat="48.71985" lon="1.74628">
        <ele>140.19999694824</ele>
        <time>2011-04-26T09:53:49.000Z</time>
      </trkpt>
      <trkpt lat="48.71986" lon="1.74646">
        <ele>140.39999389648</ele>
        <time>2011-04-26T09:53:57.000Z</time>
      </trkpt>
      <trkpt lat="48.71986" lon="1.7466">
        <ele>140.60000610352</ele>
        <time>2011-04-26T09:54:03.000Z</time>
      </trkpt>
      <trkpt lat="48.71987" lon="1.74677">
        <ele>140.80000305176</ele>
        <time>2011-04-26T09:54:10.000Z</time>
      </trkpt>
      <trkpt lat="48.71988" lon="1.74684">
        <ele>140.80000305176</ele>
        <time>2011-04-26T09:54:13.000Z</time>
      </trkpt>
      <trkpt lat="48.71992" lon="1.74699">
        <ele>140.80000305176</ele>
        <time>2011-04-26T09:54:20.000Z</time>
      </trkpt>
      <trkpt lat="48.71991" lon="1.74704">
        <ele>140.80000305176</ele>
        <time>2011-04-26T09:54:22.000Z</time>
      </trkpt>
      <trkpt lat="48.7199" lon="1.7472">
        <ele>141.19999694824</ele>
        <time>2011-04-26T09:54:29.000Z</time>
      </trkpt>
      <trkpt lat="48.71987" lon="1.74734">
        <ele>141.60000610352</ele>
        <time>2011-04-26T09:54:35.000Z</time>
      </trkpt>
      <trkpt lat="48.71988" lon="1.74751">
        <ele>141.60000610352</ele>
        <time>2011-04-26T09:54:43.000Z</time>
      </trkpt>
      <trkpt lat="48.71986" lon="1.74768">
        <ele>141.80000305176</ele>
        <time>2011-04-26T09:54:51.000Z</time>
      </trkpt>
      <trkpt lat="48.71986" lon="1.7477">
        <ele>141.80000305176</ele>
        <time>2011-04-26T09:54:52.000Z</time>
      </trkpt>
      <trkpt lat="48.71983" lon="1.74782">
        <ele>142</ele>
        <time>2011-04-26T09:54:59.000Z</time>
      </trkpt>
      <trkpt lat="48.71983" lon="1.74784">
        <ele>142</ele>
        <time>2011-04-26T09:55:00.000Z</time>
      </trkpt>
      <trkpt lat="48.71982" lon="1.74796">
        <ele>142.19999694824</ele>
        <time>2011-04-26T09:55:05.000Z</time>
      </trkpt>
      <trkpt lat="48.71983" lon="1.74806">
        <ele>142.19999694824</ele>
        <time>2011-04-26T09:55:10.000Z</time>
      </trkpt>
      <trkpt lat="48.71982" lon="1.74817">
        <ele>142.19999694824</ele>
        <time>2011-04-26T09:55:15.000Z</time>
      </trkpt>
      <trkpt lat="48.71981" lon="1.74822">
        <ele>142.19999694824</ele>
        <time>2011-04-26T09:55:17.000Z</time>
      </trkpt>
      <trkpt lat="48.71979" lon="1.74836">
        <ele>142.39999389648</ele>
        <time>2011-04-26T09:55:23.000Z</time>
      </trkpt>
      <trkpt lat="48.71977" lon="1.74852">
        <ele>142.19999694824</ele>
        <time>2011-04-26T09:55:30.000Z</time>
      </trkpt>
      <trkpt lat="48.71977" lon="1.74855">
        <ele>142.19999694824</ele>
        <time>2011-04-26T09:55:31.000Z</time>
      </trkpt>
      <trkpt lat="48.71973" lon="1.74871">
        <ele>142.19999694824</ele>
        <time>2011-04-26T09:55:38.000Z</time>
      </trkpt>
      <trkpt lat="48.71972" lon="1.74883">
        <ele>142.19999694824</ele>
        <time>2011-04-26T09:55:44.000Z</time>
      </trkpt>
      <trkpt lat="48.71971" lon="1.7489">
        <ele>142.19999694824</ele>
        <time>2011-04-26T09:55:47.000Z</time>
      </trkpt>
      <trkpt lat="48.71967" lon="1.74898">
        <ele>142.19999694824</ele>
        <time>2011-04-26T09:55:52.000Z</time>
      </trkpt>
      <trkpt lat="48.71963" lon="1.74907">
        <ele>142.39999389648</ele>
        <time>2011-04-26T09:55:56.000Z</time>
      </trkpt>
      <trkpt lat="48.71957" lon="1.74923">
        <ele>142.39999389648</ele>
        <time>2011-04-26T09:56:03.000Z</time>
      </trkpt>
      <trkpt lat="48.71952" lon="1.74936">
        <ele>142.80000305176</ele>
        <time>2011-04-26T09:56:09.000Z</time>
      </trkpt>
      <trkpt lat="48.71948" lon="1.74955">
        <ele>143.19999694824</ele>
        <time>2011-04-26T09:56:17.000Z</time>
      </trkpt>
      <trkpt lat="48.71944" lon="1.74969">
        <ele>143.60000610352</ele>
        <time>2011-04-26T09:56:24.000Z</time>
      </trkpt>
      <trkpt lat="48.7194" lon="1.74981">
        <ele>144</ele>
        <time>2011-04-26T09:56:32.000Z</time>
      </trkpt>
      <trkpt lat="48.71935" lon="1.74993">
        <ele>144.39999389648</ele>
        <time>2011-04-26T09:56:38.000Z</time>
      </trkpt>
      <trkpt lat="48.71929" lon="1.7501">
        <ele>144.80000305176</ele>
        <time>2011-04-26T09:56:46.000Z</time>
      </trkpt>
      <trkpt lat="48.7192" lon="1.75024">
        <ele>145</ele>
        <time>2011-04-26T09:56:54.000Z</time>
      </trkpt>
      <trkpt lat="48.71911" lon="1.75035">
        <ele>145</ele>
        <time>2011-04-26T09:57:02.000Z</time>
      </trkpt>
      <trkpt lat="48.71907" lon="1.75039">
        <ele>144.80000305176</ele>
        <time>2011-04-26T09:57:08.000Z</time>
      </trkpt>
      <trkpt lat="48.71905" lon="1.75046">
        <ele>144.60000610352</ele>
        <time>2011-04-26T09:57:13.000Z</time>
      </trkpt>
      <trkpt lat="48.719" lon="1.7506">
        <ele>144.39999389648</ele>
        <time>2011-04-26T09:57:20.000Z</time>
      </trkpt>
      <trkpt lat="48.71897" lon="1.75077">
        <ele>144</ele>
        <time>2011-04-26T09:57:28.000Z</time>
      </trkpt>
      <trkpt lat="48.71897" lon="1.75095">
        <ele>143.60000610352</ele>
        <time>2011-04-26T09:57:36.000Z</time>
      </trkpt>
      <trkpt lat="48.71897" lon="1.75107">
        <ele>143.39999389648</ele>
        <time>2011-04-26T09:57:42.000Z</time>
      </trkpt>
      <trkpt lat="48.71896" lon="1.75121">
        <ele>143</ele>
        <time>2011-04-26T09:57:49.000Z</time>
      </trkpt>
      <trkpt lat="48.71896" lon="1.75131">
        <ele>142.80000305176</ele>
        <time>2011-04-26T09:57:54.000Z</time>
      </trkpt>
      <trkpt lat="48.71891" lon="1.75154">
        <ele>142.39999389648</ele>
        <time>2011-04-26T09:58:05.000Z</time>
      </trkpt>
      <trkpt lat="48.71889" lon="1.75169">
        <ele>142.19999694824</ele>
        <time>2011-04-26T09:58:12.000Z</time>
      </trkpt>
      <trkpt lat="48.71886" lon="1.75183">
        <ele>142.80000305176</ele>
        <time>2011-04-26T09:58:19.000Z</time>
      </trkpt>
      <trkpt lat="48.71883" lon="1.75197">
        <ele>143.19999694824</ele>
        <time>2011-04-26T09:58:26.000Z</time>
      </trkpt>
      <trkpt lat="48.7188" lon="1.75211">
        <ele>143.60000610352</ele>
        <time>2011-04-26T09:58:33.000Z</time>
      </trkpt>
      <trkpt lat="48.71879" lon="1.75226">
        <ele>143.80000305176</ele>
        <time>2011-04-26T09:58:40.000Z</time>
      </trkpt>
      <trkpt lat="48.71874" lon="1.75242">
        <ele>144.19999694824</ele>
        <time>2011-04-26T09:58:48.000Z</time>
      </trkpt>
      <trkpt lat="48.71868" lon="1.75261">
        <ele>144.39999389648</ele>
        <time>2011-04-26T09:58:57.000Z</time>
      </trkpt>
      <trkpt lat="48.71862" lon="1.75284">
        <ele>144.19999694824</ele>
        <time>2011-04-26T09:59:08.000Z</time>
      </trkpt>
      <trkpt lat="48.71857" lon="1.75304">
        <ele>144</ele>
        <time>2011-04-26T09:59:17.000Z</time>
      </trkpt>
      <trkpt lat="48.71854" lon="1.75309">
        <ele>144</ele>
        <time>2011-04-26T09:59:20.000Z</time>
      </trkpt>
      <trkpt lat="48.71852" lon="1.75317">
        <ele>143.80000305176</ele>
        <time>2011-04-26T09:59:24.000Z</time>
      </trkpt>
      <trkpt lat="48.71852" lon="1.75326">
        <ele>143.80000305176</ele>
        <time>2011-04-26T09:59:28.000Z</time>
      </trkpt>
      <trkpt lat="48.71844" lon="1.75332">
        <ele>143.80000305176</ele>
        <time>2011-04-26T09:59:35.000Z</time>
      </trkpt>
      <trkpt lat="48.71841" lon="1.75333">
        <ele>143.80000305176</ele>
        <time>2011-04-26T09:59:37.000Z</time>
      </trkpt>
      <trkpt lat="48.71833" lon="1.75325">
        <ele>144</ele>
        <time>2011-04-26T09:59:44.000Z</time>
      </trkpt>
      <trkpt lat="48.71823" lon="1.75309">
        <ele>144.60000610352</ele>
        <time>2011-04-26T09:59:54.000Z</time>
      </trkpt>
      <trkpt lat="48.71816" lon="1.75298">
        <ele>144.80000305176</ele>
        <time>2011-04-26T10:00:01.000Z</time>
      </trkpt>
      <trkpt lat="48.71809" lon="1.75285">
        <ele>145.19999694824</ele>
        <time>2011-04-26T10:00:09.000Z</time>
      </trkpt>
      <trkpt lat="48.718" lon="1.75268">
        <ele>145.60000610352</ele>
        <time>2011-04-26T10:00:18.000Z</time>
      </trkpt>
      <trkpt lat="48.7179" lon="1.75249">
        <ele>146</ele>
        <time>2011-04-26T10:00:28.000Z</time>
      </trkpt>
      <trkpt lat="48.7178" lon="1.75233">
        <ele>146</ele>
        <time>2011-04-26T10:00:37.000Z</time>
      </trkpt>
      <trkpt lat="48.71774" lon="1.75221">
        <ele>146</ele>
        <time>2011-04-26T10:00:43.000Z</time>
      </trkpt>
      <trkpt lat="48.71764" lon="1.75206">
        <ele>146.19999694824</ele>
        <time>2011-04-26T10:00:52.000Z</time>
      </trkpt>
      <trkpt lat="48.71757" lon="1.75191">
        <ele>146</ele>
        <time>2011-04-26T10:01:00.000Z</time>
      </trkpt>
      <trkpt lat="48.71749" lon="1.75172">
        <ele>146</ele>
        <time>2011-04-26T10:01:10.000Z</time>
      </trkpt>
      <trkpt lat="48.71742" lon="1.75157">
        <ele>146.19999694824</ele>
        <time>2011-04-26T10:01:18.000Z</time>
      </trkpt>
      <trkpt lat="48.71738" lon="1.75143">
        <ele>146.39999389648</ele>
        <time>2011-04-26T10:01:25.000Z</time>
      </trkpt>
      <trkpt lat="48.71734" lon="1.75132">
        <ele>146.39999389648</ele>
        <time>2011-04-26T10:01:31.000Z</time>
      </trkpt>
      <trkpt lat="48.71733" lon="1.75127">
        <ele>146.39999389648</ele>
        <time>2011-04-26T10:01:33.000Z</time>
      </trkpt>
      <trkpt lat="48.71727" lon="1.75109">
        <ele>146.19999694824</ele>
        <time>2011-04-26T10:01:41.000Z</time>
      </trkpt>
      <trkpt lat="48.71722" lon="1.75093">
        <ele>146</ele>
        <time>2011-04-26T10:01:49.000Z</time>
      </trkpt>
      <trkpt lat="48.71716" lon="1.75075">
        <ele>145.80000305176</ele>
        <time>2011-04-26T10:01:58.000Z</time>
      </trkpt>
      <trkpt lat="48.7171" lon="1.75056">
        <ele>145.80000305176</ele>
        <time>2011-04-26T10:02:07.000Z</time>
      </trkpt>
      <trkpt lat="48.71708" lon="1.75047">
        <ele>145.80000305176</ele>
        <time>2011-04-26T10:02:13.000Z</time>
      </trkpt>
      <trkpt lat="48.71703" lon="1.75037">
        <ele>146</ele>
        <time>2011-04-26T10:02:19.000Z</time>
      </trkpt>
      <trkpt lat="48.71697" lon="1.75016">
        <ele>146.39999389648</ele>
        <time>2011-04-26T10:02:29.000Z</time>
      </trkpt>
      <trkpt lat="48.71699" lon="1.7501">
        <ele>146.39999389648</ele>
        <time>2011-04-26T10:02:32.000Z</time>
      </trkpt>
      <trkpt lat="48.71693" lon="1.74993">
        <ele>146.80000305176</ele>
        <time>2011-04-26T10:02:40.000Z</time>
      </trkpt>
      <trkpt lat="48.71687" lon="1.74977">
        <ele>147.19999694824</ele>
        <time>2011-04-26T10:02:48.000Z</time>
      </trkpt>
      <trkpt lat="48.71684" lon="1.74971">
        <ele>147.39999389648</ele>
        <time>2011-04-26T10:02:51.000Z</time>
      </trkpt>
      <trkpt lat="48.71682" lon="1.74965">
        <ele>147.60000610352</ele>
        <time>2011-04-26T10:02:55.000Z</time>
      </trkpt>
      <trkpt lat="48.71675" lon="1.74951">
        <ele>148.19999694824</ele>
        <time>2011-04-26T10:03:03.000Z</time>
      </trkpt>
      <trkpt lat="48.7167" lon="1.7494">
        <ele>148.39999389648</ele>
        <time>2011-04-26T10:03:09.000Z</time>
      </trkpt>
      <trkpt lat="48.71664" lon="1.74925">
        <ele>149</ele>
        <time>2011-04-26T10:03:17.000Z</time>
      </trkpt>
      <trkpt lat="48.71658" lon="1.74909">
        <ele>149.60000610352</ele>
        <time>2011-04-26T10:03:26.000Z</time>
      </trkpt>
      <trkpt lat="48.71651" lon="1.74892">
        <ele>149.80000305176</ele>
        <time>2011-04-26T10:03:35.000Z</time>
      </trkpt>
      <trkpt lat="48.71645" lon="1.74877">
        <ele>149.80000305176</ele>
        <time>2011-04-26T10:03:43.000Z</time>
      </trkpt>
      <trkpt lat="48.71638" lon="1.74863">
        <ele>150</ele>
        <time>2011-04-26T10:03:51.000Z</time>
      </trkpt>
      <trkpt lat="48.71634" lon="1.74855">
        <ele>150</ele>
        <time>2011-04-26T10:03:55.000Z</time>
      </trkpt>
      <trkpt lat="48.71631" lon="1.74841">
        <ele>149.80000305176</ele>
        <time>2011-04-26T10:04:01.000Z</time>
      </trkpt>
      <trkpt lat="48.71631" lon="1.7484">
        <ele>149.80000305176</ele>
        <time>2011-04-26T10:04:02.000Z</time>
      </trkpt>
      <trkpt lat="48.71624" lon="1.74833">
        <ele>150</ele>
        <time>2011-04-26T10:04:08.000Z</time>
      </trkpt>
      <trkpt lat="48.71618" lon="1.74814">
        <ele>150.39999389648</ele>
        <time>2011-04-26T10:04:18.000Z</time>
      </trkpt>
      <trkpt lat="48.71613" lon="1.74802">
        <ele>150.80000305176</ele>
        <time>2011-04-26T10:04:25.000Z</time>
      </trkpt>
      <trkpt lat="48.71607" lon="1.74787">
        <ele>151.39999389648</ele>
        <time>2011-04-26T10:04:34.000Z</time>
      </trkpt>
      <trkpt lat="48.71604" lon="1.74775">
        <ele>151.60000610352</ele>
        <time>2011-04-26T10:04:40.000Z</time>
      </trkpt>
      <trkpt lat="48.71605" lon="1.74766">
        <ele>151.60000610352</ele>
        <time>2011-04-26T10:04:45.000Z</time>
      </trkpt>
      <trkpt lat="48.71598" lon="1.74754">
        <ele>152.19999694824</ele>
        <time>2011-04-26T10:04:53.000Z</time>
      </trkpt>
      <trkpt lat="48.71592" lon="1.74738">
        <ele>152.60000610352</ele>
        <time>2011-04-26T10:05:01.000Z</time>
      </trkpt>
      <trkpt lat="48.71588" lon="1.74728">
        <ele>153</ele>
        <time>2011-04-26T10:05:07.000Z</time>
      </trkpt>
      <trkpt lat="48.71582" lon="1.74714">
        <ele>153.39999389648</ele>
        <time>2011-04-26T10:05:14.000Z</time>
      </trkpt>
      <trkpt lat="48.71578" lon="1.74703">
        <ele>154</ele>
        <time>2011-04-26T10:05:19.000Z</time>
      </trkpt>
      <trkpt lat="48.71573" lon="1.74688">
        <ele>154.60000610352</ele>
        <time>2011-04-26T10:05:27.000Z</time>
      </trkpt>
      <trkpt lat="48.71569" lon="1.74674">
        <ele>155</ele>
        <time>2011-04-26T10:05:34.000Z</time>
      </trkpt>
      <trkpt lat="48.71562" lon="1.74661">
        <ele>155.80000305176</ele>
        <time>2011-04-26T10:05:41.000Z</time>
      </trkpt>
      <trkpt lat="48.71557" lon="1.7465">
        <ele>156.19999694824</ele>
        <time>2011-04-26T10:05:48.000Z</time>
      </trkpt>
      <trkpt lat="48.71551" lon="1.74635">
        <ele>156.80000305176</ele>
        <time>2011-04-26T10:05:57.000Z</time>
      </trkpt>
      <trkpt lat="48.71542" lon="1.74614">
        <ele>157</ele>
        <time>2011-04-26T10:06:08.000Z</time>
      </trkpt>
      <trkpt lat="48.71537" lon="1.74605">
        <ele>157.19999694824</ele>
        <time>2011-04-26T10:06:14.000Z</time>
      </trkpt>
      <trkpt lat="48.71532" lon="1.74588">
        <ele>157</ele>
        <time>2011-04-26T10:06:22.000Z</time>
      </trkpt>
      <trkpt lat="48.71524" lon="1.74569">
        <ele>157.19999694824</ele>
        <time>2011-04-26T10:06:32.000Z</time>
      </trkpt>
      <trkpt lat="48.71519" lon="1.74556">
        <ele>157.39999389648</ele>
        <time>2011-04-26T10:06:39.000Z</time>
      </trkpt>
      <trkpt lat="48.7151" lon="1.74541">
        <ele>157.19999694824</ele>
        <time>2011-04-26T10:06:48.000Z</time>
      </trkpt>
      <trkpt lat="48.71501" lon="1.7453">
        <ele>157</ele>
        <time>2011-04-26T10:06:57.000Z</time>
      </trkpt>
      <trkpt lat="48.71492" lon="1.74522">
        <ele>157.80000305176</ele>
        <time>2011-04-26T10:07:04.000Z</time>
      </trkpt>
      <trkpt lat="48.71487" lon="1.74512">
        <ele>158.19999694824</ele>
        <time>2011-04-26T10:07:11.000Z</time>
      </trkpt>
      <trkpt lat="48.71481" lon="1.74497">
        <ele>158.60000610352</ele>
        <time>2011-04-26T10:07:20.000Z</time>
      </trkpt>
      <trkpt lat="48.71474" lon="1.74482">
        <ele>159.80000305176</ele>
        <time>2011-04-26T10:07:28.000Z</time>
      </trkpt>
      <trkpt lat="48.71472" lon="1.74477">
        <ele>160</ele>
        <time>2011-04-26T10:07:31.000Z</time>
      </trkpt>
      <trkpt lat="48.7147" lon="1.74462">
        <ele>160.60000610352</ele>
        <time>2011-04-26T10:07:38.000Z</time>
      </trkpt>
      <trkpt lat="48.71466" lon="1.74457">
        <ele>161</ele>
        <time>2011-04-26T10:07:41.000Z</time>
      </trkpt>
      <trkpt lat="48.71459" lon="1.74444">
        <ele>161.39999389648</ele>
        <time>2011-04-26T10:07:49.000Z</time>
      </trkpt>
      <trkpt lat="48.71455" lon="1.74435">
        <ele>161.60000610352</ele>
        <time>2011-04-26T10:07:54.000Z</time>
      </trkpt>
      <trkpt lat="48.71452" lon="1.74429">
        <ele>161.60000610352</ele>
        <time>2011-04-26T10:07:58.000Z</time>
      </trkpt>
      <trkpt lat="48.71448" lon="1.74417">
        <ele>161.60000610352</ele>
        <time>2011-04-26T10:08:05.000Z</time>
      </trkpt>
      <trkpt lat="48.71445" lon="1.74406">
        <ele>162.19999694824</ele>
        <time>2011-04-26T10:08:12.000Z</time>
      </trkpt>
      <trkpt lat="48.71443" lon="1.744">
        <ele>162.60000610352</ele>
        <time>2011-04-26T10:08:16.000Z</time>
      </trkpt>
      <trkpt lat="48.71439" lon="1.74388">
        <ele>163.19999694824</ele>
        <time>2011-04-26T10:08:23.000Z</time>
      </trkpt>
      <trkpt lat="48.71431" lon="1.74376">
        <ele>163.80000305176</ele>
        <time>2011-04-26T10:08:30.000Z</time>
      </trkpt>
      <trkpt lat="48.71427" lon="1.74365">
        <ele>164.39999389648</ele>
        <time>2011-04-26T10:08:36.000Z</time>
      </trkpt>
      <trkpt lat="48.7142" lon="1.7435">
        <ele>165</ele>
        <time>2011-04-26T10:08:44.000Z</time>
      </trkpt>
      <trkpt lat="48.71416" lon="1.7434">
        <ele>165.60000610352</ele>
        <time>2011-04-26T10:08:49.000Z</time>
      </trkpt>
      <trkpt lat="48.71416" lon="1.74332">
        <ele>166.19999694824</ele>
        <time>2011-04-26T10:08:54.000Z</time>
      </trkpt>
      <trkpt lat="48.71416" lon="1.74325">
        <ele>166.80000305176</ele>
        <time>2011-04-26T10:08:59.000Z</time>
      </trkpt>
      <trkpt lat="48.71412" lon="1.74313">
        <ele>168.19999694824</ele>
        <time>2011-04-26T10:09:07.000Z</time>
      </trkpt>
      <trkpt lat="48.7141" lon="1.74301">
        <ele>169.39999389648</ele>
        <time>2011-04-26T10:09:14.000Z</time>
      </trkpt>
      <trkpt lat="48.71405" lon="1.74287">
        <ele>170.60000610352</ele>
        <time>2011-04-26T10:09:20.000Z</time>
      </trkpt>
      <trkpt lat="48.71401" lon="1.74273">
        <ele>171.80000305176</ele>
        <time>2011-04-26T10:09:27.000Z</time>
      </trkpt>
      <trkpt lat="48.71399" lon="1.74263">
        <ele>172.60000610352</ele>
        <time>2011-04-26T10:09:32.000Z</time>
      </trkpt>
      <trkpt lat="48.71396" lon="1.74253">
        <ele>173.19999694824</ele>
        <time>2011-04-26T10:09:38.000Z</time>
      </trkpt>
      <trkpt lat="48.71395" lon="1.7425">
        <ele>173.19999694824</ele>
        <time>2011-04-26T10:09:39.000Z</time>
      </trkpt>
      <trkpt lat="48.71389" lon="1.74234">
        <ele>174</ele>
        <time>2011-04-26T10:09:48.000Z</time>
      </trkpt>
      <trkpt lat="48.71389" lon="1.7423">
        <ele>174.19999694824</ele>
        <time>2011-04-26T10:09:50.000Z</time>
      </trkpt>
      <trkpt lat="48.71388" lon="1.74223">
        <ele>174.60000610352</ele>
        <time>2011-04-26T10:09:56.000Z</time>
      </trkpt>
      <trkpt lat="48.71387" lon="1.74217">
        <ele>175</ele>
        <time>2011-04-26T10:10:02.000Z</time>
      </trkpt>
      <trkpt lat="48.71386" lon="1.74207">
        <ele>175.60000610352</ele>
        <time>2011-04-26T10:10:07.000Z</time>
      </trkpt>
      <trkpt lat="48.71385" lon="1.74196">
        <ele>176.19999694824</ele>
        <time>2011-04-26T10:10:14.000Z</time>
      </trkpt>
      <trkpt lat="48.71381" lon="1.74184">
        <ele>176.60000610352</ele>
        <time>2011-04-26T10:10:20.000Z</time>
      </trkpt>
      <trkpt lat="48.71378" lon="1.7417">
        <ele>177</ele>
        <time>2011-04-26T10:10:27.000Z</time>
      </trkpt>
      <trkpt lat="48.71374" lon="1.74157">
        <ele>177</ele>
        <time>2011-04-26T10:10:34.000Z</time>
      </trkpt>
      <trkpt lat="48.71372" lon="1.74143">
        <ele>177.19999694824</ele>
        <time>2011-04-26T10:10:42.000Z</time>
      </trkpt>
      <trkpt lat="48.71369" lon="1.74123">
        <ele>177.39999389648</ele>
        <time>2011-04-26T10:10:52.000Z</time>
      </trkpt>
      <trkpt lat="48.71367" lon="1.74111">
        <ele>177.60000610352</ele>
        <time>2011-04-26T10:10:58.000Z</time>
      </trkpt>
      <trkpt lat="48.71367" lon="1.74097">
        <ele>178</ele>
        <time>2011-04-26T10:11:05.000Z</time>
      </trkpt>
      <trkpt lat="48.71365" lon="1.74082">
        <ele>178.19999694824</ele>
        <time>2011-04-26T10:11:12.000Z</time>
      </trkpt>
      <trkpt lat="48.71359" lon="1.74067">
        <ele>178</ele>
        <time>2011-04-26T10:11:20.000Z</time>
      </trkpt>
      <trkpt lat="48.71353" lon="1.74057">
        <ele>177.80000305176</ele>
        <time>2011-04-26T10:11:26.000Z</time>
      </trkpt>
      <trkpt lat="48.7135" lon="1.74045">
        <ele>178</ele>
        <time>2011-04-26T10:11:32.000Z</time>
      </trkpt>
      <trkpt lat="48.71345" lon="1.74035">
        <ele>178</ele>
        <time>2011-04-26T10:11:38.000Z</time>
      </trkpt>
      <trkpt lat="48.71341" lon="1.74019">
        <ele>178.39999389648</ele>
        <time>2011-04-26T10:11:46.000Z</time>
      </trkpt>
      <trkpt lat="48.7134" lon="1.74015">
        <ele>178.39999389648</ele>
        <time>2011-04-26T10:11:48.000Z</time>
      </trkpt>
      <trkpt lat="48.71338" lon="1.74003">
        <ele>178.80000305176</ele>
        <time>2011-04-26T10:11:54.000Z</time>
      </trkpt>
      <trkpt lat="48.71334" lon="1.73985">
        <ele>179</ele>
        <time>2011-04-26T10:12:03.000Z</time>
      </trkpt>
      <trkpt lat="48.71331" lon="1.73973">
        <ele>179.39999389648</ele>
        <time>2011-04-26T10:12:10.000Z</time>
      </trkpt>
      <trkpt lat="48.71324" lon="1.73953">
        <ele>179.80000305176</ele>
        <time>2011-04-26T10:12:20.000Z</time>
      </trkpt>
      <trkpt lat="48.71321" lon="1.73941">
        <ele>180</ele>
        <time>2011-04-26T10:12:26.000Z</time>
      </trkpt>
      <trkpt lat="48.71315" lon="1.73926">
        <ele>180.60000610352</ele>
        <time>2011-04-26T10:12:34.000Z</time>
      </trkpt>
      <trkpt lat="48.71308" lon="1.7391">
        <ele>181</ele>
        <time>2011-04-26T10:12:43.000Z</time>
      </trkpt>
      <trkpt lat="48.71306" lon="1.73898">
        <ele>180.80000305176</ele>
        <time>2011-04-26T10:12:48.000Z</time>
      </trkpt>
      <trkpt lat="48.71304" lon="1.7389">
        <ele>180.60000610352</ele>
        <time>2011-04-26T10:12:53.000Z</time>
      </trkpt>
      <trkpt lat="48.71296" lon="1.73871">
        <ele>180.80000305176</ele>
        <time>2011-04-26T10:13:03.000Z</time>
      </trkpt>
      <trkpt lat="48.71291" lon="1.73854">
        <ele>180.80000305176</ele>
        <time>2011-04-26T10:13:12.000Z</time>
      </trkpt>
      <trkpt lat="48.71284" lon="1.73835">
        <ele>181</ele>
        <time>2011-04-26T10:13:22.000Z</time>
      </trkpt>
      <trkpt lat="48.7128" lon="1.73833">
        <ele>181.39999389648</ele>
        <time>2011-04-26T10:13:25.000Z</time>
      </trkpt>
      <trkpt lat="48.71274" lon="1.73832">
        <ele>181.80000305176</ele>
        <time>2011-04-26T10:13:31.000Z</time>
      </trkpt>
      <trkpt lat="48.71272" lon="1.73833">
        <ele>182</ele>
        <time>2011-04-26T10:13:32.000Z</time>
      </trkpt>
      <trkpt lat="48.71267" lon="1.73833">
        <ele>182.39999389648</ele>
        <time>2011-04-26T10:13:36.000Z</time>
      </trkpt>
      <trkpt lat="48.7126" lon="1.73832">
        <ele>183</ele>
        <time>2011-04-26T10:13:42.000Z</time>
      </trkpt>
      <trkpt lat="48.7125" lon="1.73832">
        <ele>183.80000305176</ele>
        <time>2011-04-26T10:13:48.000Z</time>
      </trkpt>
      <trkpt lat="48.71242" lon="1.73831">
        <ele>183.80000305176</ele>
        <time>2011-04-26T10:13:53.000Z</time>
      </trkpt>
      <trkpt lat="48.71232" lon="1.7383">
        <ele>183.60000610352</ele>
        <time>2011-04-26T10:14:00.000Z</time>
      </trkpt>
      <trkpt lat="48.71223" lon="1.73829">
        <ele>183.60000610352</ele>
        <time>2011-04-26T10:14:06.000Z</time>
      </trkpt>
      <trkpt lat="48.71219" lon="1.73828">
        <ele>183.60000610352</ele>
        <time>2011-04-26T10:14:09.000Z</time>
      </trkpt>
      <trkpt lat="48.7121" lon="1.73826">
        <ele>183.39999389648</ele>
        <time>2011-04-26T10:14:15.000Z</time>
      </trkpt>
      <trkpt lat="48.71203" lon="1.73825">
        <ele>183.39999389648</ele>
        <time>2011-04-26T10:14:20.000Z</time>
      </trkpt>
      <trkpt lat="48.71197" lon="1.73824">
        <ele>183.19999694824</ele>
        <time>2011-04-26T10:14:25.000Z</time>
      </trkpt>
      <trkpt lat="48.7119" lon="1.73822">
        <ele>183.19999694824</ele>
        <time>2011-04-26T10:14:31.000Z</time>
      </trkpt>
      <trkpt lat="48.71179" lon="1.7382">
        <ele>183.19999694824</ele>
        <time>2011-04-26T10:14:39.000Z</time>
      </trkpt>
      <trkpt lat="48.71173" lon="1.7382">
        <ele>183.19999694824</ele>
        <time>2011-04-26T10:14:44.000Z</time>
      </trkpt>
      <trkpt lat="48.71164" lon="1.73819">
        <ele>183</ele>
        <time>2011-04-26T10:14:49.000Z</time>
      </trkpt>
      <trkpt lat="48.71155" lon="1.73818">
        <ele>183</ele>
        <time>2011-04-26T10:14:55.000Z</time>
      </trkpt>
      <trkpt lat="48.71145" lon="1.73818">
        <ele>182.80000305176</ele>
        <time>2011-04-26T10:15:02.000Z</time>
      </trkpt>
      <trkpt lat="48.71144" lon="1.73818">
        <ele>182.80000305176</ele>
        <time>2011-04-26T10:15:03.000Z</time>
      </trkpt>
      <trkpt lat="48.71136" lon="1.73817">
        <ele>182.80000305176</ele>
        <time>2011-04-26T10:15:09.000Z</time>
      </trkpt>
      <trkpt lat="48.71127" lon="1.73816">
        <ele>182.60000610352</ele>
        <time>2011-04-26T10:15:15.000Z</time>
      </trkpt>
      <trkpt lat="48.71126" lon="1.73815">
        <ele>182.60000610352</ele>
        <time>2011-04-26T10:15:16.000Z</time>
      </trkpt>
      <trkpt lat="48.71119" lon="1.73816">
        <ele>182.60000610352</ele>
        <time>2011-04-26T10:15:23.000Z</time>
      </trkpt>
      <trkpt lat="48.71112" lon="1.73817">
        <ele>182.39999389648</ele>
        <time>2011-04-26T10:15:28.000Z</time>
      </trkpt>
      <trkpt lat="48.71106" lon="1.73818">
        <ele>182.39999389648</ele>
        <time>2011-04-26T10:15:32.000Z</time>
      </trkpt>
      <trkpt lat="48.71098" lon="1.73817">
        <ele>182.19999694824</ele>
        <time>2011-04-26T10:15:38.000Z</time>
      </trkpt>
      <trkpt lat="48.71096" lon="1.73817">
        <ele>182.19999694824</ele>
        <time>2011-04-26T10:15:39.000Z</time>
      </trkpt>
      <trkpt lat="48.71089" lon="1.73815">
        <ele>182.19999694824</ele>
        <time>2011-04-26T10:15:44.000Z</time>
      </trkpt>
      <trkpt lat="48.71081" lon="1.73815">
        <ele>182.19999694824</ele>
        <time>2011-04-26T10:15:50.000Z</time>
      </trkpt>
      <trkpt lat="48.71076" lon="1.73813">
        <ele>182.19999694824</ele>
        <time>2011-04-26T10:15:53.000Z</time>
      </trkpt>
      <trkpt lat="48.71063" lon="1.7381">
        <ele>182.19999694824</ele>
        <time>2011-04-26T10:16:02.000Z</time>
      </trkpt>
      <trkpt lat="48.71052" lon="1.73807">
        <ele>182.19999694824</ele>
        <time>2011-04-26T10:16:10.000Z</time>
      </trkpt>
      <trkpt lat="48.71044" lon="1.7381">
        <ele>182.19999694824</ele>
        <time>2011-04-26T10:16:15.000Z</time>
      </trkpt>
      <trkpt lat="48.71029" lon="1.7381">
        <ele>182.19999694824</ele>
        <time>2011-04-26T10:16:25.000Z</time>
      </trkpt>
      <trkpt lat="48.71019" lon="1.73806">
        <ele>182.19999694824</ele>
        <time>2011-04-26T10:16:32.000Z</time>
      </trkpt>
      <trkpt lat="48.71009" lon="1.73811">
        <ele>182.39999389648</ele>
        <time>2011-04-26T10:16:40.000Z</time>
      </trkpt>
      <trkpt lat="48.71005" lon="1.73823">
        <ele>182.60000610352</ele>
        <time>2011-04-26T10:16:46.000Z</time>
      </trkpt>
      <trkpt lat="48.71" lon="1.7384">
        <ele>183</ele>
        <time>2011-04-26T10:16:54.000Z</time>
      </trkpt>
      <trkpt lat="48.70996" lon="1.73857">
        <ele>183.39999389648</ele>
        <time>2011-04-26T10:17:02.000Z</time>
      </trkpt>
      <trkpt lat="48.70993" lon="1.73866">
        <ele>183.39999389648</ele>
        <time>2011-04-26T10:17:07.000Z</time>
      </trkpt>
      <trkpt lat="48.7099" lon="1.73877">
        <ele>183.60000610352</ele>
        <time>2011-04-26T10:17:13.000Z</time>
      </trkpt>
      <trkpt lat="48.70987" lon="1.73888">
        <ele>183.80000305176</ele>
        <time>2011-04-26T10:17:18.000Z</time>
      </trkpt>
      <trkpt lat="48.70985" lon="1.73899">
        <ele>184</ele>
        <time>2011-04-26T10:17:23.000Z</time>
      </trkpt>
      <trkpt lat="48.70983" lon="1.7391">
        <ele>184.39999389648</ele>
        <time>2011-04-26T10:17:28.000Z</time>
      </trkpt>
      <trkpt lat="48.70981" lon="1.73922">
        <ele>184.39999389648</ele>
        <time>2011-04-26T10:17:33.000Z</time>
      </trkpt>
      <trkpt lat="48.70979" lon="1.73933">
        <ele>184</ele>
        <time>2011-04-26T10:17:38.000Z</time>
      </trkpt>
      <trkpt lat="48.70976" lon="1.73949">
        <ele>183.39999389648</ele>
        <time>2011-04-26T10:17:46.000Z</time>
      </trkpt>
      <trkpt lat="48.70972" lon="1.73966">
        <ele>183</ele>
        <time>2011-04-26T10:17:54.000Z</time>
      </trkpt>
      <trkpt lat="48.70968" lon="1.73982">
        <ele>182.60000610352</ele>
        <time>2011-04-26T10:18:02.000Z</time>
      </trkpt>
      <trkpt lat="48.70965" lon="1.73998">
        <ele>182.39999389648</ele>
        <time>2011-04-26T10:18:09.000Z</time>
      </trkpt>
      <trkpt lat="48.70963" lon="1.74006">
        <ele>182.39999389648</ele>
        <time>2011-04-26T10:18:13.000Z</time>
      </trkpt>
      <trkpt lat="48.70961" lon="1.74011">
        <ele>182.39999389648</ele>
        <time>2011-04-26T10:18:17.000Z</time>
      </trkpt>
      <trkpt lat="48.70956" lon="1.74028">
        <ele>182.39999389648</ele>
        <time>2011-04-26T10:18:25.000Z</time>
      </trkpt>
      <trkpt lat="48.70951" lon="1.74048">
        <ele>182.39999389648</ele>
        <time>2011-04-26T10:18:34.000Z</time>
      </trkpt>
      <trkpt lat="48.70949" lon="1.74061">
        <ele>182.60000610352</ele>
        <time>2011-04-26T10:18:41.000Z</time>
      </trkpt>
      <trkpt lat="48.70946" lon="1.74075">
        <ele>182.60000610352</ele>
        <time>2011-04-26T10:18:49.000Z</time>
      </trkpt>
      <trkpt lat="48.70941" lon="1.74091">
        <ele>182.60000610352</ele>
        <time>2011-04-26T10:18:57.000Z</time>
      </trkpt>
      <trkpt lat="48.70937" lon="1.74107">
        <ele>182.60000610352</ele>
        <time>2011-04-26T10:19:05.000Z</time>
      </trkpt>
      <trkpt lat="48.70933" lon="1.74123">
        <ele>182.60000610352</ele>
        <time>2011-04-26T10:19:14.000Z</time>
      </trkpt>
      <trkpt lat="48.70933" lon="1.74125">
        <ele>182.60000610352</ele>
        <time>2011-04-26T10:19:15.000Z</time>
      </trkpt>
      <trkpt lat="48.70932" lon="1.74141">
        <ele>182.39999389648</ele>
        <time>2011-04-26T10:19:24.000Z</time>
      </trkpt>
      <trkpt lat="48.70928" lon="1.74155">
        <ele>182.60000610352</ele>
        <time>2011-04-26T10:19:30.000Z</time>
      </trkpt>
      <trkpt lat="48.70926" lon="1.74166">
        <ele>182.60000610352</ele>
        <time>2011-04-26T10:19:35.000Z</time>
      </trkpt>
      <trkpt lat="48.70924" lon="1.74182">
        <ele>182.19999694824</ele>
        <time>2011-04-26T10:19:43.000Z</time>
      </trkpt>
      <trkpt lat="48.70922" lon="1.74195">
        <ele>182</ele>
        <time>2011-04-26T10:19:50.000Z</time>
      </trkpt>
      <trkpt lat="48.70919" lon="1.74211">
        <ele>181.80000305176</ele>
        <time>2011-04-26T10:19:57.000Z</time>
      </trkpt>
      <trkpt lat="48.70914" lon="1.74227">
        <ele>181.39999389648</ele>
        <time>2011-04-26T10:20:05.000Z</time>
      </trkpt>
      <trkpt lat="48.7091" lon="1.74243">
        <ele>181</ele>
        <time>2011-04-26T10:20:13.000Z</time>
      </trkpt>
      <trkpt lat="48.70909" lon="1.74245">
        <ele>181</ele>
        <time>2011-04-26T10:20:14.000Z</time>
      </trkpt>
      <trkpt lat="48.70905" lon="1.74259">
        <ele>180.19999694824</ele>
        <time>2011-04-26T10:20:21.000Z</time>
      </trkpt>
      <trkpt lat="48.709" lon="1.74272">
        <ele>179.60000610352</ele>
        <time>2011-04-26T10:20:27.000Z</time>
      </trkpt>
      <trkpt lat="48.70896" lon="1.74283">
        <ele>178.80000305176</ele>
        <time>2011-04-26T10:20:33.000Z</time>
      </trkpt>
      <trkpt lat="48.70888" lon="1.74295">
        <ele>178.19999694824</ele>
        <time>2011-04-26T10:20:41.000Z</time>
      </trkpt>
      <trkpt lat="48.70882" lon="1.74306">
        <ele>177.80000305176</ele>
        <time>2011-04-26T10:20:48.000Z</time>
      </trkpt>
      <trkpt lat="48.70876" lon="1.74318">
        <ele>177.19999694824</ele>
        <time>2011-04-26T10:20:56.000Z</time>
      </trkpt>
      <trkpt lat="48.70867" lon="1.74333">
        <ele>176.60000610352</ele>
        <time>2011-04-26T10:21:04.000Z</time>
      </trkpt>
      <trkpt lat="48.70858" lon="1.7435">
        <ele>176.39999389648</ele>
        <time>2011-04-26T10:21:14.000Z</time>
      </trkpt>
      <trkpt lat="48.70856" lon="1.74352">
        <ele>176.39999389648</ele>
        <time>2011-04-26T10:21:18.000Z</time>
      </trkpt>
      <trkpt lat="48.70853" lon="1.74357">
        <ele>176.39999389648</ele>
        <time>2011-04-26T10:21:33.000Z</time>
      </trkpt>
      <trkpt lat="48.70845" lon="1.74366">
        <ele>176.39999389648</ele>
        <time>2011-04-26T10:21:40.000Z</time>
      </trkpt>
      <trkpt lat="48.70836" lon="1.74378">
        <ele>176.39999389648</ele>
        <time>2011-04-26T10:21:49.000Z</time>
      </trkpt>
      <trkpt lat="48.70833" lon="1.74385">
        <ele>176.19999694824</ele>
        <time>2011-04-26T10:21:54.000Z</time>
      </trkpt>
      <trkpt lat="48.70821" lon="1.74397">
        <ele>176.39999389648</ele>
        <time>2011-04-26T10:22:04.000Z</time>
      </trkpt>
      <trkpt lat="48.7081" lon="1.74404">
        <ele>176.60000610352</ele>
        <time>2011-04-26T10:22:12.000Z</time>
      </trkpt>
      <trkpt lat="48.70799" lon="1.74412">
        <ele>176.80000305176</ele>
        <time>2011-04-26T10:22:21.000Z</time>
      </trkpt>
      <trkpt lat="48.70785" lon="1.74421">
        <ele>177</ele>
        <time>2011-04-26T10:22:32.000Z</time>
      </trkpt>
      <trkpt lat="48.70771" lon="1.7443">
        <ele>177.19999694824</ele>
        <time>2011-04-26T10:22:43.000Z</time>
      </trkpt>
      <trkpt lat="48.70765" lon="1.74435">
        <ele>177.39999389648</ele>
        <time>2011-04-26T10:22:48.000Z</time>
      </trkpt>
      <trkpt lat="48.70756" lon="1.74442">
        <ele>177.39999389648</ele>
        <time>2011-04-26T10:22:55.000Z</time>
      </trkpt>
      <trkpt lat="48.70745" lon="1.74449">
        <ele>177.60000610352</ele>
        <time>2011-04-26T10:23:02.000Z</time>
      </trkpt>
      <trkpt lat="48.70736" lon="1.74455">
        <ele>178</ele>
        <time>2011-04-26T10:23:10.000Z</time>
      </trkpt>
      <trkpt lat="48.70732" lon="1.74464">
        <ele>178</ele>
        <time>2011-04-26T10:23:16.000Z</time>
      </trkpt>
      <trkpt lat="48.7073" lon="1.74467">
        <ele>178</ele>
        <time>2011-04-26T10:23:19.000Z</time>
      </trkpt>
      <trkpt lat="48.70732" lon="1.74474">
        <ele>177.80000305176</ele>
        <time>2011-04-26T10:23:27.000Z</time>
      </trkpt>
      <trkpt lat="48.70736" lon="1.74478">
        <ele>177.60000610352</ele>
        <time>2011-04-26T10:23:32.000Z</time>
      </trkpt>
      <trkpt lat="48.70744" lon="1.74488">
        <ele>177.19999694824</ele>
        <time>2011-04-26T10:23:39.000Z</time>
      </trkpt>
      <trkpt lat="48.70751" lon="1.745">
        <ele>176.80000305176</ele>
        <time>2011-04-26T10:23:47.000Z</time>
      </trkpt>
      <trkpt lat="48.70761" lon="1.74512">
        <ele>176.80000305176</ele>
        <time>2011-04-26T10:23:56.000Z</time>
      </trkpt>
      <trkpt lat="48.70771" lon="1.74524">
        <ele>176.60000610352</ele>
        <time>2011-04-26T10:24:05.000Z</time>
      </trkpt>
      <trkpt lat="48.70782" lon="1.74531">
        <ele>176.60000610352</ele>
        <time>2011-04-26T10:24:14.000Z</time>
      </trkpt>
      <trkpt lat="48.70792" lon="1.74541">
        <ele>176.39999389648</ele>
        <time>2011-04-26T10:24:22.000Z</time>
      </trkpt>
      <trkpt lat="48.70805" lon="1.74558">
        <ele>176.19999694824</ele>
        <time>2011-04-26T10:24:34.000Z</time>
      </trkpt>
      <trkpt lat="48.70814" lon="1.74573">
        <ele>176.19999694824</ele>
        <time>2011-04-26T10:24:44.000Z</time>
      </trkpt>
      <trkpt lat="48.70826" lon="1.74587">
        <ele>176</ele>
        <time>2011-04-26T10:24:54.000Z</time>
      </trkpt>
      <trkpt lat="48.7083" lon="1.74592">
        <ele>176</ele>
        <time>2011-04-26T10:24:57.000Z</time>
      </trkpt>
      <trkpt lat="48.70834" lon="1.74605">
        <ele>175.80000305176</ele>
        <time>2011-04-26T10:25:04.000Z</time>
      </trkpt>
      <trkpt lat="48.70837" lon="1.74608">
        <ele>175.80000305176</ele>
        <time>2011-04-26T10:25:07.000Z</time>
      </trkpt>
      <trkpt lat="48.70844" lon="1.74619">
        <ele>175.80000305176</ele>
        <time>2011-04-26T10:25:14.000Z</time>
      </trkpt>
      <trkpt lat="48.70854" lon="1.74632">
        <ele>175.80000305176</ele>
        <time>2011-04-26T10:25:22.000Z</time>
      </trkpt>
      <trkpt lat="48.70861" lon="1.74642">
        <ele>175.80000305176</ele>
        <time>2011-04-26T10:25:29.000Z</time>
      </trkpt>
      <trkpt lat="48.7087" lon="1.74655">
        <ele>175.80000305176</ele>
        <time>2011-04-26T10:25:37.000Z</time>
      </trkpt>
      <trkpt lat="48.70881" lon="1.7467">
        <ele>176</ele>
        <time>2011-04-26T10:25:47.000Z</time>
      </trkpt>
      <trkpt lat="48.70892" lon="1.74684">
        <ele>176.39999389648</ele>
        <time>2011-04-26T10:25:57.000Z</time>
      </trkpt>
      <trkpt lat="48.709" lon="1.74693">
        <ele>176.60000610352</ele>
        <time>2011-04-26T10:26:04.000Z</time>
      </trkpt>
      <trkpt lat="48.7091" lon="1.74706">
        <ele>177</ele>
        <time>2011-04-26T10:26:13.000Z</time>
      </trkpt>
      <trkpt lat="48.70918" lon="1.74717">
        <ele>177.19999694824</ele>
        <time>2011-04-26T10:26:21.000Z</time>
      </trkpt>
      <trkpt lat="48.7093" lon="1.74733">
        <ele>177.60000610352</ele>
        <time>2011-04-26T10:26:32.000Z</time>
      </trkpt>
      <trkpt lat="48.70943" lon="1.7475">
        <ele>178</ele>
        <time>2011-04-26T10:26:44.000Z</time>
      </trkpt>
      <trkpt lat="48.70955" lon="1.74767">
        <ele>178</ele>
        <time>2011-04-26T10:26:56.000Z</time>
      </trkpt>
      <trkpt lat="48.70964" lon="1.74781">
        <ele>178.19999694824</ele>
        <time>2011-04-26T10:27:06.000Z</time>
      </trkpt>
      <trkpt lat="48.70971" lon="1.74792">
        <ele>178.19999694824</ele>
        <time>2011-04-26T10:27:13.000Z</time>
      </trkpt>
      <trkpt lat="48.70979" lon="1.74804">
        <ele>178.39999389648</ele>
        <time>2011-04-26T10:27:21.000Z</time>
      </trkpt>
      <trkpt lat="48.70989" lon="1.74813">
        <ele>178.60000610352</ele>
        <time>2011-04-26T10:27:28.000Z</time>
      </trkpt>
      <trkpt lat="48.70996" lon="1.7482">
        <ele>178.60000610352</ele>
        <time>2011-04-26T10:27:34.000Z</time>
      </trkpt>
      <trkpt lat="48.71001" lon="1.74831">
        <ele>178.80000305176</ele>
        <time>2011-04-26T10:27:41.000Z</time>
      </trkpt>
      <trkpt lat="48.71005" lon="1.74838">
        <ele>178.60000610352</ele>
        <time>2011-04-26T10:27:45.000Z</time>
      </trkpt>
      <trkpt lat="48.71006" lon="1.74851">
        <ele>178.60000610352</ele>
        <time>2011-04-26T10:27:52.000Z</time>
      </trkpt>
      <trkpt lat="48.71" lon="1.74863">
        <ele>178.80000305176</ele>
        <time>2011-04-26T10:28:00.000Z</time>
      </trkpt>
      <trkpt lat="48.70997" lon="1.74868">
        <ele>178.80000305176</ele>
        <time>2011-04-26T10:28:04.000Z</time>
      </trkpt>
      <trkpt lat="48.7099" lon="1.74878">
        <ele>178.60000610352</ele>
        <time>2011-04-26T10:28:10.000Z</time>
      </trkpt>
      <trkpt lat="48.70981" lon="1.74889">
        <ele>178.19999694824</ele>
        <time>2011-04-26T10:28:18.000Z</time>
      </trkpt>
      <trkpt lat="48.70972" lon="1.749">
        <ele>177.80000305176</ele>
        <time>2011-04-26T10:28:27.000Z</time>
      </trkpt>
      <trkpt lat="48.70962" lon="1.74914">
        <ele>177.19999694824</ele>
        <time>2011-04-26T10:28:36.000Z</time>
      </trkpt>
      <trkpt lat="48.70951" lon="1.74931">
        <ele>176.39999389648</ele>
        <time>2011-04-26T10:28:46.000Z</time>
      </trkpt>
      <trkpt lat="48.70944" lon="1.7494">
        <ele>176.19999694824</ele>
        <time>2011-04-26T10:28:54.000Z</time>
      </trkpt>
      <trkpt lat="48.70936" lon="1.74953">
        <ele>175.80000305176</ele>
        <time>2011-04-26T10:29:02.000Z</time>
      </trkpt>
      <trkpt lat="48.7093" lon="1.74964">
        <ele>175.39999389648</ele>
        <time>2011-04-26T10:29:09.000Z</time>
      </trkpt>
      <trkpt lat="48.70929" lon="1.74967">
        <ele>175.39999389648</ele>
        <time>2011-04-26T10:29:11.000Z</time>
      </trkpt>
      <trkpt lat="48.70925" lon="1.74976">
        <ele>175.19999694824</ele>
        <time>2011-04-26T10:29:20.000Z</time>
      </trkpt>
      <trkpt lat="48.70922" lon="1.7498">
        <ele>175.19999694824</ele>
        <time>2011-04-26T10:29:22.000Z</time>
      </trkpt>
      <trkpt lat="48.70918" lon="1.74984">
        <ele>175</ele>
        <time>2011-04-26T10:29:28.000Z</time>
      </trkpt>
      <trkpt lat="48.70908" lon="1.75007">
        <ele>174.80000305176</ele>
        <time>2011-04-26T10:30:02.000Z</time>
      </trkpt>
      <trkpt lat="48.70905" lon="1.75015">
        <ele>174.80000305176</ele>
        <time>2011-04-26T10:30:08.000Z</time>
      </trkpt>
      <trkpt lat="48.70899" lon="1.75029">
        <ele>174.60000610352</ele>
        <time>2011-04-26T10:31:20.000Z</time>
      </trkpt>
      <trkpt lat="48.70896" lon="1.75036">
        <ele>174.39999389648</ele>
        <time>2011-04-26T10:31:23.000Z</time>
      </trkpt>
      <trkpt lat="48.70893" lon="1.75043">
        <ele>174.39999389648</ele>
        <time>2011-04-26T10:31:27.000Z</time>
      </trkpt>
      <trkpt lat="48.70888" lon="1.7506">
        <ele>174.19999694824</ele>
        <time>2011-04-26T10:31:37.000Z</time>
      </trkpt>
      <trkpt lat="48.70887" lon="1.75066">
        <ele>174.19999694824</ele>
        <time>2011-04-26T10:31:40.000Z</time>
      </trkpt>
      <trkpt lat="48.70882" lon="1.75077">
        <ele>174</ele>
        <time>2011-04-26T10:31:46.000Z</time>
      </trkpt>
      <trkpt lat="48.7088" lon="1.75081">
        <ele>174</ele>
        <time>2011-04-26T10:31:49.000Z</time>
      </trkpt>
      <trkpt lat="48.70872" lon="1.75094">
        <ele>174</ele>
        <time>2011-04-26T10:31:57.000Z</time>
      </trkpt>
      <trkpt lat="48.70871" lon="1.75095">
        <ele>174</ele>
        <time>2011-04-26T10:31:58.000Z</time>
      </trkpt>
      <trkpt lat="48.70866" lon="1.75105">
        <ele>174</ele>
        <time>2011-04-26T10:32:04.000Z</time>
      </trkpt>
      <trkpt lat="48.70861" lon="1.75116">
        <ele>174</ele>
        <time>2011-04-26T10:32:10.000Z</time>
      </trkpt>
      <trkpt lat="48.70855" lon="1.75127">
        <ele>174</ele>
        <time>2011-04-26T10:32:17.000Z</time>
      </trkpt>
      <trkpt lat="48.70849" lon="1.75139">
        <ele>174</ele>
        <time>2011-04-26T10:32:24.000Z</time>
      </trkpt>
      <trkpt lat="48.70846" lon="1.75148">
        <ele>174</ele>
        <time>2011-04-26T10:32:29.000Z</time>
      </trkpt>
      <trkpt lat="48.70844" lon="1.75152">
        <ele>174</ele>
        <time>2011-04-26T10:32:32.000Z</time>
      </trkpt>
      <trkpt lat="48.70841" lon="1.75159">
        <ele>174</ele>
        <time>2011-04-26T10:32:37.000Z</time>
      </trkpt>
      <trkpt lat="48.70838" lon="1.75164">
        <ele>174</ele>
        <time>2011-04-26T10:32:41.000Z</time>
      </trkpt>
      <trkpt lat="48.70835" lon="1.75171">
        <ele>174</ele>
        <time>2011-04-26T10:32:46.000Z</time>
      </trkpt>
      <trkpt lat="48.70833" lon="1.75176">
        <ele>173.80000305176</ele>
        <time>2011-04-26T10:32:49.000Z</time>
      </trkpt>
      <trkpt lat="48.70829" lon="1.75184">
        <ele>173.80000305176</ele>
        <time>2011-04-26T10:32:54.000Z</time>
      </trkpt>
      <trkpt lat="48.70825" lon="1.75193">
        <ele>173.80000305176</ele>
        <time>2011-04-26T10:33:00.000Z</time>
      </trkpt>
      <trkpt lat="48.70821" lon="1.75202">
        <ele>173.80000305176</ele>
        <time>2011-04-26T10:33:05.000Z</time>
      </trkpt>
      <trkpt lat="48.70815" lon="1.75215">
        <ele>173.60000610352</ele>
        <time>2011-04-26T10:33:13.000Z</time>
      </trkpt>
      <trkpt lat="48.70813" lon="1.7522">
        <ele>173.60000610352</ele>
        <time>2011-04-26T10:33:16.000Z</time>
      </trkpt>
      <trkpt lat="48.70808" lon="1.75232">
        <ele>173.60000610352</ele>
        <time>2011-04-26T10:33:24.000Z</time>
      </trkpt>
      <trkpt lat="48.70807" lon="1.75234">
        <ele>173.60000610352</ele>
        <time>2011-04-26T10:33:25.000Z</time>
      </trkpt>
      <trkpt lat="48.70806" lon="1.75237">
        <ele>173.60000610352</ele>
        <time>2011-04-26T10:33:27.000Z</time>
      </trkpt>
      <trkpt lat="48.70803" lon="1.75247">
        <ele>173.60000610352</ele>
        <time>2011-04-26T10:33:33.000Z</time>
      </trkpt>
      <trkpt lat="48.70801" lon="1.75252">
        <ele>173.60000610352</ele>
        <time>2011-04-26T10:33:35.000Z</time>
      </trkpt>
      <trkpt lat="48.70797" lon="1.75261">
        <ele>173.39999389648</ele>
        <time>2011-04-26T10:33:40.000Z</time>
      </trkpt>
      <trkpt lat="48.70793" lon="1.7527">
        <ele>173.39999389648</ele>
        <time>2011-04-26T10:33:46.000Z</time>
      </trkpt>
      <trkpt lat="48.70792" lon="1.75273">
        <ele>173.39999389648</ele>
        <time>2011-04-26T10:33:48.000Z</time>
      </trkpt>
      <trkpt lat="48.70787" lon="1.75288">
        <ele>173.39999389648</ele>
        <time>2011-04-26T10:33:56.000Z</time>
      </trkpt>
      <trkpt lat="48.70783" lon="1.75297">
        <ele>173.19999694824</ele>
        <time>2011-04-26T10:34:01.000Z</time>
      </trkpt>
      <trkpt lat="48.70779" lon="1.75307">
        <ele>173.19999694824</ele>
        <time>2011-04-26T10:34:07.000Z</time>
      </trkpt>
      <trkpt lat="48.70775" lon="1.75317">
        <ele>173.19999694824</ele>
        <time>2011-04-26T10:34:13.000Z</time>
      </trkpt>
      <trkpt lat="48.70768" lon="1.7533">
        <ele>173.19999694824</ele>
        <time>2011-04-26T10:34:21.000Z</time>
      </trkpt>
      <trkpt lat="48.70763" lon="1.75342">
        <ele>173</ele>
        <time>2011-04-26T10:34:28.000Z</time>
      </trkpt>
      <trkpt lat="48.70762" lon="1.75346">
        <ele>173</ele>
        <time>2011-04-26T10:34:30.000Z</time>
      </trkpt>
      <trkpt lat="48.7076" lon="1.75354">
        <ele>172.80000305176</ele>
        <time>2011-04-26T10:34:35.000Z</time>
      </trkpt>
      <trkpt lat="48.70756" lon="1.75364">
        <ele>172.60000610352</ele>
        <time>2011-04-26T10:34:40.000Z</time>
      </trkpt>
      <trkpt lat="48.70754" lon="1.7537">
        <ele>172.60000610352</ele>
        <time>2011-04-26T10:34:44.000Z</time>
      </trkpt>
      <trkpt lat="48.70749" lon="1.75382">
        <ele>172.19999694824</ele>
        <time>2011-04-26T10:34:51.000Z</time>
      </trkpt>
      <trkpt lat="48.70746" lon="1.75389">
        <ele>172.19999694824</ele>
        <time>2011-04-26T10:34:56.000Z</time>
      </trkpt>
      <trkpt lat="48.70743" lon="1.75396">
        <ele>172</ele>
        <time>2011-04-26T10:35:01.000Z</time>
      </trkpt>
      <trkpt lat="48.70739" lon="1.75405">
        <ele>171.80000305176</ele>
        <time>2011-04-26T10:35:07.000Z</time>
      </trkpt>
      <trkpt lat="48.70736" lon="1.75413">
        <ele>171.80000305176</ele>
        <time>2011-04-26T10:35:12.000Z</time>
      </trkpt>
      <trkpt lat="48.70734" lon="1.75418">
        <ele>171.60000610352</ele>
        <time>2011-04-26T10:35:15.000Z</time>
      </trkpt>
      <trkpt lat="48.7073" lon="1.75425">
        <ele>171.60000610352</ele>
        <time>2011-04-26T10:35:20.000Z</time>
      </trkpt>
      <trkpt lat="48.70724" lon="1.75436">
        <ele>171.60000610352</ele>
        <time>2011-04-26T10:35:30.000Z</time>
      </trkpt>
      <trkpt lat="48.70716" lon="1.75463">
        <ele>171.60000610352</ele>
        <time>2011-04-26T10:35:54.000Z</time>
      </trkpt>
      <trkpt lat="48.70711" lon="1.75475">
        <ele>171.80000305176</ele>
        <time>2011-04-26T10:36:00.000Z</time>
      </trkpt>
      <trkpt lat="48.70708" lon="1.75479">
        <ele>171.80000305176</ele>
        <time>2011-04-26T10:36:03.000Z</time>
      </trkpt>
      <trkpt lat="48.70707" lon="1.75481">
        <ele>171.80000305176</ele>
        <time>2011-04-26T10:36:05.000Z</time>
      </trkpt>
      <trkpt lat="48.70702" lon="1.75487">
        <ele>172</ele>
        <time>2011-04-26T10:36:12.000Z</time>
      </trkpt>
      <trkpt lat="48.70701" lon="1.75487">
        <ele>172</ele>
        <time>2011-04-26T10:36:16.000Z</time>
      </trkpt>
      <trkpt lat="48.70698" lon="1.75495">
        <ele>172</ele>
        <time>2011-04-26T10:36:39.000Z</time>
      </trkpt>
      <trkpt lat="48.70698" lon="1.75504">
        <ele>172.19999694824</ele>
        <time>2011-04-26T10:36:43.000Z</time>
      </trkpt>
      <trkpt lat="48.70693" lon="1.75519">
        <ele>172.60000610352</ele>
        <time>2011-04-26T10:36:51.000Z</time>
      </trkpt>
      <trkpt lat="48.70689" lon="1.75529">
        <ele>173</ele>
        <time>2011-04-26T10:36:57.000Z</time>
      </trkpt>
      <trkpt lat="48.70683" lon="1.75543">
        <ele>173.39999389648</ele>
        <time>2011-04-26T10:37:06.000Z</time>
      </trkpt>
      <trkpt lat="48.70677" lon="1.75556">
        <ele>174</ele>
        <time>2011-04-26T10:37:14.000Z</time>
      </trkpt>
      <trkpt lat="48.7067" lon="1.75571">
        <ele>174.60000610352</ele>
        <time>2011-04-26T10:37:23.000Z</time>
      </trkpt>
      <trkpt lat="48.70664" lon="1.75581">
        <ele>175.19999694824</ele>
        <time>2011-04-26T10:37:30.000Z</time>
      </trkpt>
      <trkpt lat="48.70659" lon="1.75589">
        <ele>175.60000610352</ele>
        <time>2011-04-26T10:37:36.000Z</time>
      </trkpt>
      <trkpt lat="48.70655" lon="1.756">
        <ele>176</ele>
        <time>2011-04-26T10:37:43.000Z</time>
      </trkpt>
      <trkpt lat="48.70654" lon="1.75603">
        <ele>176.19999694824</ele>
        <time>2011-04-26T10:37:45.000Z</time>
      </trkpt>
      <trkpt lat="48.70653" lon="1.75612">
        <ele>176.39999389648</ele>
        <time>2011-04-26T10:37:50.000Z</time>
      </trkpt>
      <trkpt lat="48.70649" lon="1.7562">
        <ele>176.80000305176</ele>
        <time>2011-04-26T10:37:56.000Z</time>
      </trkpt>
      <trkpt lat="48.70647" lon="1.75626">
        <ele>177</ele>
        <time>2011-04-26T10:38:00.000Z</time>
      </trkpt>
      <trkpt lat="48.70646" lon="1.75642">
        <ele>177.19999694824</ele>
        <time>2011-04-26T10:38:07.000Z</time>
      </trkpt>
      <trkpt lat="48.70645" lon="1.75648">
        <ele>177.39999389648</ele>
        <time>2011-04-26T10:38:10.000Z</time>
      </trkpt>
      <trkpt lat="48.70646" lon="1.75654">
        <ele>177.39999389648</ele>
        <time>2011-04-26T10:38:13.000Z</time>
      </trkpt>
      <trkpt lat="48.70647" lon="1.75666">
        <ele>177.19999694824</ele>
        <time>2011-04-26T10:38:19.000Z</time>
      </trkpt>
      <trkpt lat="48.70649" lon="1.75671">
        <ele>176.80000305176</ele>
        <time>2011-04-26T10:38:23.000Z</time>
      </trkpt>
      <trkpt lat="48.70651" lon="1.75674">
        <ele>176.60000610352</ele>
        <time>2011-04-26T10:38:26.000Z</time>
      </trkpt>
      <trkpt lat="48.70658" lon="1.75682">
        <ele>175.60000610352</ele>
        <time>2011-04-26T10:38:33.000Z</time>
      </trkpt>
      <trkpt lat="48.70658" lon="1.75683">
        <ele>175.60000610352</ele>
        <time>2011-04-26T10:38:34.000Z</time>
      </trkpt>
      <trkpt lat="48.70665" lon="1.75689">
        <ele>174.80000305176</ele>
        <time>2011-04-26T10:38:41.000Z</time>
      </trkpt>
      <trkpt lat="48.70674" lon="1.75698">
        <ele>174.39999389648</ele>
        <time>2011-04-26T10:38:49.000Z</time>
      </trkpt>
      <trkpt lat="48.70681" lon="1.75707">
        <ele>174.19999694824</ele>
        <time>2011-04-26T10:38:56.000Z</time>
      </trkpt>
      <trkpt lat="48.70681" lon="1.75707">
        <ele>174.19999694824</ele>
        <time>2011-04-26T10:38:56.000Z</time>
      </trkpt>
      <trkpt lat="48.70682" lon="1.75709">
        <ele>174.19999694824</ele>
        <time>2011-04-26T10:38:57.000Z</time>
      </trkpt>
      <trkpt lat="48.70691" lon="1.75719">
        <ele>174</ele>
        <time>2011-04-26T10:39:06.000Z</time>
      </trkpt>
      <trkpt lat="48.70699" lon="1.75731">
        <ele>174</ele>
        <time>2011-04-26T10:39:14.000Z</time>
      </trkpt>
      <trkpt lat="48.70705" lon="1.75739">
        <ele>174</ele>
        <time>2011-04-26T10:39:20.000Z</time>
      </trkpt>
      <trkpt lat="48.70709" lon="1.75745">
        <ele>173.80000305176</ele>
        <time>2011-04-26T10:39:24.000Z</time>
      </trkpt>
      <trkpt lat="48.70714" lon="1.75754">
        <ele>173.80000305176</ele>
        <time>2011-04-26T10:39:30.000Z</time>
      </trkpt>
      <trkpt lat="48.7072" lon="1.75756">
        <ele>173.80000305176</ele>
        <time>2011-04-26T10:39:34.000Z</time>
      </trkpt>
      <trkpt lat="48.70728" lon="1.75761">
        <ele>173.80000305176</ele>
        <time>2011-04-26T10:39:38.000Z</time>
      </trkpt>
      <trkpt lat="48.70737" lon="1.7577">
        <ele>173.60000610352</ele>
        <time>2011-04-26T10:39:44.000Z</time>
      </trkpt>
      <trkpt lat="48.70747" lon="1.75782">
        <ele>173.60000610352</ele>
        <time>2011-04-26T10:39:52.000Z</time>
      </trkpt>
      <trkpt lat="48.70747" lon="1.75788">
        <ele>173.39999389648</ele>
        <time>2011-04-26T10:39:56.000Z</time>
      </trkpt>
      <trkpt lat="48.70754" lon="1.75791">
        <ele>173.39999389648</ele>
        <time>2011-04-26T10:39:59.000Z</time>
      </trkpt>
      <trkpt lat="48.70759" lon="1.75796">
        <ele>173.19999694824</ele>
        <time>2011-04-26T10:40:02.000Z</time>
      </trkpt>
      <trkpt lat="48.70763" lon="1.75803">
        <ele>173</ele>
        <time>2011-04-26T10:40:07.000Z</time>
      </trkpt>
      <trkpt lat="48.70765" lon="1.75804">
        <ele>173</ele>
        <time>2011-04-26T10:40:08.000Z</time>
      </trkpt>
      <trkpt lat="48.70777" lon="1.75815">
        <ele>172.80000305176</ele>
        <time>2011-04-26T10:40:15.000Z</time>
      </trkpt>
      <trkpt lat="48.70784" lon="1.75821">
        <ele>172.60000610352</ele>
        <time>2011-04-26T10:40:19.000Z</time>
      </trkpt>
      <trkpt lat="48.70783" lon="1.75823">
        <ele>172.60000610352</ele>
        <time>2011-04-26T10:40:20.000Z</time>
      </trkpt>
      <trkpt lat="48.7078" lon="1.75834">
        <ele>172.60000610352</ele>
        <time>2011-04-26T10:40:26.000Z</time>
      </trkpt>
      <trkpt lat="48.70781" lon="1.75837">
        <ele>172.60000610352</ele>
        <time>2011-04-26T10:40:29.000Z</time>
      </trkpt>
      <trkpt lat="48.7078" lon="1.75837">
        <ele>172.60000610352</ele>
        <time>2011-04-26T10:40:33.000Z</time>
      </trkpt>
      <trkpt lat="48.70782" lon="1.75844">
        <ele>172.60000610352</ele>
        <time>2011-04-26T10:41:08.000Z</time>
      </trkpt>
      <trkpt lat="48.70789" lon="1.75851">
        <ele>172.60000610352</ele>
        <time>2011-04-26T10:41:13.000Z</time>
      </trkpt>
      <trkpt lat="48.70792" lon="1.75854">
        <ele>172.60000610352</ele>
        <time>2011-04-26T10:41:16.000Z</time>
      </trkpt>
      <trkpt lat="48.70794" lon="1.75857">
        <ele>172.60000610352</ele>
        <time>2011-04-26T10:41:19.000Z</time>
      </trkpt>
      <trkpt lat="48.708" lon="1.75864">
        <ele>172.80000305176</ele>
        <time>2011-04-26T10:41:26.000Z</time>
      </trkpt>
      <trkpt lat="48.708" lon="1.75867">
        <ele>172.80000305176</ele>
        <time>2011-04-26T10:41:31.000Z</time>
      </trkpt>
      <trkpt lat="48.708" lon="1.75866">
        <ele>172.80000305176</ele>
        <time>2011-04-26T10:41:32.000Z</time>
      </trkpt>
      <trkpt lat="48.70803" lon="1.75866">
        <ele>172.80000305176</ele>
        <time>2011-04-26T10:41:36.000Z</time>
      </trkpt>
      <trkpt lat="48.7082" lon="1.75882">
        <ele>173</ele>
        <time>2011-04-26T10:41:56.000Z</time>
      </trkpt>
      <trkpt lat="48.70823" lon="1.75885">
        <ele>173.19999694824</ele>
        <time>2011-04-26T10:41:59.000Z</time>
      </trkpt>
      <trkpt lat="48.70831" lon="1.75889">
        <ele>173.19999694824</ele>
        <time>2011-04-26T10:42:06.000Z</time>
      </trkpt>
      <trkpt lat="48.70836" lon="1.75893">
        <ele>173.39999389648</ele>
        <time>2011-04-26T10:42:11.000Z</time>
      </trkpt>
      <trkpt lat="48.70836" lon="1.75894">
        <ele>173.39999389648</ele>
        <time>2011-04-26T10:42:14.000Z</time>
      </trkpt>
    </trkseg>
  </trk>
</gpx>